Date StartTime U_cm/s V_cm/s W_cm/s Ustd_cm/s Vstd_cm/s Wstd_cm/s Uvar_(cm/s)^2 Vvar_(cm/s)^2 Wvar_(cm/s)^2 KE_(m/s)^2 TurbulentKE_(m/s)^2 HorizWindSpeed_cm/s FrictionSpeec_cm/s DragCoef SpeedOfSound_m/s SonicTemperature_C Pressure_mb 
08/27/2014  00:00:00      -92.819      -64.431        7.432       52.244       28.862       25.665     2729.411      833.019      658.677        0.852        0.211      112.990       26.625        0.056      342.388       17.763      864.184
08/27/2014  00:01:00      -99.640      -75.350       -2.059       40.233       31.073       24.507     1618.713      965.521      600.588        0.940        0.159      124.923       18.348        0.022      342.347       17.692      864.175
08/27/2014  00:02:00      -83.014      -53.254        9.040       53.501       44.080       26.681     2862.406     1943.013      711.880        0.766        0.276       98.627       26.936        0.075      342.318       17.644      864.174
08/27/2014  00:03:00     -106.894      -69.832       -2.133       35.502       29.318       21.048     1260.363      859.541      443.005        0.943        0.128      127.683       15.766        0.015      342.322       17.651      864.172
08/27/2014  00:04:00      -95.599      -53.175       -0.280       36.847       22.290       18.042     1357.694      496.823      325.497        0.707        0.109      109.393       17.332        0.025      342.263       17.550      864.175
08/27/2014  00:05:00     -102.008      -55.646        1.021       40.951       24.760       22.669     1676.969      613.080      513.889        0.815        0.140      116.199       20.205        0.030      342.276       17.571      864.167
08/27/2014  00:06:00      -91.957      -60.874        4.616       38.386       27.354       20.598     1473.459      748.223      424.282        0.741        0.132      110.281       15.186        0.019      342.281       17.583      864.153
08/27/2014  00:07:00     -117.211      -60.004       -0.321       24.637       22.655       15.675      606.997      513.263      245.715        0.935        0.068      131.677       14.703        0.012      342.265       17.553      864.163
08/27/2014  00:08:00     -122.902      -53.767        0.314       28.308       22.685       17.993      801.356      514.603      323.752        0.982        0.082      134.148       18.064        0.018      342.204       17.449      864.166
08/27/2014  00:09:00     -109.194      -51.859        0.495       38.360       24.077       19.463     1471.476      579.705      378.811        0.852        0.121      120.883       18.967        0.025      342.286       17.590      864.165
08/27/2014  00:10:00      -81.162      -40.694        0.784       40.064       15.435       16.350     1605.152      238.249      267.333        0.518        0.106       90.793       19.889        0.048      342.216       17.470      864.177
08/27/2014  00:11:00     -137.363      -53.543       -3.462       23.367       17.692       15.265      545.997      313.003      233.027        1.142        0.055      147.429        8.239        0.003      342.279       17.578      864.173
08/27/2014  00:12:00     -103.363      -40.882        5.246       37.216       28.048       22.597     1384.998      786.689      510.625        0.753        0.134      111.155       20.875        0.035      342.239       17.512      864.173
08/27/2014  00:13:00      -99.605      -34.465        5.275       40.512       23.220       15.833     1641.257      539.146      250.672        0.678        0.122      105.399       19.431        0.034      342.222       17.478      864.177
08/27/2014  00:14:00      -96.043      -40.832       -2.844       42.268       32.757       20.459     1786.549     1073.048      418.579        0.709        0.164      104.362       23.407        0.050      342.179       17.407      864.195
08/27/2014  00:15:00      -62.050      -33.742        4.303       36.859       28.944       19.114     1358.609      837.763      365.344        0.378        0.128       70.631       19.830        0.079      342.188       17.423      864.203
08/27/2014  00:16:00      -53.960      -45.487        1.870       35.613       24.310       17.142     1268.274      590.962      293.855        0.357        0.108       70.575       14.842        0.044      342.199       17.442      864.202
08/27/2014  00:17:00      -31.393      -32.950        6.759       36.166       28.888       18.290     1308.002      834.491      334.533        0.230        0.124       45.511       19.271        0.179      342.194       17.432      864.214
08/27/2014  00:18:00      -12.366      -28.304        9.613       33.336       23.898       18.433     1111.319      571.134      339.790        0.153        0.101       30.887       17.933        0.337      342.220       17.478      864.228
08/27/2014  00:19:00      -46.326      -44.778        6.590       30.927       24.774       17.341      956.466      613.771      300.714        0.303        0.094       64.429       15.475        0.058      342.178       17.405      864.234
08/27/2014  00:20:00      -25.070      -39.021       10.726       32.071       23.397       17.207     1028.517      547.435      296.082        0.207        0.094       46.380       13.565        0.086      342.216       17.472      864.241
08/27/2014  00:21:00      -45.884      -57.926        0.759       26.564       24.229       19.581      705.661      587.067      383.401        0.357        0.084       73.897       14.759        0.040      342.293       17.601      864.258
08/27/2014  00:22:00        2.200      -22.647       12.273       18.226       18.419       13.645      332.180      339.277      186.175        0.076        0.043       22.753       12.758        0.314      342.330       17.665      864.289
08/27/2014  00:23:00        3.803      -53.483       -6.145       13.977       21.030        9.776      195.361      442.267       95.565        0.182        0.037       53.618        8.313        0.024      342.340       17.682      864.309
08/27/2014  00:24:00        4.268      -36.606       -0.183       15.163       14.691       11.353      229.921      215.812      128.897        0.097        0.029       36.854        8.016        0.047      342.411       17.802      864.334
08/27/2014  00:25:00      -19.951      -34.774       -2.195       12.323       16.402       14.443      151.847      269.042      208.597        0.112        0.031       40.091       11.227        0.078      342.473       17.908      864.363
08/27/2014  00:26:00      -35.707      -36.400       -8.575       15.167       14.413        8.936      230.043      207.740       79.846        0.160        0.026       50.990        7.375        0.021      342.566       18.067      864.375
08/27/2014  00:27:00      -18.501      -33.024        2.465       24.448       15.938       15.031      597.686      254.020      225.918        0.126        0.054       37.853       15.303        0.163      342.517       17.981      864.391
08/27/2014  00:28:00        0.714       21.076       21.721       16.412       15.903       18.965      269.368      252.905      359.661        0.090        0.044       21.088       10.194        0.234      342.277       17.573      864.426
08/27/2014  00:29:00      -10.050        8.378       13.278        9.689       12.423       12.109       93.867      154.332      146.627        0.037        0.020       13.084        7.772        0.353      342.156       17.369      864.447
08/27/2014  00:30:00      -14.768        5.586        3.143        9.934        7.165        8.402       98.692       51.336       70.599        0.024        0.011       15.789        5.840        0.137      342.158       17.373      864.453
08/27/2014  00:31:00       -0.149      -11.429        3.751        5.592        6.624        5.601       31.270       43.878       31.370        0.013        0.005       11.430        2.838        0.062      342.270       17.562      864.453
08/27/2014  00:32:00       -3.148        6.477        7.978        5.346        7.693        7.327       28.584       59.185       53.688        0.013        0.007        7.201        3.561        0.245      342.068       17.219      864.456
08/27/2014  00:33:00       -3.254       33.685        0.867        7.192        9.486        7.334       51.719       89.988       53.788        0.067        0.010       33.842        5.131        0.023      342.008       17.118      864.459
08/27/2014  00:34:00       -8.022       33.370       -3.432        8.361       11.136        9.915       69.906      124.007       98.312        0.074        0.015       34.320        8.194        0.057      342.005       17.112      864.454
08/27/2014  00:35:00      -23.444       19.416       -6.075        8.835       11.734        6.865       78.050      137.687       47.122        0.061        0.013       30.440        4.945        0.026      341.985       17.078      864.449
08/27/2014  00:36:00      -37.452       20.078       -6.940        6.528        8.248        4.339       42.612       68.034       18.829        0.099        0.006       42.495        2.132        0.003      342.055       17.197      864.443
08/27/2014  00:37:00      -57.746       22.088       -8.893        8.002        6.738        5.980       64.040       45.406       35.758        0.202        0.007       61.826        2.760        0.002      341.935       16.992      864.459
08/27/2014  00:38:00      -82.944       -7.116       -8.673       13.812       16.768        6.715      190.759      281.173       45.096        0.376        0.026       83.249        8.171        0.010      342.038       17.168      864.460
08/27/2014  00:39:00     -109.582      -34.386       -8.741       13.121        9.630        7.415      172.152       92.739       54.986        0.679        0.016      114.851        4.913        0.002      342.011       17.123      864.455
08/27/2014  00:40:00     -125.408      -43.336       -8.666       13.036       14.529        7.825      169.932      211.082       61.227        0.906        0.022      132.684        6.513        0.002      341.981       17.072      864.455
08/27/2014  00:41:00     -130.702      -55.033       -3.343       17.316       20.370        9.634      299.846      414.954       92.814        1.047        0.040      141.815        7.723        0.003      341.985       17.077      864.461
08/27/2014  00:42:00     -103.152      -54.784        4.753       42.616       24.254       20.207     1816.092      588.258      408.334        0.824        0.141      116.797       19.835        0.029      341.798       16.762      864.455
08/27/2014  00:43:00      -79.817      -51.231        9.296       56.396       33.273       22.101     3180.563     1107.063      488.449        0.693        0.239       94.844       26.068        0.076      341.997       17.099      864.457
08/27/2014  00:44:00      -99.630      -57.229        8.932       50.247       26.312       21.728     2524.746      692.336      472.127        0.848        0.184      114.897       19.462        0.029      341.948       17.014      864.465
08/27/2014  00:45:00      -86.313      -46.417        2.185       52.335       34.710       20.420     2738.992     1204.795      416.988        0.698        0.218       98.002       19.478        0.040      341.961       17.037      864.482
08/27/2014  00:46:00      -80.851      -43.070        6.124       31.959       33.027       17.129     1021.367     1090.788      293.403        0.542        0.120       91.607       16.127        0.031      341.888       16.912      864.492
08/27/2014  00:47:00     -106.029      -31.462       -4.123       29.582       27.248       18.886      875.077      742.435      356.698        0.711        0.099      110.599       16.409        0.022      341.943       17.006      864.499
08/27/2014  00:48:00     -106.480       -5.205        0.967       39.547       30.992       22.235     1563.949      960.501      494.396        0.719        0.151      106.607       19.798        0.034      341.811       16.782      864.505
08/27/2014  00:49:00     -116.246       -5.122        0.378       49.540       41.967       28.915     2454.250     1761.269      836.063        0.929        0.253      116.359       27.445        0.056      341.649       16.507      864.519
08/27/2014  00:50:00     -108.943      -17.009        5.226       50.216       38.299       24.650     2521.598     1466.843      607.615        0.839        0.230      110.263       24.386        0.049      341.708       16.609      864.520
08/27/2014  00:51:00     -104.670      -30.201       -4.584       40.701       36.921       23.857     1656.589     1363.197      569.143        0.774        0.179      108.939       24.017        0.049      341.738       16.658      864.515
08/27/2014  00:52:00     -101.245      -50.633       -2.127       34.542       28.581       19.572     1193.168      816.852      383.057        0.761        0.120      113.200       13.478        0.014      341.794       16.754      864.510
08/27/2014  00:53:00     -139.681      -14.529       -5.568       54.516       31.098       21.648     2971.982      967.087      468.621        1.208        0.220      140.434       25.197        0.032      341.722       16.631      864.495
08/27/2014  00:54:00     -165.115       -9.756      -11.302       31.871       23.409       20.424     1015.791      547.980      417.150        1.473        0.099      165.403       17.970        0.012      341.694       16.585      864.473
08/27/2014  00:55:00     -138.938       -1.010      -11.210       34.685       29.207       18.204     1203.070      853.059      331.384        1.091        0.119      138.941       17.469        0.016      341.792       16.750      864.459
08/27/2014  00:56:00     -138.353        8.509       -8.457       28.277       27.143       15.701      799.616      736.737      246.512        1.053        0.089      138.615       12.510        0.008      341.809       16.780      864.446
08/27/2014  00:57:00     -122.724      -12.425      -10.895       25.310       18.696       16.910      640.614      349.547      285.942        0.830        0.064      123.352       13.513        0.012      341.846       16.842      864.440
08/27/2014  00:58:00      -77.100      -16.236       -2.903       34.728       31.352       18.021     1206.032      982.934      324.754        0.436        0.126       78.791       10.809        0.019      341.766       16.707      864.429
08/27/2014  00:59:00      -76.526      -19.452       -2.689       44.310       25.549       18.896     1963.397      652.742      357.045        0.461        0.149       78.959       20.293        0.066      341.735       16.654      864.428
08/27/2014  01:00:00      -66.898       -6.757        3.506       41.093       26.104       17.269     1688.662      681.439      298.217        0.360        0.133       67.239       19.097        0.081      341.672       16.547      864.415
08/27/2014  01:01:00     -114.032      -13.506       -6.572       61.716       30.749       27.379     3808.806      945.519      749.587        0.937        0.275      114.829       31.926        0.077      341.726       16.639      864.408
08/27/2014  01:02:00      -95.791      -14.996      -10.617       40.827       42.583       20.843     1666.839     1813.270      434.449        0.671        0.196       96.957       19.966        0.042      341.766       16.705      864.407
08/27/2014  01:03:00      -74.032      -32.671       -3.288       38.798       33.614       22.397     1505.299     1129.879      501.623        0.485        0.157       80.920       21.662        0.072      341.706       16.606      864.415
08/27/2014  01:04:00      -82.664      -31.723        0.263       26.027       28.775       16.115      677.422      828.026      259.707        0.480        0.088       88.542        8.138        0.008      341.725       16.636      864.419
08/27/2014  01:05:00      -62.457      -37.413       -1.100       42.845       18.725       17.654     1835.729      350.608      311.669        0.390        0.125       72.805       20.087        0.076      341.791       16.749      864.426
08/27/2014  01:06:00      -54.591      -53.022        3.172       37.221       29.668       16.612     1385.381      880.195      275.949        0.417        0.127       76.102       17.423        0.052      341.858       16.861      864.447
08/27/2014  01:07:00      -40.363      -33.462       -4.806       36.443       23.848       17.750     1328.061      568.743      315.077        0.249        0.111       52.430        4.762        0.008      341.953       17.025      864.453
08/27/2014  01:08:00      -79.431      -68.017       -1.150       41.336       33.999       22.173     1708.685     1155.902      491.631        0.715        0.168      104.573       20.837        0.040      341.919       16.966      864.447
08/27/2014  01:09:00      -94.317      -81.087       -4.754       52.319       45.316       28.370     2737.287     2053.578      804.848        1.054        0.280      124.381       25.117        0.041      341.917       16.963      864.449
08/27/2014  01:10:00      -95.467      -72.407       -5.211       43.210       41.710       25.121     1867.091     1739.727      631.052        0.931        0.212      119.820       12.897        0.012      341.874       16.889      864.453
08/27/2014  01:11:00      -97.060      -51.373       10.259       51.360       38.127       29.501     2637.825     1453.663      870.308        0.856        0.248      109.817       23.833        0.047      341.822       16.801      864.451
08/27/2014  01:12:00     -105.082      -70.612       -6.456       37.698       37.669       19.203     1421.126     1418.960      368.759        0.964        0.160      126.603       17.418        0.019      341.836       16.824      864.462
08/27/2014  01:13:00     -101.157      -83.082        1.946       53.788       42.551       24.075     2893.171     1810.573      579.614        1.121        0.264      130.902       21.521        0.027      341.840       16.833      864.473
08/27/2014  01:14:00     -114.529      -63.248        8.293       63.614       36.258       26.949     4046.803     1314.609      726.238        1.164        0.304      130.833       19.996        0.023      341.845       16.840      864.478
08/27/2014  01:15:00     -117.309      -73.488       11.174       83.081       46.076       34.185     6902.403     2122.964     1168.604        1.474        0.510      138.427       38.747        0.078      341.774       16.720      864.476
08/27/2014  01:16:00      -93.588      -75.640        0.104       80.315       64.078       35.155     6450.441     4106.024     1235.869        1.313        0.590      120.333       40.273        0.112      341.746       16.672      864.477
08/27/2014  01:17:00     -143.645     -114.389        4.195       72.363       46.604       35.436     5236.420     2171.905     1255.706        2.120        0.433      183.626       39.069        0.045      341.759       16.693      864.496
08/27/2014  01:18:00     -110.813      -86.628        7.556       62.794       49.286       32.761     3943.138     2429.106     1073.270        1.364        0.372      140.655       32.030        0.052      341.723       16.633      864.508
08/27/2014  01:19:00     -114.460      -93.575        2.711       62.919       44.495       30.715     3958.755     1979.834      943.416        1.437        0.344      147.842       33.882        0.053      341.695       16.586      864.509
08/27/2014  01:20:00     -121.670     -104.849        9.110       58.117       40.404       31.318     3377.539     1632.465      980.839        1.593        0.300      160.614       29.041        0.033      341.696       16.586      864.516
08/27/2014  01:21:00     -102.222      -76.956        0.587       58.596       47.383       22.693     3433.442     2245.135      514.994        1.128        0.310      127.951       32.772        0.066      341.736       16.655      864.524
08/27/2014  01:22:00     -116.577      -71.938       -8.528       32.205       30.041       19.714     1037.143      902.491      388.633        1.058        0.116      136.986       20.000        0.021      341.733       16.652      864.525
08/27/2014  01:23:00      -53.103      -47.695        1.214       52.790       28.160       20.115     2786.779      793.005      404.623        0.454        0.199       71.378       16.521        0.054      341.744       16.670      864.518
08/27/2014  01:24:00      -74.435      -53.970       -5.043       35.291       17.331       13.725     1245.464      300.376      188.370        0.511        0.087       91.942       13.254        0.021      341.755       16.687      864.517
08/27/2014  01:25:00      -90.456      -28.659       -7.550       22.060       12.679       12.092      486.662      160.752      146.206        0.493        0.040       94.888        7.127        0.006      341.766       16.706      864.512
08/27/2014  01:26:00     -107.747      -45.554       -7.172       20.960       25.324       15.161      439.305      641.293      229.848        0.752        0.066      116.981        8.292        0.005      341.900       16.934      864.502
08/27/2014  01:27:00      -57.754      -41.973        4.183       29.255       28.288       13.973      855.870      800.224      195.244        0.348        0.093       71.395        7.712        0.012      341.917       16.963      864.504
08/27/2014  01:28:00      -71.991      -44.746       -0.681       35.160       15.810       16.450     1236.204      249.946      270.598        0.447        0.088       84.764       18.850        0.049      341.852       16.852      864.500
08/27/2014  01:29:00      -93.392      -41.759       -1.550       23.730       22.944       13.736      563.129      526.415      188.686        0.587        0.064      102.303        9.857        0.009      341.757       16.692      864.494
08/27/2014  01:30:00      -93.135      -39.595       -2.669       18.218       18.524       12.476      331.886      343.142      155.638        0.554        0.042      101.202       11.177        0.012      341.729       16.643      864.485
08/27/2014  01:31:00      -66.204      -22.702        0.254       15.335       18.093       12.064      235.160      327.343      145.552        0.280        0.035       69.988        7.448        0.011      341.718       16.626      864.489
08/27/2014  01:32:00      -61.499      -31.216        6.133       22.957       16.755       16.410      527.019      280.747      269.294        0.294        0.054       68.968       15.085        0.048      341.702       16.598      864.482
08/27/2014  01:33:00      -34.557      -30.650        7.814       25.456       22.144       14.398      647.984      490.359      207.306        0.177        0.067       46.191        8.258        0.032      341.688       16.574      864.476
08/27/2014  01:34:00       -9.984      -26.156       12.555       30.662       19.007       14.932      940.130      361.249      222.963        0.123        0.076       27.997       18.405        0.432      341.549       16.339      864.477
08/27/2014  01:35:00      -56.046      -65.629        0.442       30.974       28.245       16.305      959.396      797.789      265.850        0.474        0.101       86.304       12.847        0.022      341.654       16.517      864.487
08/27/2014  01:36:00      -64.103      -36.578       -7.449       25.306       21.483       16.208      640.388      461.528      262.715        0.343        0.068       73.805        9.951        0.018      341.600       16.423      864.502
08/27/2014  01:37:00      -64.202      -84.765       -8.509       50.374       41.259       26.302     2537.554     1702.336      691.818        0.815        0.247      106.334       14.273        0.018      341.615       16.450      864.509
08/27/2014  01:38:00      -94.837     -110.455        2.773       57.479       54.507       31.075     3303.787     2970.961      965.663        1.422        0.362      145.583       27.047        0.035      341.514       16.279      864.515
08/27/2014  01:39:00     -125.064      -92.983      -12.634       50.163       46.331       29.863     2516.371     2146.590      891.817        1.500        0.278      155.842       27.589        0.031      341.451       16.171      864.543
08/27/2014  01:40:00     -135.624     -153.909      -10.427       57.049       70.144       38.473     3254.549     4920.147     1480.147        2.592        0.483      205.139       38.448        0.035      341.416       16.110      864.550
08/27/2014  01:41:00     -133.597      -93.821       -6.614       70.843       56.505       32.814     5018.706     3192.804     1076.730        1.799        0.464      163.250       26.794        0.027      341.395       16.076      864.554
08/27/2014  01:42:00     -125.343      -82.106        5.048       64.099       59.680       37.464     4108.657     3561.746     1403.545        1.577        0.454      149.840       36.276        0.059      341.348       15.996      864.574
08/27/2014  01:43:00     -151.163     -117.558       -0.375       78.976       55.654       36.925     6237.231     3097.358     1363.439        2.368        0.535      191.494       39.943        0.044      341.368       16.029      864.575
08/27/2014  01:44:00     -161.951     -122.704        0.043       61.795       47.120       30.712     3818.568     2220.271      943.228        2.413        0.349      203.186       33.012        0.026      341.383       16.055      864.575
08/27/2014  01:45:00     -138.298     -109.101        4.144       61.451       48.510       35.828     3776.208     2353.192     1283.610        1.923        0.371      176.152       33.524        0.036      341.383       16.056      864.582
08/27/2014  01:46:00     -186.237     -132.782      -13.392       42.669       43.486       26.521     1820.624     1891.050      703.386        2.845        0.221      228.725       20.245        0.008      341.394       16.073      864.600
08/27/2014  01:47:00     -142.536     -106.712       -5.794       47.973       40.920       25.989     2301.361     1674.466      675.442        1.819        0.233      178.056       20.398        0.013      341.396       16.080      864.597
08/27/2014  01:48:00      -81.648      -57.971        3.713       44.097       35.826       25.196     1944.580     1283.471      634.846        0.695        0.193      100.135       22.448        0.050      341.325       15.960      864.590
08/27/2014  01:49:00      -98.734      -61.986       -8.387       34.787       30.440       17.307     1210.136      926.592      299.549        0.805        0.122      116.579       14.678        0.016      341.380       16.049      864.592
08/27/2014  01:50:00      -99.175      -54.464       -4.132       33.097       37.279       17.751     1095.385     1389.712      315.098        0.781        0.140      113.146       18.898        0.028      341.364       16.027      864.591
08/27/2014  01:51:00     -100.336      -29.437       -5.277       35.263       22.503       18.301     1243.453      506.402      334.944        0.652        0.104      104.565       20.221        0.037      341.359       16.015      864.582
08/27/2014  01:52:00      -56.180      -28.973       -4.998       18.931       16.604       10.275      358.401      275.688      105.575        0.238        0.037       63.211        6.220        0.010      341.453       16.176      864.576
08/27/2014  01:53:00      -68.289      -24.688      -12.299       13.994       15.901       12.824      195.834      252.834      164.456        0.302        0.031       72.615        7.685        0.011      341.466       16.199      864.581
08/27/2014  01:54:00      -36.156      -32.339       -0.444       17.272       16.508       13.814      298.325      272.524      190.835        0.156        0.038       48.508       12.082        0.062      341.550       16.341      864.577
08/27/2014  01:55:00      -31.980       -8.524        4.753       11.173       13.174        9.541      124.825      173.554       91.032        0.075        0.019       33.097        4.323        0.017      341.481       16.224      864.577
08/27/2014  01:56:00      -17.573       -3.481       -3.538        6.172        4.766        4.980       38.089       22.713       24.799        0.021        0.004       17.915        1.923        0.012      341.582       16.396      864.588
08/27/2014  01:57:00      -20.162       -7.054        1.023       10.431        6.739        5.230      108.811       45.416       27.351        0.032        0.009       21.360        4.235        0.039      341.557       16.352      864.596
08/27/2014  01:58:00       -3.712       -5.334       -2.930        5.846       10.550        8.845       34.171      111.307       78.241        0.014        0.011        6.499        8.115        1.559      341.405       16.095      864.606
08/27/2014  01:59:00      -39.060      -10.854       -0.294       20.957       13.827        8.842      439.181      191.190       78.188        0.118        0.035       40.540       10.206        0.063      341.413       16.110      864.609
08/27/2014  02:00:00      -44.107      -31.643        2.324       36.697       15.551       12.296     1346.651      241.829      151.192        0.235        0.087       54.283       14.792        0.074      341.394       16.075      864.625
08/27/2014  02:01:00      -20.674      -33.465       11.269       39.643       30.499       18.802     1571.539      930.169      353.513        0.226        0.143       39.336       20.019        0.259      341.309       15.933      864.642
08/27/2014  02:02:00      -54.200      -54.126       -1.191       34.822       25.214       14.755     1212.552      635.759      217.715        0.397        0.103       76.598       13.940        0.033      341.299       15.915      864.641
08/27/2014  02:03:00      -73.712      -46.636       -4.132       24.779       15.403       13.273      613.999      237.257      176.169        0.433        0.051       87.226       10.800        0.015      341.328       15.964      864.633
08/27/2014  02:04:00     -109.014      -53.902       -2.205       26.541       15.455       13.315      704.405      238.861      177.285        0.796        0.056      121.612        9.629        0.006      341.314       15.939      864.626
08/27/2014  02:05:00      -91.791      -27.270       -2.013       28.077       23.823       14.885      788.299      567.550      221.555        0.538        0.079       95.757       13.410        0.020      341.321       15.953      864.630
08/27/2014  02:06:00      -84.153      -36.884        2.218       31.129       28.104       15.243      968.992      789.826      232.340        0.522        0.100       91.881       17.075        0.035      341.246       15.826      864.622
08/27/2014  02:07:00     -107.256      -35.258       -3.487       30.499       28.954       17.135      930.207      838.352      293.610        0.741        0.103      112.903       13.782        0.015      341.228       15.795      864.610
08/27/2014  02:08:00     -100.902      -30.571       -4.332       24.179       28.067       16.666      584.640      787.762      277.767        0.639        0.083      105.431       11.119        0.011      341.155       15.673      864.598
08/27/2014  02:09:00      -80.998      -48.106       -4.636       29.601       19.996       15.347      876.237      399.841      235.522        0.520        0.076       94.207       16.130        0.029      341.264       15.857      864.586
08/27/2014  02:10:00      -85.886      -40.564      -11.902       31.596       18.699       12.859      998.338      349.650      165.366        0.534        0.076       94.983       12.885        0.018      341.209       15.763      864.580
08/27/2014  02:11:00      -81.462      -28.521       -3.439       16.086       25.974       16.131      258.766      674.630      260.198        0.433        0.060       86.310       10.413        0.015      341.079       15.541      864.569
08/27/2014  02:12:00      -82.131      -14.938       -7.106       23.339       17.502       11.367      544.688      306.309      129.211        0.400        0.049       83.479       10.050        0.014      341.163       15.685      864.558
08/27/2014  02:13:00      -87.654      -25.116       -4.364       26.083       14.574       13.374      680.308      212.410      178.866        0.470        0.054       91.181       13.860        0.023      341.038       15.472      864.554
08/27/2014  02:14:00      -72.617      -34.606       -7.036       13.238       18.970       11.048      175.241      359.868      122.051        0.359        0.033       80.442        6.791        0.007      341.101       15.581      864.562
08/27/2014  02:15:00      -86.417      -49.526       -9.899       13.528       18.478        8.119      183.017      341.445       65.922        0.530        0.030       99.603        5.378        0.003      341.031       15.461      864.576
08/27/2014  02:16:00      -85.713      -48.717       -5.330       23.547       15.553       13.852      554.458      241.901      191.888        0.537        0.049       98.591        2.663        0.001      341.076       15.539      864.584
08/27/2014  02:17:00      -46.634      -54.604        1.742       21.213       20.318       15.461      449.998      412.821      239.048        0.313        0.055       71.808       15.281        0.045      341.162       15.685      864.598
08/27/2014  02:18:00      -61.238      -38.935       -3.679       40.293       21.191       18.128     1623.528      449.046      328.629        0.384        0.120       72.567       13.113        0.033      341.187       15.727      864.617
08/27/2014  02:19:00      -61.782      -48.826       -4.307       43.213       22.865       18.007     1867.363      522.829      324.261        0.447        0.136       78.747       17.570        0.050      341.132       15.633      864.635
08/27/2014  02:20:00      -82.351      -60.335       -7.078       32.700       29.281       16.528     1069.316      857.405      273.161        0.634        0.110      102.089       15.787        0.024      341.233       15.803      864.652
08/27/2014  02:21:00      -89.377      -53.562       -5.539       22.983       20.589       16.304      528.232      423.917      265.806        0.605        0.061      104.198        8.421        0.007      341.231       15.801      864.661
08/27/2014  02:22:00      -49.695      -62.139       -3.359       29.097       28.392       17.660      846.616      806.127      311.859        0.415        0.098       79.567        6.773        0.007      341.254       15.840      864.664
08/27/2014  02:23:00      -73.781      -44.351       -3.055       30.418       19.415       16.755      925.272      376.948      280.715        0.450        0.079       86.085       15.242        0.031      341.223       15.788      864.677
08/27/2014  02:24:00      -79.126      -50.319       -4.751       36.205       16.606       15.975     1310.830      275.755      255.186        0.533        0.092       93.770       15.740        0.028      341.176       15.707      864.679
08/27/2014  02:25:00      -64.355      -47.826        6.246       41.006       23.469       20.316     1681.481      550.775      412.738        0.456        0.132       80.180       22.437        0.078      341.103       15.583      864.681
08/27/2014  02:26:00      -79.320      -29.549      -12.638       31.397       17.654       14.156      985.791      311.667      200.384        0.441        0.075       84.645       10.709        0.016      341.089       15.559      864.686
08/27/2014  02:27:00      -53.841      -44.696       -5.726       18.607       18.940       12.199      346.231      358.705      148.821        0.289        0.043       69.976        4.179        0.004      341.146       15.656      864.695
08/27/2014  02:28:00      -51.271      -35.038       -1.525       23.060       11.488       17.833      531.745      131.965      318.024        0.242        0.049       62.100       14.591        0.055      341.246       15.827      864.711
08/27/2014  02:29:00       -7.241      -23.793       14.444       17.359       12.094       10.207      301.323      146.267      104.187        0.069        0.028       24.871        9.693        0.152      341.294       15.907      864.719
08/27/2014  02:30:00      -33.155      -33.936       -0.340       13.896       16.532       12.102      193.095      273.305      146.449        0.143        0.031       47.444        6.837        0.021      341.320       15.951      864.727
08/27/2014  02:31:00      -43.808      -14.682       -1.220       20.639       14.608       11.184      425.980      213.407      125.073        0.145        0.038       46.203        9.938        0.046      341.233       15.804      864.732
08/27/2014  02:32:00      -56.424      -32.801       -4.811       15.527       16.185       12.704      241.096      261.952      161.381        0.247        0.033       65.266        9.489        0.021      341.322       15.954      864.736
08/27/2014  02:33:00      -54.340      -36.119       -6.110       17.647       16.012       11.629      311.407      256.375      135.245        0.250        0.035       65.249        4.211        0.004      341.317       15.945      864.754
08/27/2014  02:34:00      -50.389      -23.117        5.092       26.602       13.763       10.708      707.680      189.409      114.665        0.206        0.051       55.439       10.667        0.037      341.255       15.841      864.763
08/27/2014  02:35:00      -81.249      -33.826       -8.650       12.377       10.022        9.102      153.201      100.440       82.851        0.408        0.017       88.009        6.392        0.005      341.199       15.746      864.762
08/27/2014  02:36:00      -76.794      -44.710       -6.873       13.215       12.200        9.613      174.628      148.851       92.408        0.418        0.021       88.861        3.753        0.002      341.206       15.757      864.765
08/27/2014  02:37:00      -60.509      -26.183       -3.327       13.791       20.944       13.001      190.191      438.652      169.037        0.258        0.040       65.931        8.417        0.016      341.258       15.846      864.772
08/27/2014  02:38:00      -28.201      -24.623        6.122       20.736       21.888       16.027      429.998      479.099      256.864        0.130        0.058       37.438       13.451        0.129      341.184       15.720      864.783
08/27/2014  02:39:00      -65.301      -25.052       -0.176       36.021       18.804       12.240     1297.504      353.586      149.823        0.335        0.090       69.942       14.426        0.043      341.148       15.659      864.786
08/27/2014  02:40:00      -95.186      -11.643       -7.183       16.040       12.886       12.190      257.289      166.039      148.602        0.491        0.029       95.896        4.765        0.002      341.076       15.539      864.793
08/27/2014  02:41:00      -67.781      -23.587       -6.854       21.968       15.431       10.875      482.600      238.102      118.259        0.302        0.042       71.767        9.306        0.017      341.065       15.519      864.800
08/27/2014  02:42:00      -63.845      -30.281       -3.476       16.423       11.693       13.496      269.719      136.724      182.144        0.280        0.029       70.662       10.245        0.021      341.277       15.877      864.809
08/27/2014  02:43:00      -50.374      -23.773       -2.985       13.994       15.908        8.701      195.838      253.054       75.706        0.182        0.026       55.702        6.761        0.015      341.265       15.856      864.822
08/27/2014  02:44:00      -56.874      -22.121       -4.979       14.133       10.996       10.603      199.729      120.905      112.430        0.209        0.022       61.024        6.592        0.012      341.181       15.716      864.831
08/27/2014  02:45:00      -73.694      -15.346      -10.370       10.395        9.808        8.008      108.051       96.195       64.123        0.302        0.013       75.274        5.141        0.005      341.146       15.654      864.836
08/27/2014  02:46:00      -69.031      -11.165       -4.762       16.007       11.601        8.228      256.209      134.592       67.696        0.269        0.023       69.928        6.888        0.010      341.127       15.625      864.834
08/27/2014  02:47:00      -48.811      -23.324       -6.949        9.247        9.902        6.536       85.506       98.043       42.714        0.160        0.011       54.098        1.411        0.001      341.164       15.686      864.835
08/27/2014  02:48:00      -60.727      -39.140        2.472       23.494       18.983       13.762      551.956      360.355      189.405        0.316        0.055       72.247       13.178        0.033      341.106       15.588      864.842
08/27/2014  02:49:00      -61.219      -28.784        3.128       27.960       16.494       13.502      781.784      272.057      182.302        0.291        0.062       67.648       13.150        0.038      341.024       15.449      864.862
08/27/2014  02:50:00      -74.163      -27.553       -0.356       23.849       21.759       10.494      568.794      473.451      110.114        0.371        0.058       79.115        9.961        0.016      341.005       15.416      864.871
08/27/2014  02:51:00      -47.263       -5.427       -0.749       30.608       17.784       14.239      936.874      316.283      202.752        0.186        0.073       47.573       12.595        0.070      340.877       15.202      864.876
08/27/2014  02:52:00      -52.349      -10.486        3.085       21.837       18.185       13.385      476.843      330.696      179.161        0.192        0.049       53.388       12.048        0.051      340.858       15.169      864.873
08/27/2014  02:53:00      -51.076      -10.611        0.480       18.695       17.033       10.466      349.520      290.109      109.528        0.174        0.037       52.166        9.100        0.030      340.941       15.309      864.879
08/27/2014  02:54:00      -15.656      -18.282        8.709       21.242       18.095       14.205      451.231      327.427      201.786        0.082        0.049       24.070       12.524        0.271      341.017       15.436      864.895
08/27/2014  02:55:00      -55.026      -37.542        2.691       25.387       14.642       15.545      644.493      214.386      241.635        0.277        0.055       66.613       15.965        0.057      340.932       15.293      864.911
08/27/2014  02:56:00      -68.275      -29.634       -7.750       22.189       23.090       10.871      492.368      533.130      118.189        0.337        0.057       74.429        8.866        0.014      340.988       15.389      864.917
08/27/2014  02:57:00      -65.439      -32.811       -2.140       18.188       19.964       11.484      330.789      398.548      131.879        0.311        0.043       73.204        7.530        0.011      341.115       15.603      864.924
08/27/2014  02:58:00      -76.206      -31.362       -5.838       14.412       13.711       13.045      207.720      187.989      170.164        0.370        0.028       82.407        7.442        0.008      341.102       15.581      864.931
08/27/2014  02:59:00      -79.815      -37.333       -6.478       27.764       25.410       12.485      770.821      645.674      155.863        0.469        0.079       88.114       10.238        0.013      341.088       15.558      864.944
08/27/2014  03:00:00      -72.517      -62.376       -2.018       29.868       25.602       16.525      892.070      655.440      273.065        0.549        0.091       95.652       12.024        0.016      341.133       15.634      864.967
08/27/2014  03:01:00      -70.271      -83.903       -0.074       34.267       30.750       21.227     1174.255      945.582      450.588        0.727        0.129      109.443       16.789        0.024      341.113       15.600      864.984
08/27/2014  03:02:00      -91.050     -114.452        1.615       43.695       35.413       20.794     1909.283     1254.086      432.408        1.249        0.180      146.252       26.373        0.033      341.093       15.567      864.987
08/27/2014  03:03:00      -64.326     -139.549       -8.896       31.259       28.511       22.150      977.149      812.856      490.640        1.299        0.114      153.661       15.609        0.010      341.142       15.649      864.980
08/27/2014  03:04:00      -65.744      -89.665       -5.686       19.286       25.459       14.972      371.965      648.176      224.155        0.682        0.062      111.185       13.145        0.014      341.134       15.634      864.974
08/27/2014  03:05:00      -22.958      -32.392        3.180       34.359       35.560       22.277     1180.539     1264.547      496.246        0.226        0.147       39.703       11.894        0.090      341.126       15.622      864.968
08/27/2014  03:06:00      -17.159      -44.408        1.887       22.600       30.711       15.710      510.766      943.152      246.809        0.199        0.085       47.608       13.092        0.076      341.157       15.677      864.977
08/27/2014  03:07:00      -51.591      -39.659       -0.077       26.525       36.075       15.648      703.559     1301.423      244.869        0.324        0.112       65.073       15.351        0.056      341.185       15.722      864.970
08/27/2014  03:08:00      -59.980      -37.125        4.165       43.429       27.304       17.122     1886.081      745.532      293.147        0.396        0.146       70.539       21.068        0.089      341.054       15.501      864.957
08/27/2014  03:09:00      -55.439      -38.955       -3.366       19.888       32.250       10.467      395.546     1040.083      109.565        0.307        0.077       67.757        7.507        0.012      341.084       15.552      864.956
08/27/2014  03:10:00      -65.982      -56.701       -3.679       39.136       24.266       17.081     1531.632      588.820      291.754        0.500        0.121       86.998       23.028        0.070      341.077       15.539      864.959
08/27/2014  03:11:00      -34.250      -22.113        2.391       27.989       17.457       16.882      783.373      304.735      284.993        0.152        0.069       40.768       17.408        0.182      340.992       15.395      864.971
08/27/2014  03:12:00      -60.316      -27.430        3.392       22.814       18.198       13.963      520.461      331.155      194.969        0.272        0.052       66.260       12.647        0.036      340.924       15.280      864.982
08/27/2014  03:13:00      -53.157      -25.526        2.261       18.305       14.870       13.898      335.073      221.120      193.167        0.212        0.037       58.969        9.198        0.024      340.933       15.296      864.979
08/27/2014  03:14:00      -65.277      -26.303        2.862       32.699       16.311       15.874     1069.218      266.050      251.973        0.327        0.079       70.377       16.328        0.054      340.869       15.187      864.975
08/27/2014  03:15:00      -82.697      -20.123        3.299       34.260       24.379       12.382     1173.747      594.325      153.304        0.459        0.096       85.110       12.107        0.020      340.853       15.159      864.977
08/27/2014  03:16:00      -72.102       -8.880       -5.578       17.463       14.230       10.106      304.956      202.501      102.130        0.296        0.030       72.647        6.898        0.009      340.811       15.090      864.981
08/27/2014  03:17:00      -57.465      -24.492       -6.791       15.511       14.096       10.202      240.590      198.699      104.076        0.225        0.027       62.467        6.216        0.010      340.884       15.214      864.993
08/27/2014  03:18:00      -67.228      -30.845       -4.319       13.142       10.575        9.218      172.702      111.823       84.965        0.293        0.018       73.966        6.290        0.007      340.920       15.274      864.995
08/27/2014  03:19:00      -74.153      -22.154       -2.803       29.084       17.574       13.280      845.883      308.833      176.366        0.366        0.067       77.392       13.564        0.031      340.863       15.177      864.991
08/27/2014  03:20:00      -44.076      -15.492       -5.027       32.221       10.970       12.316     1038.163      120.340      151.672        0.176        0.066       46.719       14.303        0.094      340.827       15.115      864.983
08/27/2014  03:21:00      -58.395      -14.548       -9.409       17.924       10.915        8.816      321.274      119.139       77.730        0.211        0.026       60.180        8.452        0.020      340.890       15.224      864.985
08/27/2014  03:22:00      -45.124       -8.528       -1.688       14.805       12.317       12.032      219.181      151.716      144.781        0.131        0.026       45.923       10.047        0.048      340.900       15.241      864.985
08/27/2014  03:23:00      -38.454       -4.943       -2.330       12.199        7.317        6.252      148.816       53.540       39.089        0.087        0.012       38.770        6.161        0.025      340.891       15.225      864.981
08/27/2014  03:24:00       -9.359      -24.010        1.161       19.504       11.989        8.774      380.390      143.724       76.990        0.063        0.030       25.769        7.101        0.076      340.844       15.144      864.981
08/27/2014  03:25:00      -11.012      -38.264       -1.811       15.556       11.552        9.593      241.999      133.454       92.021        0.103        0.023       39.817       11.108        0.078      340.838       15.135      864.975
08/27/2014  03:26:00      -20.708      -13.075       -2.497       14.814        9.785        9.488      219.467       95.737       90.019        0.051        0.020       24.490        5.982        0.060      340.783       15.040      864.985
08/27/2014  03:27:00      -51.624       -8.328       -1.563       14.131       12.079        8.433      199.695      145.905       71.118        0.158        0.021       52.291        9.081        0.030      340.728       14.949      864.984
08/27/2014  03:28:00      -84.370      -10.320       -7.781       38.731       15.253       10.845     1500.119      232.663      117.607        0.457        0.093       84.998       15.411        0.033      340.695       14.893      864.984
08/27/2014  03:29:00      -96.829      -15.654       -4.583       26.730       20.587       14.804      714.509      423.812      219.152        0.550        0.068       98.086       12.151        0.015      340.521       14.598      864.980
08/27/2014  03:30:00      -91.330       -8.016       -1.958       30.429       17.362       17.409      925.935      301.430      303.082        0.497        0.077       91.682       13.982        0.023      340.419       14.427      864.985
08/27/2014  03:31:00      -69.757      -25.560        2.569       18.741       14.748       11.571      351.226      217.516      133.884        0.311        0.035       74.293       10.507        0.020      340.564       14.671      864.991
08/27/2014  03:32:00      -84.578      -41.847       -0.644       17.652       13.724       11.646      311.578      188.346      135.635        0.477        0.032       94.365       10.608        0.013      340.583       14.704      865.005
08/27/2014  03:33:00     -103.121      -27.612       -1.078       16.965       18.907       13.916      287.821      357.487      193.657        0.612        0.042      106.754        9.370        0.008      340.450       14.478      865.006
08/27/2014  03:34:00      -78.785      -18.888       -0.347       19.436       24.031       14.849      377.755      577.493      220.491        0.387        0.059       81.017       11.690        0.021      340.418       14.424      865.010
08/27/2014  03:35:00      -74.746      -32.296       -3.082       26.751       16.513        9.774      715.638      272.674       95.538        0.386        0.054       81.425        9.186        0.013      340.602       14.735      865.002
08/27/2014  03:36:00     -111.252      -39.858       -5.720       22.109       15.555       10.452      488.787      241.943      109.244        0.742        0.042      118.176        8.880        0.006      340.647       14.813      865.005
08/27/2014  03:37:00     -112.722      -24.626       -0.151       27.900       21.905       15.465      778.411      479.819      239.164        0.740        0.075      115.381       13.376        0.013      340.500       14.563      865.011
08/27/2014  03:38:00     -105.247      -16.098        0.549       29.373       22.409       16.494      862.748      502.161      272.050        0.649        0.082      106.470       13.874        0.017      340.327       14.269      865.013
08/27/2014  03:39:00      -82.465      -10.388        2.096       44.572       22.632       19.687     1986.707      512.224      387.579        0.490        0.144       83.117       23.093        0.077      340.259       14.156      865.014
08/27/2014  03:40:00      -82.394      -10.231        3.755       37.883       29.849       22.170     1435.084      890.945      491.514        0.486        0.141       83.027       19.216        0.054      340.242       14.127      865.011
08/27/2014  03:41:00     -103.652       -1.358        0.282       29.709       32.482       21.574      882.653     1055.110      465.436        0.657        0.120      103.661       16.694        0.026      340.202       14.059      865.006
08/27/2014  03:42:00      -93.483      -10.648      -13.048       39.906       28.979       15.664     1592.525      839.767      245.366        0.585        0.134       94.088       16.062        0.029      340.300       14.225      865.009
08/27/2014  03:43:00      -83.293      -42.966       -7.357       38.390       24.228       15.792     1473.802      586.979      249.399        0.557        0.116       93.722       12.186        0.017      340.284       14.198      865.000
08/27/2014  03:44:00     -122.929      -50.411      -10.923       23.750       26.316       15.323      564.051      692.530      234.791        0.963        0.075      132.864       15.310        0.013      340.285       14.201      864.996
08/27/2014  03:45:00      -76.605      -34.008       -1.837       51.083       28.262       20.213     2609.517      798.755      408.567        0.542        0.191       83.815       28.070        0.112      340.198       14.053      864.987
08/27/2014  03:46:00      -98.508      -30.497       -6.174       28.935       20.876       14.800      837.242      435.812      219.050        0.608        0.075      103.121       12.116        0.014      340.191       14.040      864.991
08/27/2014  03:47:00      -90.862      -19.896       -5.339       44.013       24.849       18.346     1937.103      617.469      336.559        0.579        0.145       93.015       18.837        0.041      340.152       13.973      864.988
08/27/2014  03:48:00      -79.772       -6.390       -3.590       46.144       30.026       23.005     2129.284      901.554      529.234        0.499        0.178       80.028       25.356        0.100      340.227       14.102      864.974
08/27/2014  03:49:00      -92.580        9.842       -4.870       34.153       27.684       18.409     1166.404      766.396      338.902        0.548        0.114       93.102       13.497        0.021      340.412       14.415      864.965
08/27/2014  03:50:00      -77.706      -10.932       -3.131       31.152       33.249       19.196      970.448     1105.472      368.493        0.431        0.122       78.471       14.945        0.036      340.515       14.587      864.973
08/27/2014  03:51:00      -48.748      -14.496       -0.399       43.196       28.989       25.195     1865.860      840.337      634.797        0.296        0.167       50.858       24.824        0.238      340.500       14.563      864.970
08/27/2014  03:52:00      -30.357      -24.323       -6.910       24.722       15.178       12.480      611.174      230.382      155.751        0.128        0.050       38.900        6.479        0.028      340.551       14.651      864.972
08/27/2014  03:53:00      -24.797      -45.744       -2.694       46.652       19.906       15.403     2176.448      396.268      237.264        0.276        0.140       52.032       10.373        0.040      340.459       14.494      864.984
08/27/2014  03:54:00      -77.705      -53.731       -5.218       28.682       23.623       16.152      822.680      558.057      260.896        0.530        0.082       94.473       13.919        0.022      340.359       14.325      865.007
08/27/2014  03:55:00      -36.673      -37.702        8.837       36.541       25.134       20.281     1335.226      631.704      411.325        0.261        0.119       52.596       17.580        0.112      340.283       14.197      865.016
08/27/2014  03:56:00      -34.423      -46.489        8.158       29.349       21.786       14.097      861.393      474.627      198.715        0.247        0.077       57.846       15.642        0.073      340.533       14.621      865.019
08/27/2014  03:57:00      -20.543      -52.393       -4.667       23.868       23.139       15.148      569.704      535.424      229.464        0.226        0.067       56.276        8.303        0.022      340.734       14.958      865.019
08/27/2014  03:58:00      -36.249      -28.343        4.605       27.565       10.999       15.539      759.823      120.981      241.446        0.163        0.056       46.014       15.094        0.108      340.652       14.821      865.025
08/27/2014  03:59:00      -58.272      -22.388       -5.699       20.480       12.906       12.597      419.438      166.571      158.684        0.234        0.037       62.425        7.941        0.016      340.756       14.997      865.022
08/27/2014  04:00:00      -32.526      -33.291        8.180       33.917       24.055       13.633     1150.396      578.666      185.859        0.207        0.096       46.543       12.567        0.073      340.689       14.884      865.013
08/27/2014  04:01:00      -81.705      -37.337        3.766       41.186       32.808       15.682     1696.301     1076.333      245.917        0.555        0.151       89.832       17.725        0.039      340.571       14.683      865.010
08/27/2014  04:02:00     -101.009      -68.473       -3.549       21.276       22.776       13.661      452.667      518.743      186.615        0.803        0.058      122.030       10.463        0.007      340.673       14.857      865.008
08/27/2014  04:03:00      -85.957      -60.311        3.474       37.014       28.918       22.629     1370.056      836.265      512.068        0.688        0.136      105.005       20.959        0.040      340.671       14.852      865.003
08/27/2014  04:04:00      -67.704      -38.360        3.070       44.228       26.341       18.658     1956.097      693.852      348.136        0.453        0.150       77.816       20.989        0.073      340.629       14.781      864.994
08/27/2014  04:05:00      -73.587      -36.858        5.158       53.357       32.605       22.042     2847.019     1063.084      485.859        0.560        0.220       82.302       20.759        0.064      340.698       14.899      865.003
08/27/2014  04:06:00      -89.391      -31.945        5.304       38.707       27.024       18.025     1498.222      730.270      324.888        0.580        0.128       94.928       20.873        0.048      340.705       14.911      865.004
08/27/2014  04:07:00      -94.207      -34.730       -2.261       38.607       25.005       16.577     1490.522      625.269      274.798        0.624        0.120      100.405       16.279        0.026      340.570       14.683      864.999
08/27/2014  04:08:00      -95.269      -12.447        0.173       36.822       25.954       21.356     1355.895      673.633      456.078        0.586        0.124       96.078       23.192        0.058      340.345       14.300      865.008
08/27/2014  04:09:00      -89.953      -20.832        3.053       45.765       31.084       22.257     2094.397      966.227      495.372        0.604        0.178       92.334       22.288        0.058      340.281       14.194      865.022
08/27/2014  04:10:00      -97.022      -25.605       -0.686       45.294       30.281       17.953     2051.574      916.954      322.299        0.668        0.165      100.344       18.783        0.035      340.270       14.174      865.036
08/27/2014  04:11:00     -103.077      -27.265       -1.499       25.790       32.600       17.485      665.125     1062.743      305.731        0.670        0.102      106.622       12.694        0.014      340.339       14.292      865.042
08/27/2014  04:12:00     -107.278      -42.148      -15.619       15.685       13.844       13.530      246.005      191.651      183.051        0.707        0.031      115.260        9.429        0.007      340.375       14.351      865.047
08/27/2014  04:13:00     -111.447      -58.361      -18.216       23.142       17.199       11.558      535.566      295.800      133.592        0.856        0.048      125.803        8.444        0.005      340.309       14.239      865.066
08/27/2014  04:14:00      -38.040      -35.789       -4.552       49.753       29.315       21.927     2475.315      859.360      480.804        0.328        0.191       52.229       22.048        0.178      340.282       14.195      865.082
08/27/2014  04:15:00      -70.588      -46.263        3.975       38.750       29.157       20.728     1501.585      850.126      429.661        0.496        0.139       84.398       21.368        0.064      340.131       13.940      865.094
08/27/2014  04:16:00      -17.827      -16.053        5.074       20.302       20.273       20.607      412.169      410.998      424.661        0.092        0.062       23.990       14.234        0.352      340.188       14.036      865.094
08/27/2014  04:17:00      -59.766       -7.508       -1.443       40.773       28.253       19.964     1662.462      798.209      398.570        0.324        0.143       60.236       18.311        0.092      340.448       14.476      865.086
08/27/2014  04:18:00     -105.996      -12.472       -9.956       42.503       36.903       23.136     1806.528     1361.800      535.285        0.760        0.185      106.728       19.778        0.034      340.364       14.333      865.089
08/27/2014  04:19:00      -86.481      -12.415       -5.773       27.961       25.525       16.361      781.792      651.515      267.695        0.468        0.085       87.367        7.230        0.007      340.178       14.020      865.087
08/27/2014  04:20:00      -63.724       -0.622       -8.725       32.089       20.494       16.724     1029.673      420.023      279.678        0.293        0.086       63.727       16.150        0.064      340.232       14.110      865.081
08/27/2014  04:21:00      -87.382       24.837        2.121       56.855       29.965       23.516     3232.513      897.890      553.001        0.647        0.234       90.844       18.286        0.041      340.443       14.467      865.087
08/27/2014  04:22:00     -130.861       23.803      -12.669       37.086       32.076       19.636     1375.354     1028.840      385.553        1.032        0.139      133.008       13.480        0.010      340.551       14.650      865.099
08/27/2014  04:23:00      -80.597       19.580       -8.307       45.838       27.145       26.689     2101.160      736.852      712.292        0.525        0.178       82.941       15.444        0.035      340.580       14.697      865.103
08/27/2014  04:24:00     -123.179       31.566       -5.024       40.243       26.709       19.826     1619.478      713.394      393.069        0.946        0.136      127.159       16.345        0.017      340.710       14.919      865.103
08/27/2014  04:25:00      -70.080       -8.192       -3.901       37.994       23.587       20.363     1443.540      556.357      414.656        0.370        0.121       70.557       19.415        0.076      340.545       14.638      865.101
08/27/2014  04:26:00      -97.973      -11.968       -6.915       30.523       22.842       17.659      931.662      521.766      311.846        0.578        0.088       98.701       12.140        0.015      340.467       14.508      865.103
08/27/2014  04:27:00     -100.146      -13.150       -7.626       24.610       19.926       13.057      605.629      397.044      170.473        0.572        0.059      101.005        6.052        0.004      340.413       14.416      865.112
08/27/2014  04:28:00      -92.977      -29.116      -11.367       26.826       25.013       14.926      719.643      625.631      222.792        0.559        0.078       97.430       11.995        0.015      340.418       14.424      865.109
08/27/2014  04:29:00      -86.642      -47.426       -3.575       22.512       20.828       15.204      506.771      433.803      231.167        0.547        0.059       98.773        4.984        0.003      340.380       14.361      865.098
08/27/2014  04:30:00      -98.786      -51.428      -10.639       33.201       22.608       13.814     1102.289      511.123      190.822        0.716        0.090      111.371        8.823        0.006      340.280       14.193      865.094
08/27/2014  04:31:00      -85.642      -58.005       -6.561       32.594       36.387       16.249     1062.388     1324.013      264.025        0.670        0.133      103.437       12.409        0.014      340.298       14.221      865.104
08/27/2014  04:32:00       -5.366      -27.496       18.846       29.266       24.879       19.303      856.492      618.949      372.588        0.149        0.092       28.014       19.145        0.467      340.357       14.320      865.099
08/27/2014  04:33:00        8.612      -21.531        6.880       23.328       14.650        9.902      544.183      214.627       98.047        0.072        0.043       23.189        4.891        0.044      340.429       14.445      865.103
08/27/2014  04:34:00      -24.829      -41.500       -5.000       43.145       25.319       17.364     1861.516      641.041      301.524        0.258        0.140       48.361       12.136        0.063      340.375       14.351      865.116
08/27/2014  04:35:00      -15.515      -26.625        6.147       56.022       29.381       20.013     3138.485      863.263      400.525        0.269        0.220       30.816       26.314        0.729      340.300       14.226      865.138
08/27/2014  04:36:00      -58.526      -38.002        5.957       27.542       24.404       14.862      758.575      595.556      220.868        0.324        0.079       69.781       12.964        0.035      340.177       14.017      865.155
08/27/2014  04:37:00      -44.371      -23.899       -6.014       27.403       21.343       11.445      750.899      455.513      130.997        0.196        0.067       50.398       13.360        0.070      340.169       14.003      865.159
08/27/2014  04:38:00      -89.077      -16.079       -9.227       31.961       24.150       17.675     1021.500      583.231      312.398        0.510        0.096       90.516       15.570        0.030      340.157       13.986      865.169
08/27/2014  04:39:00     -101.870      -24.644       -8.975       31.621       23.448       14.869      999.874      549.795      221.092        0.642        0.089      104.809       11.465        0.012      340.231       14.109      865.184
08/27/2014  04:40:00     -107.770      -16.403       -6.490       27.106       22.729       16.070      734.750      516.618      258.253        0.672        0.075      109.011       15.511        0.020      340.264       14.163      865.193
08/27/2014  04:41:00      -63.238      -20.713       -7.255       28.058       19.326       14.764      787.277      373.506      217.970        0.293        0.069       66.544       15.788        0.056      340.206       14.066      865.193
08/27/2014  04:42:00      -68.680      -41.792      -15.448       18.493       19.242       10.830      341.984      370.237      117.296        0.377        0.041       80.396        8.455        0.011      340.127       13.932      865.196
08/27/2014  04:43:00     -111.130      -61.626      -16.190       18.028       21.519       12.316      325.024      463.065      151.686        0.867        0.047      127.073       10.270        0.007      340.167       14.000      865.207
08/27/2014  04:44:00      -60.185      -35.676       -0.187       34.068       25.176       17.741     1160.633      633.841      314.747        0.350        0.105       69.965       21.356        0.093      340.169       14.004      865.217
08/27/2014  04:45:00      -44.010      -32.299       -6.950       25.716       22.447       14.925      661.294      503.858      222.760        0.221        0.069       54.590       15.495        0.081      340.104       13.892      865.218
08/27/2014  04:46:00      -49.456      -19.494       -4.070       23.235       17.256       10.895      539.867      297.786      118.700        0.190        0.048       53.159       11.459        0.046      340.146       13.964      865.209
08/27/2014  04:47:00      -41.815        0.199      -12.788       25.077       28.217       11.796      628.873      796.204      139.137        0.174        0.078       41.816        9.220        0.049      340.082       13.857      865.212
08/27/2014  04:48:00      -49.733      -20.438       -6.921       19.995       14.660       14.508      399.802      214.916      210.488        0.188        0.041       53.768        9.993        0.035      340.145       13.962      865.217
08/27/2014  04:49:00      -62.829      -51.024      -13.743       25.261       25.460       19.369      638.093      648.223      375.147        0.420        0.083       80.938        7.366        0.008      340.096       13.881      865.227
08/27/2014  04:50:00      -75.512      -62.226      -10.928       18.752       21.333       13.041      351.654      455.092      170.058        0.533        0.049       97.847        9.092        0.009      340.019       13.751      865.231
08/27/2014  04:51:00      -72.426      -28.292       -7.856       17.096       17.878       12.804      292.266      319.635      163.937        0.344        0.039       77.756       10.484        0.018      340.075       13.846      865.236
08/27/2014  04:52:00      -64.689      -17.859       -6.365       16.376       15.722        8.872      268.168      247.179       78.708        0.257        0.030       67.109        5.342        0.006      340.196       14.048      865.246
08/27/2014  04:53:00      -73.684      -32.227      -11.650       13.213       11.492        9.587      174.580      132.067       91.902        0.350        0.020       80.423        6.467        0.006      340.309       14.239      865.250
08/27/2014  04:54:00      -86.042      -26.402       -9.441       10.708       12.154        6.826      114.666      147.713       46.598        0.425        0.015       90.001        2.279        0.001      340.278       14.187      865.260
08/27/2014  04:55:00      -57.512      -27.258       -2.400       22.644       18.118        9.418      512.743      328.253       88.706        0.249        0.046       63.645        3.616        0.003      340.261       14.160      865.280
08/27/2014  04:56:00      -40.706      -24.058        7.298       28.852       23.645       13.387      832.411      559.091      179.210        0.193        0.079       47.284       12.047        0.065      340.155       13.980      865.299
08/27/2014  04:57:00      -87.470      -47.883       -2.657       15.602       13.407       10.795      243.431      179.744      116.532        0.525        0.027       99.719        5.424        0.003      340.233       14.111      865.315
08/27/2014  04:58:00      -67.391      -39.349       -0.451       19.294       14.647       12.178      372.272      214.545      148.298        0.341        0.037       78.038        9.641        0.015      340.268       14.171      865.318
08/27/2014  04:59:00      -12.840      -19.488        1.918       17.138       12.192        9.625      293.709      148.644       92.636        0.054        0.027       23.338        7.172        0.094      340.246       14.134      865.314
08/27/2014  05:00:00       -2.112      -38.297       -2.164        9.604       11.275        7.030       92.239      127.129       49.420        0.087        0.013       38.356        4.366        0.013      340.626       14.776      865.314
08/27/2014  05:01:00      -56.481      -42.249        2.379       43.789       21.112       14.690     1917.463      445.699      215.802        0.378        0.129       70.534       13.644        0.037      340.559       14.664      865.322
08/27/2014  05:02:00     -132.878      -57.400       -6.934       13.656       19.462        8.987      186.493      378.754       80.766        1.082        0.032      144.746        8.089        0.003      340.278       14.188      865.340
08/27/2014  05:03:00      -76.389      -23.897       -7.486       44.416       19.707       14.264     1972.782      388.374      203.452        0.451        0.128       80.039       18.956        0.056      340.181       14.024      865.348
08/27/2014  05:04:00        6.027       -5.283       -0.249       19.219        7.118        6.920      369.365       50.662       47.886        0.027        0.023        8.014        6.169        0.592      340.365       14.337      865.338
08/27/2014  05:05:00        3.332       -1.145       -2.411       20.035       14.113        6.925      401.419      199.183       47.951        0.033        0.032        3.523        8.161        5.365      341.061       15.512      865.331
08/27/2014  05:06:00     -103.219      -29.301      -12.409       30.232       16.936       12.564      913.957      286.815      157.865        0.651        0.068      107.297       10.462        0.010      340.350       14.309      865.340
08/27/2014  05:07:00     -140.815       -4.691      -18.037       24.617       20.120       15.912      605.991      404.819      253.179        1.072        0.063      140.893        7.937        0.003      340.101       13.888      865.351
08/27/2014  05:08:00      -94.564       -5.890      -15.984       26.432       21.203       15.124      698.661      449.573      228.735        0.530        0.069       94.747       14.356        0.023      340.152       13.974      865.367
08/27/2014  05:09:00      -57.633      -22.930      -12.134       14.070       12.712        9.595      197.964      161.600       92.065        0.222        0.023       62.027        6.755        0.012      340.233       14.111      865.373
08/27/2014  05:10:00     -112.930      -57.680      -12.116       18.829       32.489       12.281      354.540     1055.558      150.825        0.889        0.078      126.808        7.273        0.003      340.107       13.900      865.370
08/27/2014  05:11:00     -143.061      -60.749      -13.575       16.361       22.337       15.647      267.679      498.957      244.818        1.268        0.051      155.425        9.619        0.004      340.077       13.848      865.382
08/27/2014  05:12:00      -93.609      -29.825        0.036       35.702       25.958       16.200     1274.662      673.833      262.435        0.593        0.111       98.246       14.854        0.023      340.091       13.874      865.394
08/27/2014  05:13:00      -53.952      -15.902       -3.297       29.368       20.593       11.530      862.473      424.082      132.932        0.230        0.071       56.247        9.601        0.029      340.019       13.750      865.411
08/27/2014  05:14:00      -74.286      -12.671        0.350       15.786       13.575       11.687      249.193      184.287      136.588        0.312        0.029       75.359        6.214        0.007      340.141       13.955      865.430
08/27/2014  05:15:00      -77.594      -38.328       -3.371       19.324       17.022       12.206      373.415      289.745      148.981        0.416        0.041       86.544        8.634        0.010      340.185       14.033      865.450
08/27/2014  05:16:00      -56.441      -16.358       -1.886        9.729       16.042        9.714       94.657      257.335       94.354        0.195        0.022       58.764        9.856        0.028      340.173       14.011      865.455
08/27/2014  05:17:00      -25.189      -20.871       -0.319       15.737       11.501        6.910      247.640      132.271       47.752        0.075        0.021       32.713        4.376        0.018      340.304       14.233      865.457
08/27/2014  05:18:00      -53.693      -31.717       -3.119       21.913        8.261       12.399      480.188       68.239      153.727        0.230        0.035       62.361       10.876        0.030      340.312       14.245      865.460
08/27/2014  05:19:00      -93.468      -30.265       -5.401       13.821       14.667        9.078      191.026      215.118       82.409        0.508        0.024       98.246        6.106        0.004      340.275       14.182      865.471
08/27/2014  05:20:00      -84.652      -33.805       -6.012       14.269       14.789        9.627      203.602      218.727       92.685        0.443        0.026       91.152        6.774        0.006      340.248       14.136      865.480
08/27/2014  05:21:00      -71.586      -22.154       -8.306       30.150       18.730       10.659      909.021      350.831      113.624        0.353        0.069       74.936       12.743        0.029      340.129       13.936      865.484
08/27/2014  05:22:00      -89.112       -9.861       -4.244       32.204       18.705       17.315     1037.123      349.874      299.820        0.487        0.084       89.656       16.036        0.032      339.997       13.715      865.475
08/27/2014  05:23:00     -122.508       -4.140       -8.990       21.158       15.683       15.187      447.673      245.966      230.635        0.802        0.046      122.578       12.773        0.011      339.876       13.509      865.465
08/27/2014  05:24:00      -63.915       -2.481       -6.180       32.978       23.419       17.679     1087.551      548.427      312.551        0.304        0.097       63.963       15.183        0.056      339.839       13.448      865.457
08/27/2014  05:25:00     -100.397      -24.547       -5.424       34.702       25.536       15.736     1204.228      652.083      247.619        0.641        0.105      103.355       14.750        0.020      339.881       13.517      865.447
08/27/2014  05:26:00     -111.247      -34.301      -11.328       29.078       28.178       16.272      845.551      794.012      264.771        0.779        0.095      116.415       11.098        0.009      339.890       13.534      865.449
08/27/2014  05:27:00      -53.311       -2.547        4.938       36.703       31.883       21.601     1347.092     1016.537      466.586        0.285        0.142       53.372       17.896        0.112      339.842       13.452      865.457
08/27/2014  05:28:00      -41.117      -11.454        5.085       42.439       25.748       20.339     1801.042      662.945      413.661        0.236        0.144       42.682       22.487        0.278      339.915       13.577      865.457
08/27/2014  05:29:00      -73.545      -47.560       -0.191       31.091       28.131       17.194      966.656      791.364      295.643        0.486        0.103       87.583       15.402        0.031      339.897       13.545      865.458
08/27/2014  05:30:00      -79.065      -31.037       -5.049       26.081       18.818       14.765      680.195      354.106      218.018        0.425        0.063       84.939       11.542        0.018      339.909       13.565      865.464
08/27/2014  05:31:00      -91.045      -32.234       -5.947       21.500       20.096       15.283      462.244      403.857      233.564        0.523        0.055       96.583       11.355        0.014      339.956       13.645      865.478
08/27/2014  05:32:00      -80.558      -18.365       -2.299       26.116       22.743       18.294      682.048      517.237      334.658        0.418        0.077       82.625       14.964        0.033      339.941       13.619      865.511
08/27/2014  05:33:00      -34.111      -31.499        0.808       31.705       22.747       17.455     1005.216      517.441      304.677        0.199        0.091       46.430       17.095        0.136      339.981       13.687      865.537
08/27/2014  05:34:00      -39.434      -11.415       -6.147       28.617       18.386       13.920      818.932      338.061      193.759        0.154        0.068       41.053       14.739        0.129      339.999       13.718      865.555
08/27/2014  05:35:00      -38.709      -11.599       -5.894       31.643       16.190       15.655     1001.287      262.118      245.071        0.159        0.075       40.410        9.213        0.052      339.988       13.698      865.579
08/27/2014  05:36:00      -11.297      -15.348       -0.635       14.372       17.521       12.873      206.541      306.982      165.725        0.052        0.034       19.057       10.332        0.294      339.913       13.573      865.594
08/27/2014  05:37:00      -19.632      -16.050       -5.786       24.594       20.042       17.485      604.876      401.669      305.714        0.099        0.066       25.358        7.900        0.097      339.914       13.572      865.622
08/27/2014  05:38:00      -37.159      -30.712      -12.965       23.773       22.129       15.561      565.177      489.686      242.150        0.189        0.065       48.208        7.008        0.021      339.922       13.588      865.643
08/27/2014  05:39:00      -72.545      -40.658      -24.264       21.244       23.165       15.288      451.300      536.637      233.736        0.436        0.061       83.162       13.522        0.026      339.871       13.502      865.646
08/27/2014  05:40:00      -79.132      -55.355      -19.410       28.712       25.591       17.881      824.399      654.887      319.728        0.575        0.090       96.572       11.778        0.015      339.840       13.449      865.657
08/27/2014  05:41:00      -43.782      -33.403       -6.993       38.044       27.231       24.297     1447.379      741.554      590.332        0.293        0.139       55.070       22.169        0.162      339.793       13.370      865.670
08/27/2014  05:42:00      -80.462      -33.769      -13.463       25.994       18.096       14.883      675.705      327.466      221.506        0.451        0.061       87.261       11.950        0.019      339.828       13.429      865.670
08/27/2014  05:43:00      -47.782      -15.012      -10.326       22.444       20.713       14.621      503.722      429.047      213.766        0.188        0.057       50.085       10.324        0.042      339.805       13.391      865.668
08/27/2014  05:44:00      -49.035      -10.739      -17.256       14.221       15.205       12.110      202.238      231.180      146.656        0.170        0.029       50.197        9.252        0.034      339.825       13.425      865.662
08/27/2014  05:45:00      -43.523      -30.659       -2.741       21.083       18.576       15.780      444.513      345.076      249.023        0.194        0.052       53.237       12.491        0.055      339.918       13.580      865.666
08/27/2014  05:46:00      -53.271      -38.871       -1.987       31.768       16.913       14.918     1009.194      286.053      222.545        0.293        0.076       65.945        8.125        0.015      339.892       13.538      865.679
08/27/2014  05:47:00       -2.129      -22.617        2.809       16.814       18.193       19.383      282.699      330.973      375.707        0.076        0.049       22.717       12.236        0.290      339.864       13.490      865.687
08/27/2014  05:48:00      -96.860      -47.629      -14.667       62.057       28.690       13.255     3851.117      823.117      175.691        0.836        0.242      107.937       13.333        0.015      339.943       13.622      865.693
08/27/2014  05:49:00     -102.841      -19.617       -6.360       61.105       47.187       22.640     3733.776     2226.648      512.580        0.874        0.324      104.695       18.943        0.033      339.697       13.208      865.699
08/27/2014  05:50:00       -0.774        0.858       10.299       35.732       14.159       14.573     1276.792      200.476      212.375        0.090        0.084        1.155       12.561      118.225      339.793       13.371      865.710
08/27/2014  05:51:00      -43.422       -8.891       -5.542       43.408       13.848       12.567     1884.289      191.768      157.923        0.211        0.112       44.322       13.924        0.099      340.275       14.184      865.722
08/27/2014  05:52:00     -146.294      -23.443      -23.205       33.980       20.298       17.622     1154.639      412.015      310.551        1.218        0.094      148.161       16.264        0.012      339.765       13.324      865.741
08/27/2014  05:53:00      -41.010      -36.520       -5.781       43.695       10.466       15.959     1909.266      109.532      254.693        0.266        0.114       54.914       23.714        0.186      339.703       13.217      865.748
08/27/2014  05:54:00      -31.374      -42.716       -2.031       27.771       14.698       16.090      771.234      216.034      258.887        0.203        0.062       53.000        9.573        0.033      340.016       13.745      865.759
08/27/2014  05:55:00     -103.559      -39.977      -10.662       21.205       12.010        9.341      449.672      144.244       87.248        0.656        0.034      111.007        4.598        0.002      339.946       13.629      865.776
08/27/2014  05:56:00      -58.679      -46.622       -7.955       27.050       14.675       11.953      731.689      215.367      142.879        0.338        0.054       74.946        9.828        0.017      340.081       13.854      865.779
08/27/2014  05:57:00      -47.051      -30.135        2.323       25.790       13.748       13.738      665.132      189.012      188.734        0.208        0.052       55.874        8.543        0.023      340.106       13.899      865.780
08/27/2014  05:58:00      -80.104      -52.006       -4.226       24.206       18.238       14.267      585.932      332.642      203.555        0.513        0.056       95.505       10.972        0.013      340.037       13.781      865.778
08/27/2014  05:59:00      -92.480      -59.721       -2.763       34.719       18.770       17.661     1205.440      352.324      311.903        0.700        0.093      110.087       16.270        0.022      339.911       13.569      865.784
08/27/2014  06:00:00     -111.044      -20.243       -9.824       24.975       24.256       20.989      623.749      588.363      440.521        0.724        0.083      112.874       15.286        0.018      339.797       13.377      865.797
08/27/2014  06:01:00     -108.578      -42.589       -8.887       16.585       19.047       11.584      275.073      362.805      134.198        0.723        0.039      116.632        8.001        0.005      339.857       13.479      865.803
08/27/2014  06:02:00      -99.519      -49.492        5.909       61.698       33.672       18.998     3806.647     1133.814      360.928        0.884        0.265      111.146       23.979        0.047      339.864       13.489      865.804
08/27/2014  06:03:00      -63.639      -23.957        1.864       25.702       19.845       15.355      660.609      393.806      235.780        0.296        0.065       67.999       13.571        0.040      339.846       13.460      865.804
08/27/2014  06:04:00      -90.208      -31.074        2.516       27.425       27.662       14.918      752.153      765.206      222.541        0.542        0.087       95.410       14.566        0.023      339.923       13.590      865.815
08/27/2014  06:05:00     -117.497      -41.784       -9.543       25.412       23.750       16.097      645.749      564.050      259.108        0.856        0.073      124.706       13.331        0.011      339.859       13.480      865.836
08/27/2014  06:06:00     -105.794      -33.490       -3.841       44.907       23.648       15.651     2016.595      559.219      244.940        0.757        0.141      110.968       19.614        0.031      339.936       13.611      865.868
08/27/2014  06:07:00      -41.080      -46.890        8.768       28.826       20.340       18.650      830.945      413.701      347.829        0.278        0.080       62.339       16.738        0.072      340.053       13.808      865.899
08/27/2014  06:08:00      -49.814      -40.252        8.714       35.637       25.334       17.262     1269.983      641.817      297.964        0.319        0.110       64.044       19.106        0.089      339.972       13.672      865.912
08/27/2014  06:09:00      -76.467      -53.333        1.371       33.070       19.511       17.813     1093.645      380.661      317.287        0.524        0.090       93.229       12.492        0.018      339.970       13.669      865.918
08/27/2014  06:10:00      -52.163      -52.445        2.682       31.301       22.228       14.158      979.773      494.093      200.456        0.358        0.084       73.969       13.467        0.033      340.027       13.764      865.926
08/27/2014  06:11:00      -47.277      -45.091        1.169       28.824       25.990       12.182      830.850      675.492      148.391        0.296        0.083       65.333       12.648        0.037      340.073       13.842      865.933
08/27/2014  06:12:00      -29.805      -37.977       11.985       25.501       17.250       15.320      650.283      297.553      234.692        0.183        0.059       48.277       14.074        0.085      340.031       13.771      865.949
08/27/2014  06:13:00      -45.277      -40.001        0.763       28.064       16.779       13.150      787.567      281.550      172.918        0.245        0.062       60.416        9.078        0.023      340.000       13.720      865.953
08/27/2014  06:14:00      -68.900      -66.433      -12.566       13.323       14.700        9.299      177.503      216.104       86.474        0.490        0.024       95.711        9.532        0.010      340.152       13.975      865.955
08/27/2014  06:15:00      -69.976      -56.200       -0.017       34.664       22.127       14.152     1201.584      489.609      200.273        0.497        0.095       89.750       11.423        0.016      340.090       13.870      865.959
08/27/2014  06:16:00      -84.342      -62.643        2.302       29.687       20.808       17.248      881.334      432.986      297.506        0.633        0.081      105.061       13.022        0.015      340.096       13.879      865.970
08/27/2014  06:17:00      -95.420      -51.805       -3.003       37.562       26.782       16.184     1410.929      717.301      261.938        0.709        0.120      108.576       16.190        0.022      340.020       13.752      865.983
08/27/2014  06:18:00      -29.575      -49.766        8.737       33.988       19.594       18.671     1155.211      383.926      348.613        0.266        0.094       57.891       17.558        0.092      340.048       13.799      865.994
08/27/2014  06:19:00      -54.722      -52.627        5.372       42.356       26.008       21.718     1794.072      676.413      471.679        0.437        0.147       75.922       20.623        0.074      340.057       13.816      866.010
08/27/2014  06:20:00      -71.905      -60.607       -2.901       27.687       19.922       20.384      766.586      396.872      415.509        0.522        0.079       94.040       13.540        0.021      340.111       13.906      866.028
08/27/2014  06:21:00      -55.326      -56.793        5.183       36.249       27.125       21.406     1314.014      735.787      458.229        0.441        0.125       79.287       19.356        0.060      339.991       13.703      866.056
08/27/2014  06:22:00     -101.130      -62.533       -4.023       20.051       18.063       14.292      402.049      326.261      204.253        0.754        0.047      118.902       10.745        0.008      339.977       13.680      866.086
08/27/2014  06:23:00      -44.904      -44.404        5.100       40.204       20.037       23.172     1616.394      401.493      536.940        0.328        0.128       63.151       22.358        0.125      339.918       13.581      866.115
08/27/2014  06:24:00      -52.234      -35.703        1.175       24.220       19.688       12.658      586.628      387.615      160.225        0.257        0.057       63.270        9.029        0.020      339.963       13.657      866.136
08/27/2014  06:25:00      -38.976      -26.209        1.144       15.614       13.748       14.701      243.794      189.000      216.114        0.143        0.032       46.969       10.504        0.050      339.888       13.530      866.152
08/27/2014  06:26:00      -46.100      -22.502        1.741       18.037       14.035       13.017      325.348      196.969      169.450        0.166        0.035       51.299       11.726        0.052      339.899       13.549      866.156
08/27/2014  06:27:00      -36.393      -23.826        2.932       21.715       15.631       11.617      471.525      244.344      134.952        0.138        0.043       43.499        6.843        0.025      339.947       13.629      866.163
08/27/2014  06:28:00      -37.766      -26.745        0.931       21.786       12.901       10.608      474.631      166.438      112.522        0.145        0.038       46.277       11.184        0.058      339.898       13.547      866.171
08/27/2014  06:29:00      -56.091      -32.916       -2.045       17.098       13.286       11.879      292.340      176.505      141.119        0.242        0.030       65.036       10.364        0.025      339.858       13.480      866.183
08/27/2014  06:30:00      -82.212      -38.551      -14.074       15.753       16.195        8.295      248.153      262.264       68.806        0.451        0.029       90.802        7.949        0.008      339.854       13.475      866.196
08/27/2014  06:31:00      -80.883      -44.521      -13.735       29.919       12.841       10.767      895.132      164.891      115.935        0.494        0.059       92.326       10.513        0.013      340.033       13.774      866.213
08/27/2014  06:32:00     -105.113      -40.728       -9.154       19.601       15.376       17.973      384.200      236.409      323.014        0.687        0.047      112.727       10.442        0.009      339.949       13.632      866.228
08/27/2014  06:33:00     -103.894      -33.492       -8.313       18.084       12.086       11.630      327.043      146.074      135.261        0.630        0.030      109.159       11.098        0.010      339.925       13.593      866.245
08/27/2014  06:34:00     -100.588      -45.600       -5.143       14.501       14.834        8.574      210.277      220.034       73.510        0.636        0.025      110.442        6.461        0.003      339.945       13.625      866.256
08/27/2014  06:35:00      -55.156      -32.202       -0.295       32.541       21.632       19.606     1058.893      467.932      384.393        0.299        0.096       63.868       17.682        0.077      339.879       13.515      866.264
08/27/2014  06:36:00      -53.753      -45.766      -11.650       16.444       15.434       12.606      270.415      238.195      158.899        0.289        0.033       70.597        6.294        0.008      339.862       13.487      866.268
08/27/2014  06:37:00      -48.241      -31.890       -4.483       15.296       12.960       11.499      233.966      167.960      132.222        0.195        0.027       57.828        7.411        0.016      339.882       13.520      866.276
08/27/2014  06:38:00      -56.326      -37.178       -0.356       28.041       15.585       14.379      786.303      242.895      206.753        0.290        0.062       67.490       15.716        0.054      339.933       13.605      866.275
08/27/2014  06:39:00      -54.252      -45.585       -2.630       26.430       19.654       13.926      698.528      386.299      193.945        0.315        0.064       70.861       13.902        0.038      339.931       13.603      866.273
08/27/2014  06:40:00      -70.016      -50.984        2.005       30.129       22.596       17.144      907.784      510.578      293.915        0.461        0.086       86.612       15.494        0.032      339.895       13.542      866.280
08/27/2014  06:41:00      -90.964      -47.337       -2.390       15.059       18.881       12.894      226.773      356.501      166.247        0.564        0.037      102.544        9.273        0.008      339.869       13.498      866.285
08/27/2014  06:42:00      -69.286      -42.568       -5.198       31.449       17.888       14.301      989.070      319.994      204.525        0.408        0.076       81.318       13.951        0.029      339.869       13.499      866.284
08/27/2014  06:43:00      -64.333      -48.641       -2.063       32.409       19.759       13.838     1050.363      390.400      191.504        0.407        0.082       80.652       11.521        0.020      339.840       13.449      866.289
08/27/2014  06:44:00      -52.625      -40.484        5.103       31.564       19.407       13.624      996.256      376.650      185.603        0.300        0.078       66.396       12.596        0.036      339.901       13.553      866.301
08/27/2014  06:45:00      -36.287      -33.411       -4.070       17.944       14.409        9.580      321.999      207.612       91.777        0.154        0.031       49.326        7.369        0.022      339.951       13.636      866.301
08/27/2014  06:46:00       -9.520      -32.483       -5.981       12.986       19.525        9.976      168.637      381.235       99.522        0.092        0.032       33.849        8.323        0.060      339.976       13.678      866.306
08/27/2014  06:47:00      -34.053      -22.922        3.114       26.407       14.279       13.999      697.308      203.899      195.973        0.140        0.055       41.049       16.311        0.158      340.032       13.774      866.305
08/27/2014  06:48:00      -54.273      -35.898       -5.084       15.420       17.150       10.789      237.773      294.130      116.397        0.245        0.032       65.071        8.508        0.017      339.992       13.706      866.302
08/27/2014  06:49:00      -48.515      -36.936       -1.701       31.962       16.732       18.540     1021.578      279.965      343.716        0.268        0.082       60.975       18.847        0.096      339.995       13.711      866.299
08/27/2014  06:50:00      -44.418      -68.388        2.023       29.929       36.675       14.826      895.754     1345.045      219.800        0.456        0.123       81.547       19.325        0.056      340.070       13.838      866.288
08/27/2014  06:51:00      -74.886      -51.586       -0.268       21.624       27.934       15.310      467.617      780.328      234.409        0.488        0.074       90.934       12.136        0.018      339.970       13.668      866.290
08/27/2014  06:52:00      -75.565      -43.638        3.494       25.199       21.345       13.132      634.998      455.614      172.458        0.444        0.063       87.260        9.038        0.011      339.994       13.710      866.298
08/27/2014  06:53:00      -70.198      -50.950        1.783       45.911       28.478       20.834     2107.785      811.003      434.056        0.544        0.168       86.739       25.240        0.085      340.078       13.851      866.298
08/27/2014  06:54:00      -57.426      -54.239       -1.208       23.026       19.398       13.298      530.199      376.272      176.826        0.366        0.054       78.991        8.839        0.013      340.065       13.828      866.306
08/27/2014  06:55:00      -71.498      -48.270        0.725       32.301       18.723       18.226     1043.370      350.563      332.178        0.458        0.086       86.266       13.406        0.024      340.061       13.821      866.322
08/27/2014  06:56:00      -58.390      -45.484        1.333       32.909       24.846       14.578     1083.021      617.300      212.515        0.370        0.096       74.015       10.310        0.019      340.058       13.818      866.333
08/27/2014  06:57:00      -78.326      -45.815       -2.912       20.683       14.448       15.436      427.805      208.748      238.275        0.456        0.044       90.741        8.349        0.008      340.117       13.916      866.334
08/27/2014  06:58:00      -60.358      -45.439       -1.415       25.657       15.267       11.087      658.300      233.078      122.932        0.336        0.051       75.549        9.484        0.016      340.133       13.944      866.342
08/27/2014  06:59:00      -60.456      -45.479        1.297       27.054       15.561       15.267      731.901      242.148      233.081        0.347        0.060       75.652       12.984        0.029      340.167       14.001      866.342
08/27/2014  07:00:00      -92.494      -44.300        2.051       29.310       25.939       15.678      859.078      672.812      245.808        0.615        0.089      102.556       14.867        0.021      340.114       13.912      866.365
08/27/2014  07:01:00      -62.235      -47.139        1.096       43.651       26.323       20.431     1905.375      692.881      417.426        0.456        0.151       78.072       19.540        0.063      340.111       13.906      866.374
08/27/2014  07:02:00      -49.875      -45.227        2.870       35.759       20.866       16.335     1278.686      435.399      266.831        0.326        0.099       67.327       13.385        0.040      340.138       13.950      866.393
08/27/2014  07:03:00      -85.091      -61.144        0.242       27.050       34.030       20.763      731.727     1158.059      431.096        0.665        0.116      104.781       14.536        0.019      340.150       13.972      866.404
08/27/2014  07:04:00      -83.483      -77.167       -0.982       15.147       24.842       15.214      229.431      617.139      231.468        0.700        0.054      113.685       10.224        0.008      340.194       14.046      866.420
08/27/2014  07:05:00      -52.469      -56.636        5.186       37.603       32.557       16.896     1413.986     1059.952      285.477        0.437        0.138       77.205       19.536        0.064      340.224       14.098      866.439
08/27/2014  07:06:00      -76.645      -29.390       -1.507       27.197       20.097       15.463      739.696      403.874      239.106        0.406        0.069       82.087       14.524        0.031      340.194       14.046      866.448
08/27/2014  07:07:00      -88.739      -28.776       -5.345       29.276       14.290       12.169      857.065      204.216      148.082        0.497        0.060       93.288       11.362        0.015      340.103       13.892      866.465
08/27/2014  07:08:00      -61.359      -44.440        2.436       30.068       29.700       18.627      904.086      882.082      346.982        0.394        0.107       75.761       16.569        0.048      340.218       14.084      866.466
08/27/2014  07:09:00      -65.542      -64.567       -2.601       37.819       21.733       22.130     1430.272      472.329      489.748        0.543        0.120       92.004       19.528        0.045      340.287       14.203      866.464
08/27/2014  07:10:00      -90.184      -59.676       -4.360       23.621       29.259       13.632      557.970      856.117      185.827        0.666        0.080      108.141       12.759        0.014      340.308       14.238      866.458
08/27/2014  07:11:00      -77.321      -40.861       -8.254       20.207       23.971       13.429      408.339      574.633      180.337        0.444        0.058       87.453       12.038        0.019      340.307       14.238      866.451
08/27/2014  07:12:00      -86.033      -50.239       -7.565       35.246       25.590       16.672     1242.268      654.832      277.969        0.608        0.109       99.627       16.752        0.028      340.355       14.317      866.449
08/27/2014  07:13:00      -50.913      -43.326       -2.647       18.058       34.170       17.147      326.084     1167.567      294.025        0.313        0.089       66.852       15.481        0.054      340.302       14.229      866.456
08/27/2014  07:14:00      -39.327      -18.006        2.667       17.208       24.705       11.107      296.111      610.315      123.355        0.145        0.051       43.253        8.213        0.036      340.370       14.343      866.459
08/27/2014  07:15:00      -41.884      -21.374        3.350       18.439       23.456        8.445      339.997      550.201       71.320        0.159        0.048       47.022        1.728        0.001      340.412       14.415      866.475
08/27/2014  07:16:00      -22.825        0.728        9.217       23.734       11.472       11.118      563.316      131.600      123.615        0.071        0.041       22.837       10.861        0.226      340.558       14.660      866.481
08/27/2014  07:17:00      -42.298      -10.329       -1.292        9.997       14.749        7.965       99.944      217.542       63.445        0.114        0.019       43.540        4.918        0.013      340.421       14.430      866.489
08/27/2014  07:18:00      -35.681      -12.849        2.603       19.861       13.827       10.577      394.468      191.174      111.883        0.107        0.035       37.924        9.901        0.068      340.507       14.575      866.497
08/27/2014  07:19:00      -25.314      -24.098        7.461       30.256       19.913       14.807      915.403      396.546      219.241        0.140        0.077       34.950       16.768        0.230      340.703       14.907      866.513
08/27/2014  07:20:00      -38.269      -33.091       12.177       39.831       19.337       18.601     1586.491      373.920      345.982        0.251        0.115       50.592       22.205        0.193      340.604       14.740      866.510
08/27/2014  07:21:00      -57.807      -88.727       -1.207       22.829       23.863       18.565      521.147      569.441      344.667        0.633        0.072      105.897       15.615        0.022      340.471       14.517      866.513
08/27/2014  07:22:00     -103.058      -70.704       -7.315       27.257       23.702       13.375      742.962      561.801      178.893        0.858        0.074      124.980        8.336        0.004      340.492       14.549      866.505
08/27/2014  07:23:00      -76.189      -68.868       -4.032       30.407       28.155       18.360      924.609      792.689      337.103        0.631        0.103      102.701       15.680        0.023      340.533       14.620      866.495
08/27/2014  07:24:00      -84.094      -65.162       -2.793       25.061       21.805       18.110      628.046      475.475      327.978        0.638        0.072      106.385       16.605        0.024      340.589       14.714      866.486
08/27/2014  07:25:00      -75.159      -58.430       -5.758       19.126       18.869       14.878      365.793      356.050      221.365        0.502        0.047       95.200       13.711        0.021      340.569       14.680      866.471
08/27/2014  07:26:00      -55.553      -46.799       -1.116       32.774       23.649       13.632     1074.133      559.260      185.842        0.355        0.091       72.638       15.123        0.043      340.640       14.799      866.467
08/27/2014  07:27:00      -58.123      -48.091       -7.025        8.614       10.193        7.394       74.208      103.901       54.678        0.299        0.012       75.439        4.202        0.003      340.665       14.843      866.462
08/27/2014  07:28:00      -68.249      -56.146        0.588       26.715       21.467       15.042      713.674      460.839      226.269        0.461        0.070       88.376       15.228        0.030      340.697       14.897      866.464
08/27/2014  07:29:00      -52.711      -48.049        1.331       36.451       25.104       19.366     1328.659      630.206      375.036        0.371        0.117       71.324       15.187        0.045      340.775       15.029      866.471
08/27/2014  07:30:00      -26.334      -35.139       -2.153       12.117       22.184        8.787      146.822      492.108       77.207        0.132        0.036       43.911        5.323        0.015      340.737       14.964      866.476
08/27/2014  07:31:00      -55.450        8.272       -5.183       10.954        9.056        9.279      119.995       82.006       86.108        0.173        0.014       56.063        4.789        0.007      340.779       15.033      866.478
08/27/2014  07:32:00      -32.811      -31.019       -1.929       22.512       26.292       11.861      506.801      691.293      140.674        0.169        0.067       45.152        7.854        0.030      340.788       15.049      866.498
08/27/2014  07:33:00      -34.178      -53.409       -1.181        8.751       13.804        6.736       76.580      190.560       45.376        0.217        0.016       63.409        5.010        0.006      340.814       15.095      866.499
08/27/2014  07:34:00      -39.915      -14.316       -3.002       19.354       26.423       12.915      374.593      698.197      166.791        0.152        0.062       42.405       14.299        0.114      340.876       15.197      866.504
08/27/2014  07:35:00      -60.776      -48.353       -3.621       21.368       32.645       10.010      456.600     1065.723      100.208        0.383        0.081       77.664       12.021        0.024      340.888       15.221      866.510
08/27/2014  07:36:00      -27.499      -63.986       -3.836       36.944       23.526       18.250     1364.874      553.481      333.067        0.356        0.113       69.645       10.176        0.021      340.999       15.407      866.517
08/27/2014  07:37:00      -20.325      -31.862       -8.373       23.986       21.207       21.569      575.339      449.755      465.218        0.149        0.075       37.793       10.642        0.079      341.175       15.705      866.520
08/27/2014  07:38:00      -11.411       13.879       39.609       16.426       18.695       14.880      269.820      349.486      221.408        0.137        0.042       17.967       11.374        0.401      341.759       16.695      866.513
08/27/2014  07:39:00      -19.146        2.502       16.485       24.355       14.646       19.330      593.174      214.501      373.655        0.091        0.059       19.309       14.599        0.572      341.402       16.091      866.514
08/27/2014  07:40:00        5.343       -7.975       16.254       15.494       22.128       21.342      240.062      489.655      455.500        0.077        0.059        9.599       13.365        1.939      341.661       16.529      866.518
08/27/2014  07:41:00      -32.547       -6.407        5.400       34.307       24.324       16.737     1177.004      591.649      280.131        0.159        0.102       33.172       18.462        0.310      341.468       16.203      866.535
08/27/2014  07:42:00      -31.721      -14.973        7.498       25.149       21.854       19.116      632.461      477.613      365.424        0.138        0.074       35.077       18.479        0.278      341.500       16.256      866.546
08/27/2014  07:43:00      -33.204      -14.591        8.497       35.542       30.473       20.383     1263.243      928.621      415.451        0.200        0.130       36.269       22.053        0.370      341.551       16.342      866.555
08/27/2014  07:44:00      -45.526      -16.762        8.485       34.953       20.809       21.141     1221.680      433.028      446.947        0.226        0.105       48.514       22.269        0.211      341.418       16.117      866.567
08/27/2014  07:45:00      -36.366       -5.634       12.290       37.484       26.159       20.311     1405.080      684.306      412.539        0.200        0.125       36.800       22.153        0.362      341.410       16.105      866.573
08/27/2014  07:46:00      -21.131       -2.598       11.822       31.712       23.335       23.027     1005.641      544.508      530.222        0.134        0.104       21.290       18.989        0.796      341.795       16.757      866.575
08/27/2014  07:47:00      -26.941      -16.599        7.828       25.841       16.744       15.561      667.750      280.375      242.155        0.113        0.060       31.644       16.820        0.283      341.625       16.468      866.586
08/27/2014  07:48:00      -18.596      -13.706        6.035       20.914       16.361       12.169      437.396      267.679      148.084        0.071        0.043       23.101       11.494        0.248      341.521       16.292      866.589
08/27/2014  07:49:00      -11.294        7.060       24.799       15.521       23.184       19.023      240.911      537.508      361.874        0.097        0.057       13.319       15.321        1.323      341.904       16.941      866.595
08/27/2014  07:50:00      -39.316      -13.837        3.385       16.645       12.913       11.127      277.049      166.755      123.812        0.116        0.028       41.680        6.069        0.021      341.540       16.324      866.600
08/27/2014  07:51:00      -20.379       -5.704        5.097       14.202       16.552       13.100      201.711      273.974      171.611        0.056        0.032       21.162        7.118        0.113      341.688       16.575      866.603
08/27/2014  07:52:00      -30.039      -10.620       19.310       34.881       30.192       25.851     1216.686      911.582      668.282        0.209        0.140       31.861       27.293        0.734      341.842       16.835      866.600
08/27/2014  07:53:00      -77.910      -43.384       -0.968       30.109       22.172       18.921      906.550      491.614      358.005        0.485        0.088       89.175       12.820        0.021      341.490       16.237      866.600
08/27/2014  07:54:00      -46.841      -43.494        2.987       29.335       21.096       18.459      860.564      445.036      340.718        0.287        0.082       63.921        8.956        0.020      341.524       16.296      866.602
08/27/2014  07:55:00      -68.917      -58.648       -5.917       22.434       21.201       16.812      503.294      449.474      282.634        0.473        0.062       90.494       10.087        0.012      341.526       16.299      866.591
08/27/2014  07:56:00      -31.284      -49.225        8.801       21.055       26.364       12.105      443.332      695.052      146.521        0.238        0.064       58.325        7.527        0.017      341.602       16.428      866.596
08/27/2014  07:57:00      -37.050       -7.400        9.608       24.852       18.167       15.638      617.629      330.048      244.556        0.136        0.060       37.782       13.842        0.134      341.920       16.969      866.590
08/27/2014  07:58:00      -19.601       -6.642       12.159       19.564       18.964       18.833      382.758      359.619      354.686        0.084        0.055       20.695       16.362        0.625      342.146       17.353      866.590
08/27/2014  07:59:00      -26.528      -20.000       12.294       24.118       31.702       15.463      581.656     1005.026      239.111        0.154        0.091       33.223       18.857        0.322      341.921       16.969      866.595
08/27/2014  08:00:00      -54.698      -28.611        1.912       31.799       24.393       14.581     1011.193      595.001      212.615        0.282        0.091       61.728        7.204        0.014      341.665       16.536      866.598
08/27/2014  08:01:00      -30.803      -13.603       15.554       30.848       28.425       20.233      951.617      807.955      409.389        0.177        0.108       33.672       17.502        0.270      342.104       17.281      866.606
08/27/2014  08:02:00      -74.104       -9.181       -0.948       24.137       22.467       20.719      582.611      504.763      429.297        0.355        0.076       74.670       15.959        0.046      341.788       16.744      866.616
08/27/2014  08:03:00      -60.300      -56.278      -13.606       18.814       18.553       12.783      353.976      344.205      163.410        0.392        0.043       82.483        4.658        0.003      341.736       16.657      866.625
08/27/2014  08:04:00      -59.509      -44.788       -3.305       11.976       12.488        9.983      143.424      155.958       99.653        0.298        0.020       74.480        5.104        0.005      341.783       16.736      866.627
08/27/2014  08:05:00      -62.185      -20.210       -6.697       11.257       24.488       12.908      126.721      599.672      166.625        0.261        0.045       65.386        8.453        0.017      341.845       16.840      866.627
08/27/2014  08:06:00      -55.230      -35.176      -12.547       10.783       13.977       10.199      116.265      195.346      104.014        0.243        0.021       65.480        4.465        0.005      341.885       16.909      866.629
08/27/2014  08:07:00      -40.474      -48.221      -10.406       12.044       22.082        9.775      145.064      487.634       95.554        0.240        0.036       62.955        8.791        0.019      341.900       16.935      866.633
08/27/2014  08:08:00      -18.430      -50.943        1.623       15.247       17.766       15.378      232.461      315.632      236.478        0.186        0.039       54.174        8.478        0.024      341.978       17.066      866.632
08/27/2014  08:09:00      -29.784      -59.603       -2.075       14.089        6.174       11.779      198.501       38.118      138.738        0.241        0.019       66.630        5.539        0.007      341.886       16.910      866.628
08/27/2014  08:10:00      -31.291      -30.656        0.269       19.604       21.345       10.802      384.321      455.606      116.679        0.144        0.048       43.805        7.340        0.028      341.981       17.072      866.618
08/27/2014  08:11:00      -56.649      -12.793       -2.098       21.755       15.154       13.301      473.286      229.645      176.919        0.213        0.044       58.076       10.505        0.033      342.017       17.133      866.609
08/27/2014  08:12:00      -81.352      -19.847      -11.075       30.115       30.170       15.028      906.922      910.211      225.835        0.459        0.102       83.738       15.297        0.033      342.064       17.213      866.604
08/27/2014  08:13:00      -43.794      -38.365       -2.498       19.428       18.715       18.585      377.460      350.258      345.407        0.223        0.054       58.222       13.978        0.058      342.109       17.288      866.607
08/27/2014  08:14:00      -44.483      -17.117        4.602       25.704       29.348       16.930      660.700      861.281      286.628        0.205        0.090       47.663        9.786        0.042      342.115       17.299      866.610
08/27/2014  08:15:00      -40.893      -27.473        7.828       29.754       25.570       20.952      885.293      653.844      438.996        0.223        0.099       49.265       20.289        0.170      342.264       17.551      866.618
08/27/2014  08:16:00      -24.465      -22.134       19.407       29.091       28.017       20.034      846.282      784.951      401.366        0.175        0.102       32.991       17.118        0.269      342.533       18.008      866.629
08/27/2014  08:17:00      -33.777      -21.232       -1.492       17.952       22.628       14.942      322.276      512.043      223.264        0.133        0.053       39.895       17.834        0.200      342.372       17.736      866.639
08/27/2014  08:18:00      -33.111        4.170       -1.577       20.707       18.311       16.649      428.760      335.288      277.199        0.108        0.052       33.373       14.278        0.183      342.427       17.829      866.642
08/27/2014  08:19:00      -35.461      -34.846       -0.170       41.301       30.752       18.059     1705.799      945.715      326.132        0.272        0.149       49.716       12.397        0.062      342.355       17.706      866.643
08/27/2014  08:20:00      -51.895      -54.806       -6.848       18.844       23.466       13.588      355.110      550.675      184.626        0.342        0.055       75.477        6.551        0.008      342.207       17.454      866.648
08/27/2014  08:21:00      -34.164       -8.794       13.000       32.745       27.451       15.042     1072.218      753.542      226.256        0.173        0.103       35.278       17.577        0.248      342.595       18.116      866.643
08/27/2014  08:22:00        1.494      -55.593        6.598       32.874       50.724       22.421     1080.672     2572.919      502.705        0.365        0.208       55.613       27.350        0.242      342.751       18.381      866.647
08/27/2014  08:23:00       21.381       32.549       56.551       31.215       55.064       31.307      974.347     3032.018      980.123        0.485        0.249       38.943       36.082        0.858      342.887       18.610      866.655
08/27/2014  08:24:00       12.005       -1.161       31.115       26.846       41.203       24.461      720.703     1697.677      598.358        0.206        0.151       12.061       27.326        5.133      343.007       18.816      866.659
08/27/2014  08:25:00      -30.290      -39.568       -0.758       21.601       33.392       14.024      466.597     1115.010      196.683        0.213        0.089       49.831        4.661        0.009      342.567       18.066      866.660
08/27/2014  08:26:00       -8.416      -25.508       -7.314       29.610       28.062       19.196      876.761      787.479      368.488        0.140        0.102       26.860       11.522        0.184      342.670       18.241      866.668
08/27/2014  08:27:00       32.686      -51.134       -1.358       38.282       49.446       32.033     1465.534     2444.902     1026.141        0.431        0.247       60.688       25.608        0.178      342.750       18.378      866.676
08/27/2014  08:28:00        3.858       24.444       48.718       18.109       28.630       22.986      327.947      819.669      528.335        0.233        0.084       24.746       21.470        0.753      343.123       19.014      866.683
08/27/2014  08:29:00       -4.204       -8.244       31.432       15.131       20.844       25.719      228.950      434.463      661.458        0.120        0.066        9.254       15.625        2.851      343.363       19.422      866.693
08/27/2014  08:30:00      -24.810       -0.716       -3.547       28.796       19.767       20.162      829.204      390.735      406.526        0.113        0.081       24.820        7.534        0.092      343.005       18.811      866.700
08/27/2014  08:31:00      -53.934      -52.527       -9.398       42.202       29.522       21.750     1781.041      871.573      473.073        0.444        0.156       75.286       15.835        0.044      342.544       18.029      866.713
08/27/2014  08:32:00      -61.225       -3.891       -7.845       21.089       17.411       15.051      444.738      303.147      226.523        0.240        0.049       61.348       10.288        0.028      342.505       17.962      866.707
08/27/2014  08:33:00      -63.084      -18.102       -4.544       22.592       17.746       12.925      510.383      314.912      167.054        0.266        0.050       65.630       12.545        0.037      342.503       17.959      866.708
08/27/2014  08:34:00      -42.358       -7.759        7.456       24.798       21.954       16.705      614.940      481.987      279.047        0.164        0.069       43.063       14.005        0.106      342.898       18.631      866.705
08/27/2014  08:35:00      -57.636        8.605       -9.993       22.225       19.025       14.799      493.948      361.965      219.023        0.229        0.054       58.275        7.229        0.015      342.671       18.243      866.700
08/27/2014  08:36:00      -11.232       -9.846       11.235       25.489       29.657       18.459      649.668      879.565      340.734        0.111        0.093       14.937       14.745        0.974      343.234       19.203      866.689
08/27/2014  08:37:00      -50.317      -27.696        1.156       34.960       36.446       22.112     1222.207     1328.344      488.931        0.317        0.152       57.435       25.535        0.198      342.870       18.584      866.688
08/27/2014  08:38:00      -66.464      -55.542        0.211       40.518       38.285       21.794     1641.732     1465.705      474.988        0.554        0.179       86.616       25.502        0.087      342.763       18.400      866.687
08/27/2014  08:39:00      -69.463      -35.625       -7.129       28.571       21.067       12.244      816.298      443.831      149.920        0.378        0.071       78.066       12.383        0.025      342.732       18.347      866.677
08/27/2014  08:40:00      -46.293      -31.565        2.691       27.206       19.462       15.952      740.191      378.763      254.468        0.226        0.069       56.030       14.714        0.069      342.917       18.663      866.672
08/27/2014  08:41:00      -55.692      -26.311       -0.124       31.556       35.581       21.800      995.805     1265.996      475.222        0.326        0.137       61.594       19.745        0.103      343.073       18.929      866.673
08/27/2014  08:42:00      -66.329      -42.857       -4.711       32.637       36.971       17.907     1065.172     1366.885      320.668        0.451        0.138       78.971       21.549        0.074      343.038       18.868      866.667
08/27/2014  08:43:00      -18.560       -4.440       -0.217       13.314       10.937        9.608      177.255      119.614       92.316        0.038        0.019       19.083        4.076        0.046      343.145       19.051      866.666
08/27/2014  08:44:00      -38.179      -21.985        0.300       18.089       23.547       11.302      327.221      554.445      127.739        0.148        0.050       44.057       13.144        0.089      343.009       18.819      866.661
08/27/2014  08:45:00      -44.601       -6.938       -1.960       39.694       39.753       21.568     1575.595     1580.284      465.182        0.283        0.181       45.138       19.695        0.190      343.369       19.433      866.659
08/27/2014  08:46:00      -36.669      -23.768        1.658       46.620       35.420       30.099     2173.402     1254.584      905.941        0.312        0.217       43.698       25.126        0.331      343.522       19.693      866.659
08/27/2014  08:47:00      -38.618      -24.621        1.668       53.966       25.954       21.831     2912.343      673.613      476.592        0.308        0.203       45.799       15.037        0.108      343.321       19.350      866.653
08/27/2014  08:48:00      -46.678      -23.839        2.975       35.818       27.624       17.297     1282.912      763.110      299.190        0.255        0.117       52.413       22.586        0.186      343.263       19.253      866.657
08/27/2014  08:49:00      -62.051      -13.212       -3.863       18.608       27.342        9.540      346.242      747.574       91.013        0.261        0.059       63.442        6.479        0.010      343.060       18.907      866.657
08/27/2014  08:50:00      -50.964      -81.300        3.564       26.073       19.033       15.977      679.789      362.273      255.261        0.526        0.065       95.954       13.604        0.020      343.035       18.865      866.652
08/27/2014  08:51:00      -59.253      -88.871       -7.256       32.468       35.157       18.958     1054.202     1236.008      359.399        0.706        0.132      106.813       15.742        0.022      343.141       19.045      866.644
08/27/2014  08:52:00      -58.956      -61.218       -7.210       31.295       29.742       18.323      979.380      884.616      335.728        0.474        0.110       84.991       13.915        0.027      343.228       19.192      866.644
08/27/2014  08:53:00      -43.191      -76.985       -5.259       27.021       48.225       16.905      730.132     2325.694      285.767        0.558        0.167       88.273       10.770        0.015      343.254       19.235      866.651
08/27/2014  08:54:00      -17.062      -13.714       14.892       19.728       18.568       15.488      389.206      344.771      239.884        0.084        0.049       21.890       13.249        0.366      343.828       20.216      866.660
08/27/2014  08:55:00      -27.764        1.235        0.579       13.577       17.948       13.906      184.330      322.128      193.371        0.074        0.035       27.791        8.086        0.085      343.509       19.672      866.667
08/27/2014  08:56:00      -57.058      -16.664       -5.257       20.281       22.963       14.701      411.307      527.292      216.132        0.236        0.058       59.442       12.648        0.045      343.427       19.531      866.680
08/27/2014  08:57:00      -20.033      -13.619       13.837       30.723       22.995       18.427      943.878      528.785      339.541        0.129        0.091       24.224       15.885        0.430      344.072       20.631      866.688
08/27/2014  08:58:00      -17.658      -43.754        1.249       34.610       40.306       28.156     1197.833     1624.570      792.771        0.292        0.181       47.182       14.470        0.094      343.806       20.176      866.701
08/27/2014  08:59:00      -41.558      -31.925       -1.143       36.025       37.254       21.831     1297.811     1387.890      476.598        0.295        0.158       52.405        8.095        0.024      343.605       19.834      866.711
08/27/2014  09:00:00      -68.227      -19.342       -7.511       23.926       23.234       14.500      572.442      539.812      210.236        0.320        0.066       70.916        9.609        0.018      343.525       19.698      866.721
08/27/2014  09:01:00      -40.883      -22.130        7.267       38.345       40.131       27.187     1470.315     1610.463      739.137        0.302        0.191       46.488       29.617        0.406      343.850       20.254      866.720
08/27/2014  09:02:00        4.506       13.419       44.469       29.229       32.163       28.202      854.362     1034.445      795.345        0.243        0.134       14.155       24.026        2.881      344.532       21.416      866.727
08/27/2014  09:03:00       14.174       17.087       44.167       48.798       19.648       19.129     2381.279      386.054      365.926        0.279        0.157       22.200       11.995        0.292      344.325       21.065      866.726
08/27/2014  09:04:00       28.088       34.545       29.463       37.471       28.771       20.977     1404.067      827.751      440.025        0.276        0.134       44.523        7.917        0.032      343.809       20.183      866.721
08/27/2014  09:05:00       32.560       22.020       43.219       35.645       50.390       32.505     1270.571     2539.107     1056.571        0.414        0.243       39.307       32.511        0.684      344.156       20.776      866.718
08/27/2014  09:06:00       64.137       76.006       61.110       49.539       29.859       38.391     2454.063      891.573     1473.883        0.922        0.241       99.451       32.887        0.109      343.683       19.967      866.711
08/27/2014  09:07:00       18.339       45.589       62.008       35.976       37.128       30.770     1294.249     1378.521      946.781        0.494        0.181       49.139       30.300        0.380      344.098       20.677      866.708
08/27/2014  09:08:00       10.912       52.349       73.655       35.158       47.297       24.680     1236.108     2237.006      609.126        0.618        0.204       53.474       25.537        0.228      344.583       21.506      866.714
08/27/2014  09:09:00       25.100       71.074       82.203       35.581       35.072       21.014     1266.038     1230.073      441.584        0.769        0.147       75.376       19.736        0.069      344.052       20.596      866.724
08/27/2014  09:10:00       37.339       62.391       48.288       38.221       22.522       34.081     1460.850      507.249     1161.529        0.537        0.156       72.710       32.167        0.196      343.807       20.179      866.729
08/27/2014  09:11:00       21.404       20.352       13.928       23.336       48.869       29.889      544.575     2388.184      893.348        0.245        0.191       29.535       24.943        0.713      343.875       20.294      866.734
08/27/2014  09:12:00       13.415      -28.310       -4.059       25.321       50.538       29.605      641.170     2554.090      876.459        0.253        0.204       31.328       20.592        0.432      343.904       20.344      866.737
08/27/2014  09:13:00       51.180      -11.976       19.148       29.841       34.322       31.557      890.488     1177.975      995.846        0.310        0.153       52.562       25.238        0.231      344.177       20.811      866.744
08/27/2014  09:14:00        3.022      -12.240       26.755       32.334       44.736       30.930     1045.510     2001.303      956.678        0.244        0.200       12.607       32.738        6.743      344.688       21.685      866.758
08/27/2014  09:15:00        1.992      -98.630       -6.284       26.588       32.570       22.655      706.922     1060.830      513.252        0.603        0.114       98.650       13.909        0.020      344.366       21.133      866.760
08/27/2014  09:16:00      -12.908      -53.548        2.883       45.033       39.195       22.958     2027.988     1536.236      527.061        0.357        0.205       55.082       28.138        0.261      344.162       20.785      866.771
08/27/2014  09:17:00      -50.088      -25.628        7.221       36.194       23.991       16.574     1309.972      575.592      274.689        0.269        0.108       56.264       15.095        0.072      344.233       20.906      866.781
08/27/2014  09:18:00      -64.804      -35.324       -0.845       26.088       15.246        8.597      680.602      232.445       73.913        0.322        0.049       73.806        5.432        0.005      343.745       20.073      866.788
08/27/2014  09:19:00      -19.953       -8.425        7.134       19.678       18.711       15.318      387.224      350.105      234.654        0.075        0.049       21.659        9.840        0.206      344.161       20.783      866.796
08/27/2014  09:20:00       -6.357       10.721       33.550       11.747       27.726       18.933      137.986      768.711      358.454        0.127        0.063       12.464       19.179        2.368      344.866       21.990      866.809
08/27/2014  09:21:00       -2.483       17.859       46.739       22.448       28.846       19.761      503.928      832.065      390.492        0.212        0.086       18.031       20.109        1.244      344.829       21.926      866.810
08/27/2014  09:22:00       28.281       49.297       24.161       39.332       26.251       40.175     1547.042      689.126     1614.018        0.383        0.193       56.833       23.370        0.169      344.607       21.546      866.803
08/27/2014  09:23:00       24.157       52.579       68.404       40.098       45.491       28.297     1607.853     2069.470      800.742        0.625        0.224       57.863       12.304        0.045      344.717       21.735      866.799
08/27/2014  09:24:00       10.873      -62.909        5.902       32.536       62.270       37.062     1058.615     3877.565     1373.592        0.521        0.315       63.841       40.928        0.411      344.312       21.042      866.795
08/27/2014  09:25:00       41.613       54.176       50.317       52.439       42.341       28.090     2749.900     1792.764      789.059        0.626        0.267       68.313       28.820        0.178      344.638       21.598      866.791
08/27/2014  09:26:00       66.573       57.583      -10.779       26.783       25.672       29.530      717.335      659.065      872.013        0.506        0.112       88.021       16.593        0.036      344.067       20.622      866.784
08/27/2014  09:27:00       39.458       57.264       15.057       43.222       32.473       37.269     1868.138     1054.485     1389.003        0.469        0.216       69.542       25.150        0.131      344.582       21.502      866.776
08/27/2014  09:28:00       74.399       75.220        2.499       28.043       27.042       27.118      786.392      731.292      735.363        0.673        0.113      105.798       18.702        0.031      344.089       20.661      866.773
08/27/2014  09:29:00        2.711       28.820       -0.617       25.867       33.529       25.808      669.080     1124.226      666.030        0.165        0.123       28.947       22.828        0.622      344.508       21.377      866.759
08/27/2014  09:30:00       -3.171       20.887       23.203       15.360       20.701       14.503      235.933      428.548      210.326        0.093        0.044       21.126       10.234        0.235      345.155       22.483      866.762
08/27/2014  09:31:00       78.891       52.394       22.039       51.754       38.351       28.631     2678.437     1470.815      819.710        0.721        0.248       94.704       17.953        0.036      344.611       21.554      866.760
08/27/2014  09:32:00      110.206       77.370        8.310       31.223       32.176       31.502      974.870     1035.323      992.372        1.060        0.150      134.653       19.802        0.022      344.179       20.814      866.760
08/27/2014  09:33:00       64.179       61.870       -5.380       60.723       30.883       42.666     3687.277      953.732     1820.406        0.722        0.323       89.145       28.922        0.105      344.150       20.765      866.758
08/27/2014  09:34:00       32.067       15.751       22.866       22.754       26.087       26.187      517.766      680.555      685.748        0.184        0.094       35.727       11.607        0.106      344.564       21.473      866.759
08/27/2014  09:35:00       -3.880       17.905       15.732       23.962       20.291       18.436      574.189      411.730      339.901        0.095        0.066       18.320       16.665        0.827      344.731       21.759      866.763
08/27/2014  09:36:00        6.828       67.794       12.029       32.636       38.981       29.291     1065.090     1519.545      857.977        0.411        0.172       68.137       21.957        0.104      345.018       22.251      866.772
08/27/2014  09:37:00       94.955       71.829       16.885       64.011       41.426       34.149     4097.358     1716.147     1166.132        1.072        0.349      119.062       18.684        0.025      344.563       21.471      866.769
08/27/2014  09:38:00      114.182       87.956       27.183       38.087       32.275       46.773     1450.603     1041.695     2187.684        1.310        0.234      144.131       15.938        0.012      344.617       21.563      866.771
08/27/2014  09:39:00       80.801       37.136       19.877       40.192       31.542       38.079     1615.367      994.927     1450.047        0.618        0.203       88.926       19.166        0.046      344.352       21.110      866.771
08/27/2014  09:40:00       90.423       53.291       20.322       50.026       33.511       50.437     2502.639     1123.003     2543.845        0.880        0.308      104.958       28.384        0.073      344.579       21.497      866.773
08/27/2014  09:41:00       73.882       55.000       29.055       40.584       39.416       34.170     1647.035     1553.599     1167.569        0.685        0.218       92.106       13.617        0.022      344.497       21.358      866.769
08/27/2014  09:42:00       64.462       46.195        1.251       43.011       31.953       26.512     1849.910     1020.964      702.866        0.493        0.179       79.305       16.514        0.043      344.600       21.535      866.768
08/27/2014  09:43:00        6.516       72.480        2.574       28.115       45.870       27.705      790.475     2104.017      767.585        0.448        0.183       72.772       25.496        0.123      345.059       22.319      866.778
08/27/2014  09:44:00       -9.936       60.151       22.281       25.898       48.119       29.040      670.682     2315.454      843.301        0.402        0.191       60.966       24.565        0.162      345.547       23.156      866.775
08/27/2014  09:45:00        9.320      -10.292       20.957       24.647       35.716       23.951      607.475     1275.601      573.660        0.154        0.123       13.885       14.240        1.052      345.629       23.298      866.780
08/27/2014  09:46:00       16.936        6.643       16.353       24.922       40.100       21.969      621.122     1607.984      482.630        0.165        0.136       18.192       15.775        0.752      345.573       23.202      866.784
08/27/2014  09:47:00        8.296      -37.915       33.162       37.564       65.542       40.235     1411.030     4295.696     1618.887        0.496        0.366       38.812       43.889        1.279      345.077       22.351      866.792
08/27/2014  09:48:00        5.947        3.284       38.390       42.400       32.813       28.620     1797.771     1076.706      819.105        0.261        0.185        6.793       22.232       10.710      345.404       22.911      866.799
08/27/2014  09:49:00       43.429       68.030       16.196       49.943       39.866       42.446     2494.343     1589.292     1801.660        0.633        0.294       80.711       30.306        0.141      344.925       22.090      866.791
08/27/2014  09:50:00      -14.271      111.537        5.467       24.927       56.714       27.942      621.335     3216.437      780.774        0.865        0.231      112.446       29.883        0.071      344.959       22.150      866.798
08/27/2014  09:51:00       -4.507       32.984       18.457       23.377       37.238       22.950      546.469     1386.662      526.682        0.195        0.123       33.290       20.128        0.366      345.502       23.079      866.796
08/27/2014  09:52:00      -21.580      105.141       -6.810       31.872       41.705       20.990     1015.850     1739.323      440.599        0.738        0.160      107.332       17.379        0.026      345.080       22.356      866.798
08/27/2014  09:53:00       -3.834       64.699       13.600       31.343       62.105       29.210      982.366     3857.081      853.246        0.504        0.285       64.813       33.990        0.275      345.472       23.028      866.807
08/27/2014  09:54:00        4.870        9.863       18.496       17.360       19.643       21.986      301.365      385.865      483.368        0.082        0.059       11.000        7.762        0.498      345.517       23.104      866.807
08/27/2014  09:55:00      -10.390       71.293        0.769       19.124       46.803       22.769      365.729     2190.546      518.444        0.413        0.154       72.046       23.718        0.108      345.154       22.484      866.804
08/27/2014  09:56:00      -15.420       66.981        8.310       26.900       39.850       27.533      723.610     1588.000      758.088        0.393        0.153       68.733       23.665        0.119      345.545       23.152      866.802
08/27/2014  09:57:00        3.427       14.573       21.696       22.301       31.474       23.398      497.342      990.607      547.462        0.136        0.102       14.971       19.984        1.782      345.955       23.857      866.805
08/27/2014  09:58:00       42.369       35.862        4.924       38.693       33.558       21.462     1497.172     1126.138      460.638        0.309        0.154       55.509       19.224        0.120      345.232       22.615      866.790
08/27/2014  09:59:00       69.235       73.966        6.037       49.781       44.152       39.805     2478.119     1949.418     1584.469        0.816        0.301      101.313       29.984        0.088      345.259       22.662      866.781
08/27/2014  10:00:00      141.832       92.526       11.667       32.610       30.474       26.628     1063.437      928.686      709.059        1.576        0.135      169.344       12.869        0.006      344.819       21.909      866.779
08/27/2014  10:01:00       91.273       75.878        9.329       27.896       27.572       30.674      778.172      760.232      940.884        0.833        0.124      118.694       11.113        0.009      344.871       21.997      866.791
08/27/2014  10:02:00       69.513       33.152        8.089       49.831       40.115       33.138     2483.083     1609.200     1098.137        0.559        0.260       77.013       23.602        0.094      345.340       22.801      866.795
08/27/2014  10:03:00      131.375       72.829       -6.165       43.975       33.343       37.128     1933.825     1111.728     1378.484        1.351        0.221      150.211        7.170        0.002      344.928       22.095      866.804
08/27/2014  10:04:00       55.996       33.973       18.740       47.656       31.157       27.928     2271.071      970.781      779.990        0.433        0.201       65.496       16.058        0.060      345.488       23.054      866.795
08/27/2014  10:05:00       38.334       31.984       -1.848       37.833       34.413       33.126     1431.322     1184.226     1097.338        0.310        0.186       49.925       23.304        0.218      345.020       22.253      866.798
08/27/2014  10:06:00       34.395       46.814       19.755       38.940       37.440       32.836     1516.286     1401.767     1078.222        0.388        0.200       58.091       22.119        0.145      345.706       23.427      866.786
08/27/2014  10:07:00        7.302        8.638       32.985       19.501       16.289       14.788      380.303      265.325      218.683        0.104        0.043       11.311        6.488        0.329      346.255       24.371      866.784
08/27/2014  10:08:00      -11.114       21.814       21.659       24.203       21.482       24.664      585.798      461.456      608.317        0.136        0.083       24.482       18.075        0.545      346.121       24.142      866.782
08/27/2014  10:09:00        8.362       41.761       20.490       38.840       33.647       26.738     1508.517     1132.092      714.917        0.279        0.168       42.590       20.158        0.224      346.022       23.971      866.778
08/27/2014  10:10:00       84.084       34.321        7.958       30.766       37.909       30.793      946.529     1437.101      948.218        0.582        0.167       90.819       19.363        0.045      344.957       22.145      866.771
08/27/2014  10:11:00       69.273       57.906       -5.654       23.678       27.362       26.444      560.625      748.657      699.287        0.510        0.100       90.288       17.077        0.036      345.069       22.337      866.756
08/27/2014  10:12:00       84.144       72.892       22.778       37.877       36.799       47.323     1434.691     1354.135     2239.466        0.897        0.251      111.326       27.178        0.060      345.428       22.951      866.750
08/27/2014  10:13:00       56.814       38.552       31.484       44.385       40.627       39.535     1970.000     1650.576     1562.993        0.544        0.259       68.659       23.442        0.117      345.402       22.906      866.746
08/27/2014  10:14:00       23.584       31.498       -6.851       15.938       14.147       19.464      254.021      200.134      378.830        0.121        0.042       39.349       10.822        0.076      345.188       22.539      866.750
08/27/2014  10:15:00       22.973       46.646      -22.342       23.450       29.360       16.666      549.901      862.010      277.755        0.245        0.084       51.996        8.786        0.029      345.048       22.299      866.750
08/27/2014  10:16:00       -9.807       49.895       12.209       45.258       37.487       31.371     2048.297     1405.296      984.130        0.359        0.222       50.850       27.222        0.287      345.605       23.255      866.758
08/27/2014  10:17:00       82.894       54.652       39.582       51.212       32.886       41.558     2622.631     1081.479     1727.057        0.843        0.272       99.289       35.353        0.127      345.767       23.534      866.764
08/27/2014  10:18:00       89.945       58.667       30.448       70.288       47.331       44.824     4940.448     2240.182     2009.193        1.082        0.459      107.387       42.634        0.158      345.558       23.174      866.769
08/27/2014  10:19:00       66.007       65.263       21.700       46.170       39.025       44.483     2131.687     1522.975     1978.736        0.736        0.282       92.824       24.406        0.069      346.091       24.089      866.763
08/27/2014  10:20:00       77.987       41.158       11.335       58.885       43.525       41.448     3467.496     1894.443     1717.972        0.749        0.354       88.181       25.961        0.087      345.795       23.581      866.774
08/27/2014  10:21:00      136.787      101.249       23.670       36.914       43.668       38.257     1362.624     1906.912     1463.589        1.713        0.237      170.182        8.729        0.003      345.487       23.051      866.775
08/27/2014  10:22:00       99.041       52.624       11.541       48.545       34.620       28.547     2356.582     1198.576      814.906        0.854        0.219      112.153       10.997        0.010      345.340       22.802      866.773
08/27/2014  10:23:00       38.608       34.773       15.128       45.923       38.980       34.945     2108.887     1519.416     1221.153        0.389        0.242       51.959       12.452        0.057      345.846       23.669      866.770
08/27/2014  10:24:00       79.644       47.955       32.120       36.274       38.453       28.354     1315.813     1478.638      803.930        0.664        0.180       92.967       21.186        0.052      346.150       24.191      866.765
08/27/2014  10:25:00       86.722       57.199       11.994       43.987       24.117       33.640     1934.866      581.620     1131.620        0.729        0.182      103.887       15.940        0.024      346.042       24.004      866.768
08/27/2014  10:26:00       32.951       33.339       27.334       42.923       31.575       30.015     1842.359      997.008      900.870        0.334        0.187       46.875       26.051        0.309      346.424       24.663      866.761
08/27/2014  10:27:00       64.330       49.284       43.220       35.272       27.339       29.817     1244.092      747.425      889.067        0.566        0.144       81.039       20.557        0.064      345.785       23.563      866.778
08/27/2014  10:28:00       32.711       34.271       43.128       29.470       36.510       25.219      868.455     1332.956      636.021        0.347        0.142       47.376       16.723        0.125      346.403       24.626      866.776
08/27/2014  10:29:00       61.834      -40.033       -0.942       66.940       54.212       33.332     4481.007     2938.968     1111.031        0.698        0.427       73.662       40.143        0.297      346.116       24.132      866.797
08/27/2014  10:30:00        4.898       -0.108       63.777       38.821       79.317       51.145     1507.073     6291.150     2615.858        0.725        0.521        4.899       55.626      128.921      346.681       25.104      866.808
08/27/2014  10:31:00       23.168      -14.752       49.083       46.399       75.187       58.017     2152.899     5653.111     3366.023        0.717        0.559       27.466       54.507        3.938      346.091       24.090      866.821
08/27/2014  10:32:00       31.739      -21.611       41.414       39.792       68.975       27.814     1583.424     4757.508      773.611        0.515        0.356       38.398       20.815        0.294      346.379       24.586      866.829
08/27/2014  10:33:00       98.015       82.648       44.788       58.851       39.554       38.588     3463.451     1564.503     1489.052        1.248        0.326      128.210       13.091        0.010      346.069       24.051      866.830
08/27/2014  10:34:00       41.479       32.226       32.938       54.349       46.359       30.870     2953.848     2149.184      952.954        0.495        0.303       52.526       34.413        0.429      345.995       23.925      866.840
08/27/2014  10:35:00      -11.439      -27.185       11.945       46.912       56.404       27.938     2200.718     3181.439      780.504        0.359        0.308       29.493       17.235        0.341      346.251       24.364      866.840
08/27/2014  10:36:00       56.175      -68.421        2.374       44.084       30.794       26.989     1943.415      948.274      728.413        0.573        0.181       88.527       10.241        0.013      345.885       23.736      866.845
08/27/2014  10:37:00       25.637       14.731       35.309       20.821       20.580       16.201      433.494      423.533      262.463        0.162        0.056       29.568       11.505        0.151      346.587       24.942      866.854
08/27/2014  10:38:00      -13.876       -5.159        4.942       19.118       26.297       21.829      365.505      691.521      476.498        0.089        0.077       14.804       12.440        0.706      346.168       24.223      866.840
08/27/2014  10:39:00      -50.723       35.602      -10.331       26.696       16.878       18.189      712.691      284.859      330.828        0.264        0.066       61.971       10.081        0.026      345.729       23.468      866.845
08/27/2014  10:40:00      -62.731       22.993      -14.397       25.942       20.959       11.602      672.996      439.268      134.607        0.296        0.062       66.812        7.959        0.014      345.712       23.437      866.843
08/27/2014  10:41:00      -44.124       -9.010      -21.816       11.819       12.060       11.320      139.677      145.454      128.140        0.146        0.021       45.034        7.490        0.028      345.791       23.574      866.845
08/27/2014  10:42:00       12.043      -45.809       14.422       49.994       50.667       33.450     2499.406     2567.123     1118.874        0.432        0.309       47.365       31.663        0.447      346.592       24.951      866.840
08/27/2014  10:43:00       16.446      -17.315       25.944       30.762       69.717       38.122      946.318     4860.513     1453.251        0.425        0.363       23.880       46.984        3.871      346.679       25.101      866.840
08/27/2014  10:44:00      -26.541      -72.375       -7.415       38.840       27.475       19.700     1508.516      754.862      388.084        0.432        0.133       77.088       11.210        0.021      346.074       24.060      866.839
08/27/2014  10:45:00        0.860      -63.269       -6.545       74.162       55.259       30.663     5499.982     3053.503      940.211        0.677        0.475       63.275       29.229        0.213      346.225       24.319      866.844
08/27/2014  10:46:00       37.083      -40.752       33.906       62.708       58.191       49.719     3932.311     3386.183     2471.991        0.699        0.490       55.098       37.416        0.461      346.584       24.937      866.839
08/27/2014  10:47:00       31.520       -7.138       24.878       36.742       34.720       29.014     1349.957     1205.479      841.788        0.253        0.170       32.318       22.662        0.492      346.584       24.938      866.851
08/27/2014  10:48:00        7.805      -54.140        5.537       44.648       65.186       42.687     1993.480     4249.235     1822.196        0.554        0.403       54.700       39.028        0.509      346.656       25.060      866.845
08/27/2014  10:49:00       69.535     -140.712      -23.095       57.740       50.499       32.096     3333.858     2550.172     1030.147        1.604        0.346      156.955       23.414        0.022      346.264       24.386      866.844
08/27/2014  10:50:00       44.273      -30.170       23.754       44.462       47.062       41.236     1976.896     2214.852     1700.407        0.466        0.295       53.576       25.291        0.223      346.819       25.342      866.840
08/27/2014  10:51:00       32.969     -100.378       -8.665       33.928       49.836       26.347     1151.099     2483.645      694.181        0.778        0.216      105.654       27.430        0.067      346.334       24.508      866.839
08/27/2014  10:52:00       67.654      -84.146      -12.713       35.517       51.454       25.676     1261.469     2647.502      659.232        0.819        0.228      107.970       24.641        0.052      346.160       24.207      866.838
08/27/2014  10:53:00       33.152       39.581       37.541       31.945       25.420       28.189     1020.502      646.168      794.611        0.327        0.123       51.630       19.857        0.148      346.467       24.735      866.834
08/27/2014  10:54:00       17.773       49.772       62.270       42.576       35.348       32.956     1812.751     1249.494     1086.102        0.541        0.207       52.850       27.070        0.262      346.682       25.106      866.818
08/27/2014  10:55:00       -1.906       -0.322       36.825       30.345       36.885       29.595      920.830     1360.478      875.858        0.226        0.158        1.933       25.985      180.642      347.127       25.873      866.801
08/27/2014  10:56:00       -1.241        3.452       22.954       25.240       23.524       29.306      637.075      553.374      858.859        0.129        0.102        3.668       21.495       34.344      347.213       26.020      866.785
08/27/2014  10:57:00       -7.894       25.464        8.404       31.259       35.679       26.202      977.136     1273.020      686.555        0.186        0.147       26.660       21.773        0.667      347.004       25.660      866.775
08/27/2014  10:58:00      -26.002       33.649       17.809       26.155       42.996       28.899      684.071     1848.678      835.141        0.275        0.168       42.525       29.429        0.479      346.990       25.636      866.770
08/27/2014  10:59:00       -2.480       43.159       19.236       20.066       35.831       28.828      402.647     1283.852      831.063        0.238        0.126       43.231       17.147        0.157      347.144       25.902      866.753
08/27/2014  11:00:00       11.208       42.601       15.653       30.490       38.950       32.916      929.651     1517.082     1083.479        0.286        0.177       44.050       31.185        0.501      347.141       25.897      866.746
08/27/2014  11:01:00       76.700       47.494       14.598       25.461       28.373       30.448      648.246      805.018      927.100        0.537        0.119       90.214       20.864        0.053      346.606       24.975      866.742
08/27/2014  11:02:00       46.292       47.718        2.769       28.124       63.440       25.505      790.953     4024.662      650.489        0.495        0.273       66.483       29.887        0.202      346.238       24.342      866.735
08/27/2014  11:03:00        7.597      -58.082       31.070       38.952       89.509       46.092     1517.251     8011.781     2124.495        0.802        0.583       58.577       35.656        0.371      346.770       25.256      866.714
08/27/2014  11:04:00        8.887      -52.416       34.122       38.500       55.927       34.213     1482.280     3127.784     1170.550        0.488        0.289       53.164       21.497        0.163      346.793       25.296      866.712
08/27/2014  11:05:00       49.047       31.303       30.018       47.361       37.967       39.539     2243.072     1441.507     1563.296        0.477        0.262       58.185       26.448        0.207      346.858       25.408      866.713
08/27/2014  11:06:00       76.294      -59.595       28.699       54.554       64.948       53.083     2976.136     4218.225     2817.760        1.010        0.501       96.811       46.556        0.231      346.980       25.618      866.697
08/27/2014  11:07:00       93.849      -82.236        4.660       55.308       66.655       44.196     3058.943     4442.925     1953.266        1.252        0.473      124.782       39.464        0.100      346.510       24.808      866.694
08/27/2014  11:08:00       28.452        4.462       19.093       27.341       31.686       26.985      747.512     1003.982      728.190        0.184        0.124       28.800       26.321        0.835      346.841       25.379      866.688
08/27/2014  11:09:00       36.737       30.224       37.363       36.722       37.683       35.846     1348.479     1419.987     1284.906        0.386        0.203       47.572       24.682        0.269      347.131       25.878      866.673
08/27/2014  11:10:00       26.268       26.746       79.098       39.744       71.260       45.197     1579.586     5077.971     2042.769        0.818        0.435       37.488       49.351        1.733      347.312       26.189      866.647
08/27/2014  11:11:00       15.597       -5.258       54.216       28.125       57.119       33.611      791.024     3262.615     1129.691        0.420        0.259       16.459       31.965        3.772      347.505       26.523      866.651
08/27/2014  11:12:00       35.726      -33.509       31.182       39.663       36.863       39.633     1573.144     1358.862     1570.774        0.394        0.225       48.981       18.424        0.141      346.980       25.620      866.652
08/27/2014  11:13:00       -0.259      -32.172       -4.719       21.884       30.548       26.371      478.902      933.202      695.421        0.158        0.105       32.173       17.456        0.294      347.107       25.836      866.638
08/27/2014  11:14:00      -27.914       29.864        6.068       29.335       41.507       25.493      860.532     1722.857      649.915        0.247        0.162       40.878       24.263        0.352      347.158       25.925      866.636
08/27/2014  11:15:00      -54.029       55.738       -0.341       52.598       27.007       28.076     2766.551      729.387      788.251        0.515        0.214       77.626       26.495        0.116      346.892       25.468      866.629
08/27/2014  11:16:00       20.964       53.391       14.940       23.578       30.991       34.950      555.938      960.465     1221.534        0.313        0.137       57.359       15.284        0.071      347.327       26.218      866.629
08/27/2014  11:17:00       -6.983       16.449        6.761       22.028       17.772       24.962      485.212      315.855      623.085        0.089        0.071       17.870       14.781        0.684      347.406       26.352      866.614
08/27/2014  11:18:00      -21.219       72.724        6.579       40.611       51.944       38.002     1649.259     2698.136     1444.130        0.579        0.290       75.756       36.028        0.226      347.369       26.288      866.603
08/27/2014  11:19:00       12.208       19.027       34.241       28.518       27.258       21.293      813.280      742.986      453.401        0.185        0.100       22.607       14.000        0.383      347.842       27.104      866.603
08/27/2014  11:20:00       27.614       17.164        3.757       36.849       57.721       30.789     1357.866     3331.678      947.977        0.335        0.282       32.514       24.173        0.553      347.357       26.268      866.593
08/27/2014  11:21:00       31.835       36.261       67.491       59.136       39.640       33.983     3497.117     1571.345     1154.842        0.655        0.311       48.253       35.455        0.540      347.531       26.569      866.595
08/27/2014  11:22:00       43.670      -36.905        2.745       58.045       53.730       41.348     3369.176     2886.965     1709.639        0.562        0.398       57.176       40.569        0.503      347.211       26.016      866.579
08/27/2014  11:23:00       -5.400       26.487       57.908       22.273       32.916       27.490      496.100     1083.490      755.692        0.321        0.117       27.031       23.965        0.786      347.854       27.125      866.585
08/27/2014  11:24:00       -9.322       39.131       65.386       15.797       31.608       16.658      249.551      999.070      277.474        0.371        0.076       40.226       13.211        0.108      347.851       27.120      866.567
08/27/2014  11:25:00       15.352       36.609       50.528       26.626       36.354       21.517      708.946     1321.635      463.000        0.331        0.125       39.698       18.488        0.217      347.691       26.845      866.561
08/27/2014  11:26:00       25.974       34.366        4.142       21.285       30.269       30.334      453.072      916.190      920.126        0.208        0.114       43.077       21.425        0.247      347.357       26.269      866.550
08/27/2014  11:27:00        6.395        4.362       29.925       20.659       14.557       22.414      426.783      211.893      502.406        0.105        0.057        7.741       10.588        1.871      348.443       28.143      866.532
08/27/2014  11:28:00      -30.232       18.959       31.874       22.049       30.768       31.234      486.162      946.641      975.586        0.235        0.120       35.685       27.085        0.576      347.614       26.712      866.523
08/27/2014  11:29:00      -54.945        3.714        1.848       36.422       30.539       22.914     1326.571      932.628      525.031        0.291        0.139       55.070       15.983        0.084      347.572       26.637      866.505
08/27/2014  11:30:00      -78.433       12.774      -24.387       33.637       23.573       22.274     1131.453      555.664      496.141        0.455        0.109       79.466       13.990        0.031      346.890       25.463      866.505
08/27/2014  11:31:00      -62.450       19.011      -18.656       24.194       31.471       18.639      585.340      990.435      347.410        0.327        0.096       65.279       12.565        0.037      346.843       25.381      866.496
08/27/2014  11:32:00      -39.831       50.737        9.620       48.917       38.693       33.653     2392.851     1497.147     1132.501        0.464        0.251       64.504       36.578        0.322      347.861       27.141      866.489
08/27/2014  11:33:00      -27.945       58.164       29.759       38.607       25.006       28.285     1490.463      625.283      800.064        0.398        0.146       64.529       11.576        0.032      347.917       27.235      866.480
08/27/2014  11:34:00      -32.479       28.792       29.268       32.208       23.203       21.994     1037.383      538.388      483.723        0.240        0.103       43.403       11.026        0.065      347.692       26.846      866.476
08/27/2014  11:35:00      -42.537       -7.811        1.416       29.716       36.797       32.960      883.036     1354.029     1086.346        0.260        0.166       43.248       31.866        0.543      347.418       26.373      866.472
08/27/2014  11:36:00       58.544       46.845       51.785       67.058       51.761       53.182     4496.770     2679.203     2828.368        0.915        0.500       74.979       38.088        0.258      348.023       27.418      866.465
08/27/2014  11:37:00        9.160       19.433       58.225       52.549       58.285       34.871     2761.415     3397.122     1215.952        0.561        0.369       21.484       29.854        1.931      348.011       27.396      866.448
08/27/2014  11:38:00       21.994       18.567       61.090       49.485       64.333       46.143     2448.769     4138.739     2129.194        0.664        0.436       28.783       35.714        1.540      348.082       27.520      866.442
08/27/2014  11:39:00       18.024       -2.477       77.768       48.236       84.000       46.182     2326.683     7056.016     2132.823        0.894        0.576       18.193       34.348        3.564      347.721       26.895      866.449
08/27/2014  11:40:00      -21.835       32.876       53.295       27.613       37.279       33.562      762.487     1389.716     1126.410        0.384        0.164       39.466       26.359        0.446      347.981       27.343      866.454
08/27/2014  11:41:00      -67.794      -56.251       -2.725       50.099       48.318       30.016     2509.909     2334.600      900.980        0.676        0.287       88.092       20.400        0.054      347.544       26.589      866.442
08/27/2014  11:42:00      -32.171      -74.827        6.896       58.977       56.712       42.328     3478.300     3216.276     1791.668        0.758        0.424       81.450       31.395        0.149      347.382       26.311      866.441
08/27/2014  11:43:00      -90.528      -87.718       -3.225       59.703       31.553       32.378     3564.501      995.562     1048.366        1.075        0.280      126.054       29.323        0.054      347.357       26.268      866.437
08/27/2014  11:44:00      -89.869      -45.249      -13.179       29.846       22.964       11.669      890.784      527.347      136.160        0.593        0.078      100.617        7.403        0.005      347.025       25.695      866.430
08/27/2014  11:45:00      -41.349      -31.304       -5.964       18.804       24.447       14.193      353.584      597.665      201.434        0.194        0.058       51.862       15.793        0.093      347.279       26.133      866.424
08/27/2014  11:46:00      -12.045      -40.377       -4.676       47.560       48.737       28.738     2261.976     2375.256      825.894        0.363        0.273       42.136       28.440        0.456      347.837       27.098      866.419
08/27/2014  11:47:00        8.119      -15.203       24.110       59.194       37.717       33.297     3503.877     1422.535     1108.676        0.346        0.302       17.235       22.824        1.754      348.094       27.540      866.411
08/27/2014  11:48:00       32.845      -79.113       28.402       65.049       91.152       62.204     4231.323     8308.611     3869.364        1.227        0.820       85.660       47.258        0.304      348.213       27.745      866.395
08/27/2014  11:49:00       23.405     -149.379       -4.389       43.005       56.512       37.181     1849.457     3193.649     1382.402        1.465        0.321      151.202       24.656        0.027      347.457       26.439      866.412
08/27/2014  11:50:00       -0.283      -58.105       18.957       29.089       75.022       33.889      846.195     5628.277     1148.465        0.568        0.381       58.106       41.434        0.508      348.107       27.563      866.394
08/27/2014  11:51:00       10.649      -29.277       30.002       36.537       52.945       27.473     1334.918     2803.140      754.785        0.338        0.245       31.154       16.196        0.270      348.321       27.933      866.390
08/27/2014  11:52:00      -34.774      -75.511       18.732       45.114       49.792       40.281     2035.258     2479.236     1622.542        0.670        0.307       83.134       26.863        0.104      347.889       27.186      866.373
08/27/2014  11:53:00        4.826       42.430       46.373       54.284       52.672       48.673     2946.748     2774.373     2369.065        0.603        0.405       42.703       36.802        0.743      347.811       27.051      866.371
08/27/2014  11:54:00        8.371      -38.141       24.802       46.194       45.681       28.993     2133.884     2086.725      840.584        0.360        0.253       39.048       17.925        0.211      348.140       27.618      866.358
08/27/2014  11:55:00       34.120      -25.890       19.031       52.685       69.061       42.349     2775.748     4769.432     1793.459        0.577        0.467       42.831       42.413        0.981      348.086       27.527      866.352
08/27/2014  11:56:00      101.144      -63.221       28.494       66.906      125.129       49.468     4476.448    15657.293     2447.106        1.881        1.129      119.277       59.757        0.251      347.841       27.100      866.326
08/27/2014  11:57:00       80.109      -87.523      -11.510       90.763      138.876       57.554     8237.966    19286.611     3312.516        2.252        1.542      118.650       73.469        0.383      347.813       27.052      866.319
08/27/2014  11:58:00       63.392     -151.987       24.849       69.182      136.994       82.447     4786.138    18767.348     6797.469        2.904        1.518      164.678      100.570        0.373      347.658       26.785      866.325
08/27/2014  11:59:00       45.307        8.232       72.083       58.050      119.866       73.161     3369.827    14367.915     5352.593        1.520        1.155       46.049       84.558        3.372      347.870       27.153      866.326
08/27/2014  12:00:00      150.405     -104.399        7.965      104.909      167.250       94.754    11005.963    27972.694     8978.237        4.076        2.398      183.087      126.637        0.478      347.677       26.815      866.318
08/27/2014  12:01:00       51.977      103.164      146.700       95.251       93.349       54.361     9072.831     8713.950     2955.114        2.780        1.037      115.518       60.615        0.275      347.842       27.103      866.302
08/27/2014  12:02:00      -90.427     -158.374       -2.537       70.343       95.256       42.757     4948.136     9073.628     1828.191        2.455        0.792      182.371       45.556        0.062      347.662       26.792      866.314
08/27/2014  12:03:00      -60.850     -107.886      -12.836       57.062       69.625       40.160     3256.019     4847.617     1612.852        1.261        0.486      123.863       30.413        0.060      347.896       27.198      866.318
08/27/2014  12:04:00      -14.758      -90.559       -3.742       89.233       73.071       49.045     7962.451     5339.442     2405.373        1.207        0.785       91.754       41.755        0.207      347.800       27.032      866.317
08/27/2014  12:05:00       57.096     -103.822        2.327       68.792       77.150       61.848     4732.405     5952.169     3825.215        1.427        0.725      118.486       62.425        0.278      347.916       27.231      866.315
08/27/2014  12:06:00       48.348      -96.216        6.084       61.992       79.833       47.816     3842.978     6373.254     2286.376        1.206        0.625      107.680       44.331        0.169      347.760       26.962      866.304
08/27/2014  12:07:00       56.175     -110.472        7.636       49.177       69.812       55.815     2418.339     4873.675     3115.363        1.291        0.520      123.934       42.924        0.120      347.822       27.071      866.288
08/27/2014  12:08:00       91.014     -141.837      -16.542      101.175       86.608       66.965    10236.335     7500.961     4484.320        2.544        1.111      168.527       67.734        0.162      347.951       27.291      866.282
08/27/2014  12:09:00      -15.305     -150.553      -18.056       76.692       55.858       44.914     5881.648     3120.160     2017.255        1.712        0.551      151.329       40.308        0.071      347.643       26.760      866.296
08/27/2014  12:10:00      -53.973      -97.335      -13.292       13.939       33.560       14.992      194.295     1126.263      224.748        0.705        0.077      111.298       10.825        0.009      347.224       26.040      866.294
08/27/2014  12:11:00      -14.846      -39.060        0.386       32.872       18.338       18.147     1080.563      336.273      329.297        0.175        0.087       41.786       13.735        0.108      347.552       26.605      866.301
08/27/2014  12:12:00       -2.973        1.410       31.806       19.852       25.389       17.337      394.086      644.597      300.585        0.118        0.067        3.291       13.438       16.676      348.874       28.888      866.308
08/27/2014  12:13:00        6.521       51.271       10.122       25.787       47.858       29.948      664.958     2290.356      896.890        0.331        0.193       51.684       32.119        0.386      348.338       27.963      866.292
08/27/2014  12:14:00       12.622        4.598       17.076       46.088       48.024       27.992     2124.124     2306.338      783.534        0.284        0.261       13.434       20.010        2.219      348.482       28.211      866.276
08/27/2014  12:15:00       13.219      -17.500       26.716       58.519       71.649       41.282     3424.516     5133.538     1704.170        0.573        0.513       21.932       36.645        2.792      348.552       28.332      866.273
08/27/2014  12:16:00      -17.343      -16.962       45.462       51.527       68.620       45.758     2655.014     4708.670     2093.771        0.605        0.473       24.258       39.564        2.660      348.470       28.190      866.262
08/27/2014  12:17:00       15.999       81.877       57.573       48.542       40.145       42.394     2356.371     1611.602     1797.271        0.802        0.288       83.426       24.443        0.086      348.178       27.685      866.264
08/27/2014  12:18:00       92.490       52.413       23.146       78.835       48.742       41.276     6215.028     2375.736     1703.749        1.106        0.515      106.309       27.013        0.065      347.854       27.125      866.260
08/27/2014  12:19:00      -15.872      145.738       -3.359       50.122       72.186       48.446     2512.205     5210.819     2347.011        1.578        0.504      146.600       45.165        0.095      347.864       27.140      866.268
08/27/2014  12:20:00      -42.515       56.715       17.633       34.183       49.747       34.262     1168.471     2474.805     1173.912        0.508        0.241       70.881       28.387        0.160      348.178       27.685      866.267
08/27/2014  12:21:00      -86.411       49.388       -7.464       50.404       33.319       33.075     2540.612     1110.143     1093.957        0.735        0.237       99.529       32.705        0.108      347.759       26.960      866.258
08/27/2014  12:22:00      -55.501      123.613        1.717       39.377       81.750       36.074     1550.540     6683.029     1301.321        1.395        0.477      135.501       16.109        0.014      348.122       27.587      866.264
08/27/2014  12:23:00      -55.905       82.366       -1.240       41.995       51.873       35.063     1763.561     2690.761     1229.400        0.780        0.284       99.546       29.452        0.088      347.976       27.334      866.259
08/27/2014  12:24:00      -69.422       86.940       -3.880       41.070       51.425       34.612     1686.714     2644.519     1197.982        0.896        0.276      111.256       21.340        0.037      347.872       27.157      866.253
08/27/2014  12:25:00      -43.972       32.076       -0.202       58.182       27.381       33.295     3385.121      749.704     1108.524        0.410        0.262       54.428       28.793        0.280      347.894       27.194      866.245
08/27/2014  12:26:00       -4.933      133.520        5.569       38.888       94.570       39.966     1512.247     8943.449     1597.270        1.497        0.603      133.611       44.739        0.112      348.044       27.454      866.215
08/27/2014  12:27:00        8.687      229.920      -22.121       39.897       41.695       31.021     1591.755     1738.462      962.279        2.886        0.215      230.084       24.785        0.012      347.730       26.908      866.205
08/27/2014  12:28:00       41.107       91.031       -3.185       60.071       71.400       40.546     3608.484     5097.996     1644.004        1.017        0.518       99.882       36.501        0.134      348.129       27.601      866.195
08/27/2014  12:29:00       80.913      118.011        2.010       74.460       84.452       52.282     5544.248     7132.203     2733.364        1.794        0.770      143.086       45.929        0.103      347.929       27.252      866.181
08/27/2014  12:30:00       37.925      163.154      -14.419       61.563       50.617       35.816     3789.986     2562.075     1282.765        1.795        0.382      167.503       23.976        0.020      347.793       27.019      866.192
08/27/2014  12:31:00       87.343      118.010      -10.898       49.636       53.006       39.523     2463.731     2809.670     1562.092        1.425        0.342      146.816       32.286        0.048      347.792       27.018      866.186
08/27/2014  12:32:00      -19.645      104.407      -11.847       67.195       69.213       34.394     4515.134     4790.508     1182.919        1.096        0.524      106.240       35.153        0.109      347.869       27.151      866.164
08/27/2014  12:33:00      -66.370       64.730       -4.701       86.384       36.693       27.939     7462.128     1346.395      780.592        0.910        0.479       92.708       23.007        0.062      347.634       26.745      866.161
08/27/2014  12:34:00      183.416      100.202       29.157       58.187       43.418       42.572     3385.773     1885.120     1812.396        2.581        0.354      209.002       14.365        0.005      347.757       26.954      866.135
08/27/2014  12:35:00      195.729      120.121       24.654       60.553       49.616       41.553     3666.713     2461.711     1726.633        3.060        0.393      229.650       16.726        0.005      347.634       26.742      866.138
08/27/2014  12:36:00       72.485       40.998       22.877       48.717       45.784       38.183     2373.375     2096.148     1457.929        0.669        0.296       83.277       22.744        0.075      347.954       27.298      866.141
08/27/2014  12:37:00       59.846       81.232       75.855       70.217       62.081       39.501     4930.412     3854.096     1560.355        1.314        0.517      100.897       38.957        0.149      348.407       28.080      866.127
08/27/2014  12:38:00       57.808       48.236       47.484       87.409       69.257       55.669     7640.361     4796.490     3099.017        1.173        0.777       75.289       32.103        0.182      348.488       28.220      866.111
08/27/2014  12:39:00      163.256       34.965       36.439      125.735       92.465       54.378    15809.204     8549.698     2956.923        2.825        1.366      166.959       45.440        0.074      348.186       27.698      866.102
08/27/2014  12:40:00      259.313       97.762       15.381      111.667       87.581       75.064    12469.467     7670.355     5634.671        5.140        1.289      277.130       44.828        0.026      347.957       27.297      866.074
08/27/2014  12:41:00      105.865       92.651       58.031       79.222       90.675       73.687     6276.184     8221.977     5429.775        2.154        0.996      140.683       51.477        0.134      348.529       28.289      866.075
08/27/2014  12:42:00      228.661      159.871       81.781       76.246       63.121       79.241     5813.391     3984.276     6279.183        5.030        0.804      279.007       44.873        0.026      347.980       27.338      866.072
08/27/2014  12:43:00      170.022      112.547       57.634       86.466       85.763       62.255     7476.287     7355.337     3875.743        3.180        0.935      203.898       45.460        0.050      347.692       26.843      866.054
08/27/2014  12:44:00      212.777      118.100       44.213      114.850       90.394       64.524    13190.603     8171.040     4163.334        4.335        1.276      243.355       46.245        0.036      347.953       27.293      866.040
08/27/2014  12:45:00      272.122      163.994       55.689      112.102       82.649       84.635    12566.901     6830.835     7163.038        6.530        1.328      317.718       66.647        0.044      348.002       27.377      866.013
08/27/2014  12:46:00      239.563      133.128       52.239      119.523       92.958       98.789    14285.715     8641.233     9759.316        5.526        1.634      274.069       82.499        0.091      347.943       27.276      866.002
08/27/2014  12:47:00      247.436      162.822       43.492       76.016       68.575       62.964     5778.502     4702.513     3964.403        5.203        0.722      296.202       39.065        0.017      347.747       26.937      866.013
08/27/2014  12:48:00      269.562      156.580       31.223      110.951       83.162       77.598    12310.037     6915.966     6021.395        6.170        1.262      311.739       36.551        0.014      347.780       26.994      866.005
08/27/2014  12:49:00      199.115      144.580       18.267       78.625       60.322       60.259     6181.813     3638.760     3631.139        3.717        0.673      246.069       32.753        0.018      347.809       27.044      866.005
08/27/2014  12:50:00       84.129       62.232       17.578       56.078       46.745       52.184     3144.754     2185.083     2723.132        0.965        0.403      104.645       34.447        0.108      347.845       27.109      866.001
08/27/2014  12:51:00       35.786       51.747        5.608       45.905       77.833       37.906     2107.285     6057.980     1436.862        0.679        0.480       62.916       29.695        0.223      347.981       27.345      865.992
08/27/2014  12:52:00      -46.615      121.154       -4.821       70.015       86.742       46.358     4902.046     7524.178     2149.088        1.572        0.729      129.812       49.027        0.143      348.059       27.479      865.975
08/27/2014  12:53:00      -57.953      231.862      -35.217       56.282       61.859       36.936     3167.632     3826.595     1364.252        3.336        0.418      238.994       25.878        0.012      347.708       26.870      865.975
08/27/2014  12:54:00       44.200       65.485        9.648       71.170       69.068       46.531     5065.115     4770.448     2165.091        0.917        0.600       79.006       39.616        0.251      347.984       27.349      865.982
08/27/2014  12:55:00       79.063       77.647       41.994       69.797       44.337       50.374     4871.576     1965.740     2537.574        1.171        0.469      110.815       46.456        0.176      348.437       28.132      865.984
08/27/2014  12:56:00      101.226       37.945       12.926       74.734       51.946       46.169     5585.201     2698.373     2131.563        1.113        0.521      108.104       37.009        0.117      348.247       27.804      865.981
08/27/2014  12:57:00       16.719      122.343       -3.501       42.138       64.987       32.755     1775.580     4223.331     1072.882        1.116        0.354      123.480       30.755        0.062      348.111       27.570      865.987
08/27/2014  12:58:00      -16.673      124.624       -6.943       23.771       39.767       26.764      565.038     1581.442      716.291        0.936        0.143      125.734       16.603        0.017      348.145       27.629      865.968
08/27/2014  12:59:00      -22.912      152.380      -12.746       35.526       61.174       29.503     1262.118     3742.260      870.436        1.489        0.294      154.093       29.252        0.036      347.927       27.252      865.956
08/27/2014  13:00:00      -25.180       67.948        9.185       33.405       62.541       35.996     1115.919     3911.377     1295.694        0.583        0.316       72.464       38.889        0.288      348.455       28.165      865.944
08/27/2014  13:01:00      109.764       78.546       13.715       88.406       64.043       32.366     7815.603     4101.486     1047.548        1.568        0.648      134.972       33.137        0.060      348.077       27.510      865.946
08/27/2014  13:02:00      110.404       78.354       25.212       67.132       52.411       48.395     4506.642     2746.890     2342.080        1.428        0.480      135.382       46.667        0.119      347.913       27.227      865.940
08/27/2014  13:03:00       -8.141       25.075        2.079       46.033       23.801       23.791     2118.995      566.483      566.012        0.197        0.163       26.364       10.738        0.166      348.253       27.816      865.907
08/27/2014  13:04:00       99.806       76.074       34.622       62.224       52.915       41.343     3871.874     2800.044     1709.280        1.266        0.419      125.493       26.229        0.044      348.030       27.427      865.903
08/27/2014  13:05:00       40.462       -0.667        8.122       27.570       41.610       25.263      760.114     1731.407      638.210        0.242        0.156       40.468       15.150        0.140      348.014       27.402      865.900
08/27/2014  13:06:00       34.949      -49.664        9.597       34.960       40.227       34.425     1222.215     1618.231     1185.101        0.390        0.201       60.729       18.670        0.095      348.468       28.187      865.882
08/27/2014  13:07:00      -14.833      -47.790       17.443       35.460       28.186       23.799     1257.414      794.429      566.411        0.271        0.131       50.039       16.850        0.113      348.899       28.931      865.859
08/27/2014  13:08:00      -43.588      -20.714       -2.933       56.084       54.702       28.613     3145.410     2992.266      818.696        0.465        0.348       48.260       13.286        0.076      348.011       27.397      865.849
08/27/2014  13:09:00       25.125       68.057       78.051       38.148       51.455       48.416     1455.301     2647.653     2344.142        0.890        0.322       72.547       38.561        0.283      348.618       28.445      865.836
08/27/2014  13:10:00       34.690       28.632       55.150       47.028       75.287       49.591     2211.587     5668.087     2459.272        0.770        0.517       44.980       43.673        0.943      348.392       28.056      865.828
08/27/2014  13:11:00       46.987       58.789       80.154       69.941       69.850       45.176     4891.706     4878.985     2040.889        1.195        0.591       75.259       41.211        0.300      348.373       28.021      865.793
08/27/2014  13:12:00       49.982       69.200       87.565       67.109       67.157       46.520     4503.559     4510.011     2164.151        1.306        0.559       85.363       45.134        0.280      348.179       27.687      865.783
08/27/2014  13:13:00       23.390       31.955       54.302       41.512       39.793       32.083     1723.249     1583.447     1029.309        0.443        0.217       39.601       22.422        0.321      348.592       28.400      865.770
08/27/2014  13:14:00        7.877      145.697      -20.522       41.600       55.767       34.019     1730.542     3109.934     1157.267        1.385        0.300      145.910       28.507        0.038      348.208       27.737      865.755
08/27/2014  13:15:00       -1.435       99.901        4.649       33.028       47.213       37.568     1090.876     2229.074     1411.336        0.737        0.237       99.911       26.948        0.073      348.802       28.764      865.739
08/27/2014  13:16:00       54.445       66.465       53.945       59.609       53.511       51.742     3553.268     2863.401     2677.205        0.969        0.455       85.917       41.968        0.239      348.594       28.405      865.736
08/27/2014  13:17:00       94.378       86.872       51.720       34.515       38.521       52.259     1191.316     1483.866     2731.032        1.227        0.270      128.273       12.714        0.010      347.923       27.244      865.711
08/27/2014  13:18:00       24.476       31.737       -5.620       31.185       39.056       31.462      972.496     1525.380      989.845        0.256        0.174       40.079        4.512        0.013      348.438       28.134      865.699
08/27/2014  13:19:00       13.488       35.669        2.607       30.337       27.590       22.902      920.347      761.202      524.513        0.183        0.110       38.134       18.152        0.227      348.897       28.929      865.685
08/27/2014  13:20:00      -10.492      -21.639        6.314       28.610       31.201       22.969      818.506      973.511      527.565        0.147        0.116       24.049       13.146        0.299      349.008       29.121      865.665
08/27/2014  13:21:00      -17.278      -71.679       -3.454       53.297       81.191       39.692     2840.541     6591.925     1575.450        0.823        0.550       73.732       30.077        0.166      348.495       28.232      865.658
08/27/2014  13:22:00       58.944     -130.936      -21.021       60.559      101.466       40.400     3667.442    10295.346     1632.172        1.832        0.780      143.592       46.139        0.103      348.203       27.728      865.656
08/27/2014  13:23:00      -23.168       16.463       38.160       39.436       33.958       22.581     1555.201     1153.150      509.923        0.274        0.161       28.422       19.985        0.494      348.854       28.855      865.642
08/27/2014  13:24:00      -16.456      -56.785       11.396       55.022       59.775       38.083     3027.420     3573.038     1450.312        0.584        0.403       59.121       40.982        0.481      348.670       28.534      865.628
08/27/2014  13:25:00       41.030      -78.987      -24.270       40.703       53.627       37.874     1656.754     2875.847     1434.441        0.724        0.298       89.008       18.664        0.044      348.083       27.521      865.623
08/27/2014  13:26:00      -14.069        8.455       -1.600       17.363       14.246       17.617      301.462      202.956      310.371        0.054        0.041       16.414       12.193        0.552      348.818       28.793      865.611
08/27/2014  13:27:00      -11.565       13.526        5.803       22.879       23.566       23.014      523.451      555.369      529.647        0.098        0.080       17.796       14.704        0.683      348.951       29.023      865.596
08/27/2014  13:28:00        7.423       22.105       54.711       30.043       35.849       29.112      902.612     1285.124      847.502        0.329        0.152       23.318       22.753        0.952      349.379       29.764      865.583
08/27/2014  13:29:00       25.949       -3.118       40.502       39.190       64.128       44.389     1535.856     4112.378     1970.408        0.497        0.381       26.135       47.493        3.302      348.742       28.661      865.584
08/27/2014  13:30:00       47.302       20.658        9.561       60.758       62.407       34.282     3691.544     3894.675     1175.263        0.576        0.438       51.616        6.366        0.015      349.026       29.151      865.561
08/27/2014  13:31:00       39.640      -86.270       35.119       66.123      130.143       70.747     4372.200    16937.257     5005.170        1.828        1.316       94.941       86.905        0.838      349.121       29.317      865.539
08/27/2014  13:32:00       37.082      -97.312       28.073       73.968      109.267       50.616     5471.226    11939.352     2562.024        1.580        0.999      104.138       57.170        0.301      348.471       28.193      865.542
08/27/2014  13:33:00       94.596     -108.289       -9.683       83.849       83.075       57.955     7030.712     6901.500     3358.838        1.903        0.865      143.788       61.066        0.180      348.499       28.236      865.531
08/27/2014  13:34:00        0.345       13.521       23.152       52.538       47.642       27.120     2760.244     2269.779      735.514        0.324        0.288       13.526       24.723        3.341      348.507       28.253      865.503
08/27/2014  13:35:00       95.168       31.028       46.992       78.009      115.895       62.149     6085.327    13431.741     3862.516        1.780        1.169      100.098       49.428        0.244      348.813       28.783      865.489
08/27/2014  13:36:00      198.253       99.915      108.368      125.822      150.507      108.346    15831.087    22652.459    11738.804        5.562        2.511      222.007       86.792        0.153      348.560       28.340      865.465
08/27/2014  13:37:00       85.741       34.203       78.520      108.917       97.278       69.597    11862.896     9462.933     4843.794        2.042        1.308       92.311       70.896        0.590      348.760       28.691      865.448
08/27/2014  13:38:00       81.824       30.072       39.606       80.628      109.483       65.117     6500.843    11986.631     4240.182        1.594        1.136       87.175       53.055        0.370      348.920       28.967      865.429
08/27/2014  13:39:00      138.227     -134.662        2.721       90.873      113.971       56.586     8257.886    12989.452     3201.953        3.084        1.222      192.978       71.219        0.136      348.649       28.498      865.421
08/27/2014  13:40:00       92.388      -63.091       41.372       87.668      128.527       75.174     7685.641    16519.175     5651.084        2.204        1.493      111.875       91.213        0.665      348.650       28.499      865.409
08/27/2014  13:41:00      164.631     -176.163       15.020      112.654      144.734       77.065    12690.953    20948.064     5939.050        4.896        1.979      241.115       95.537        0.157      348.405       28.073      865.395
08/27/2014  13:42:00      128.996     -105.759       -6.696       71.968       89.072       44.524     5179.398     7933.761     1982.405        2.148        0.755      166.808       58.985        0.125      348.176       27.679      865.384
08/27/2014  13:43:00       16.915       13.757       41.165       56.223       62.054       36.345     3160.996     3850.664     1320.975        0.525        0.417       21.803       29.911        1.882      348.958       29.036      865.361
08/27/2014  13:44:00      -15.327       19.217       50.187       40.032       25.826       22.028     1602.541      667.004      485.247        0.294        0.138       24.580       16.641        0.458      349.242       29.527      865.334
08/27/2014  13:45:00       23.059        1.718       38.832       93.025       61.634       36.832     8653.648     3798.745     1356.627        0.792        0.690       23.123       44.996        3.787      349.182       29.421      865.326
08/27/2014  13:46:00      201.492       77.550       45.763      109.951      124.626       68.906    12089.274    15531.520     4747.986        4.053        1.618      215.901       50.989        0.056      348.687       28.562      865.311
08/27/2014  13:47:00      187.024      129.343      128.284      123.576      104.275       78.887    15271.081    10873.339     6223.188        5.026        1.618      227.393       69.947        0.095      348.719       28.618      865.288
08/27/2014  13:48:00      181.492      142.714      140.878      120.393      134.732       99.837    14494.442    18152.733     9967.477        5.788        2.131      230.882       89.664        0.151      348.464       28.173      865.267
08/27/2014  13:49:00      218.147      169.751       47.040      106.202       93.606       99.350    11278.902     8762.041     9870.455        5.426        1.496      276.411       83.026        0.090      348.171       27.669      865.284
08/27/2014  13:50:00       67.590       19.861       23.425       97.048       97.476       53.903     9418.334     9501.584     2905.554        1.366        1.091       70.447       26.700        0.144      348.744       28.663      865.266
08/27/2014  13:51:00      106.892     -113.129       21.637      113.558      117.847       63.575    12895.359    13887.902     4041.836        2.775        1.541      155.640       54.129        0.121      349.027       29.151      865.245
08/27/2014  13:52:00       69.293       56.561      117.080       84.894      170.131       99.029     7206.943    28944.569     9806.756        3.382        2.298       89.446      119.105        1.773      348.873       28.885      865.251
08/27/2014  13:53:00      136.053     -184.159      -12.679      131.430      139.455       72.095    17273.893    19447.627     5197.624        4.724        2.096      228.965       74.023        0.105      348.788       28.737      865.245
08/27/2014  13:54:00      106.629      -68.447       23.977       66.262      125.543       76.119     4390.588    15761.092     5794.167        2.128        1.297      126.707       84.044        0.440      348.695       28.577      865.269
08/27/2014  13:55:00       59.919      -56.062       21.975       56.121       87.403       54.024     3149.534     7639.259     2918.576        1.046        0.685       82.056       50.523        0.379      348.840       28.830      865.307
08/27/2014  13:56:00       54.604       -2.077       36.185       57.795       65.611       41.865     3340.208     4304.768     1752.674        0.684        0.470       54.643       32.739        0.359      348.858       28.861      865.307
08/27/2014  13:57:00       74.734       37.777       10.458       99.604       67.251       51.750     9920.943     4522.750     2678.103        1.212        0.856       83.740       36.412        0.189      348.865       28.870      865.301
08/27/2014  13:58:00       80.379       31.720       73.519       74.316      107.012       61.123     5522.909    11451.650     3736.003        1.679        1.036       86.411       58.687        0.461      348.829       28.810      865.310
08/27/2014  13:59:00       -3.967        5.775       58.262       34.286       64.950       49.645     1175.517     4218.464     2464.607        0.565        0.393        7.006       36.697       27.435      348.895       28.926      865.303
08/27/2014  14:00:00       15.490      -66.652       12.564       40.225       49.615       30.831     1618.085     2461.666      950.535        0.493        0.252       68.429       32.263        0.222      348.962       29.042      865.277
08/27/2014  14:01:00       72.021        5.801       46.324       81.814      135.720       61.765     6693.579    18419.784     3814.861        1.814        1.446       72.254       72.744        1.014      348.874       28.888      865.256
08/27/2014  14:02:00       12.169     -199.721       -0.033      106.580       88.069       59.873    11359.314     7756.207     3584.738        3.136        1.135      200.091       49.338        0.061      348.617       28.440      865.213
08/27/2014  14:03:00        5.132      -43.108       10.192       75.953       88.001       41.631     5768.835     7744.233     1733.176        0.861        0.762       43.412       46.616        1.153      349.035       29.167      865.196
08/27/2014  14:04:00       18.596       41.505       48.609       45.857       45.965       43.751     2102.866     2112.739     1914.116        0.528        0.306       45.481       44.924        0.976      349.196       29.447      865.216
08/27/2014  14:05:00      283.373      161.581       44.791      114.342       85.002       69.915    13073.986     7225.324     4888.108        6.680        1.259      326.203       64.085        0.039      348.498       28.233      865.202
08/27/2014  14:06:00      157.481       69.860       37.677       88.022       77.258       61.587     7747.894     5968.741     3793.003        2.430        0.875      172.281       29.997        0.030      348.766       28.699      865.204
08/27/2014  14:07:00       78.873       49.281       38.218       58.702       57.660       32.647     3445.938     3324.709     1065.826        0.897        0.392       93.003       30.152        0.105      348.892       28.920      865.194
08/27/2014  14:08:00      157.439       15.909        9.977       90.461      159.979       68.415     8183.231    25593.173     4680.571        3.179        1.923      158.241       39.916        0.064      348.707       28.595      865.167
08/27/2014  14:09:00      156.340      146.832       39.662      140.289       85.354       65.537    19680.948     7285.367     4295.116        3.941        1.563      214.481       57.377        0.072      348.740       28.655      865.181
08/27/2014  14:10:00       21.491      152.313      -14.906       56.062       87.998       37.730     3142.903     7743.563     1423.590        1.809        0.616      153.822       37.341        0.059      348.896       28.927      865.186
08/27/2014  14:11:00       90.211       80.128        5.307       73.279       69.109       50.439     5369.861     4776.098     2544.067        1.364        0.635      120.659       38.749        0.103      348.976       29.064      865.175
08/27/2014  14:12:00      204.660      148.123       19.146       69.243       54.643       59.563     4794.607     2985.904     3547.786        3.776        0.566      252.638       35.062        0.019      348.600       28.410      865.152
08/27/2014  14:13:00       86.049      141.234      -15.968       57.633       78.992       55.619     3321.555     6239.768     3093.507        2.013        0.633      165.383       49.844        0.091      348.550       28.325      865.143
08/27/2014  14:14:00       49.767      156.952      -13.463       48.876       99.571       51.565     2388.897     9914.319     2658.940        2.112        0.748      164.653       55.272        0.113      348.654       28.506      865.125
08/27/2014  14:15:00       -8.385      163.306      -18.817       54.839      100.055       40.000     3007.296    10010.972     1600.004        2.085        0.731      163.522       49.227        0.091      348.819       28.792      865.119
08/27/2014  14:16:00      -56.585      147.515      -33.202       44.562       77.380       26.249     1985.793     5987.632      689.036        1.736        0.433      157.996       16.433        0.011      348.614       28.438      865.114
08/27/2014  14:17:00      107.637       48.325       13.042       42.421       46.815       39.731     1799.579     2191.631     1578.572        0.983        0.278      117.988       30.816        0.068      348.748       28.672      865.095
08/27/2014  14:18:00       71.658       70.013        6.623       52.665       47.355       36.653     2773.613     2242.493     1343.478        0.822        0.318      100.183       30.674        0.094      348.621       28.450      865.082
08/27/2014  14:19:00       36.799      125.877       -7.478       47.510       66.082       36.403     2257.221     4366.870     1325.191        1.260        0.397      131.145       33.661        0.066      348.806       28.769      865.082
08/27/2014  14:20:00      -43.303      134.656       -7.109       62.565       71.502       41.448     3914.435     5112.579     1717.970        1.540        0.537      141.448       32.036        0.051      348.905       28.943      865.075
08/27/2014  14:21:00       42.835      105.006        8.720       65.181       67.493       47.260     4248.527     4555.282     2233.465        1.199        0.552      113.407       38.140        0.113      349.282       29.594      865.056
08/27/2014  14:22:00      182.158      107.840       -0.693      102.361       66.676       55.902    10477.863     4445.652     3125.011        3.143        0.902      211.686       33.378        0.025      348.773       28.711      865.062
08/27/2014  14:23:00      108.502       62.581        9.858       87.960       77.423       43.908     7736.997     5994.360     1927.878        1.572        0.783      125.256       28.364        0.051      348.720       28.621      865.066
08/27/2014  14:24:00      193.788      129.228       19.198       66.879       72.436       61.662     4472.795     5247.029     3802.221        3.407        0.676      232.925       29.605        0.016      348.681       28.551      865.058
08/27/2014  14:25:00      201.992      131.610       22.823       60.080       48.187       41.714     3609.623     2321.958     1740.066        3.316        0.384      241.085       23.414        0.009      348.580       28.376      865.061
08/27/2014  14:26:00      133.088      105.149       12.855       75.571       60.490       50.169     5711.039     3659.071     2516.906        2.041        0.594      169.614       34.471        0.041      348.878       28.893      865.048
08/27/2014  14:27:00       61.195       50.996       71.321      101.697       57.061       65.197    10342.359     3255.938     4250.627        1.464        0.892       79.658       36.991        0.216      349.294       29.615      865.043
08/27/2014  14:28:00       52.688       84.453       83.002       75.700       63.288       57.182     5730.520     4005.351     3269.747        1.490        0.650       99.540       42.086        0.179      348.961       29.039      865.023
08/27/2014  14:29:00       14.218        1.845       32.476       37.313       68.357       40.706     1392.290     4672.634     1656.954        0.449        0.386       14.338       40.472        7.968      349.177       29.414      865.006
08/27/2014  14:30:00       53.825       -4.477       30.770       61.270       48.382       34.142     3753.966     2340.798     1165.667        0.556        0.363       54.011       28.402        0.277      349.205       29.463      864.997
08/27/2014  14:31:00       21.435        3.371       59.318       66.097      120.997       70.948     4368.874    14640.309     5033.679        1.401        1.202       21.698       73.659       11.524      349.386       29.775      864.978
08/27/2014  14:32:00      140.527      116.522       80.567       97.363       80.370       85.018     9479.519     6459.286     7227.986        3.149        1.158      182.552       80.941        0.197      348.734       28.643      864.966
08/27/2014  14:33:00       71.729       70.770      110.639       77.911       87.943       57.962     6070.069     7733.950     3359.554        1.978        0.858      100.764       55.021        0.298      349.044       29.182      864.944
08/27/2014  14:34:00      130.556        2.940       15.229       66.164      126.269       44.379     4377.678    15943.941     1969.471        1.978        1.115      130.589       49.450        0.143      348.825       28.802      864.962
08/27/2014  14:35:00       70.996     -134.002       -8.700       63.220       53.431       45.303     3996.762     2854.867     2052.333        1.599        0.445      151.647       45.603        0.090      348.936       28.995      864.939
08/27/2014  14:36:00       95.358       78.800       44.080      104.791       49.356       52.725    10981.252     2435.989     2779.897        1.672        0.810      123.704       38.657        0.098      349.161       29.386      864.934
08/27/2014  14:37:00       56.012       48.089       35.359       62.291       52.348       56.489     3880.127     2740.268     3191.031        0.825        0.491       73.823       47.826        0.420      349.135       29.340      864.925
08/27/2014  14:38:00       66.707       20.124       44.657       56.860       45.341       40.092     3233.087     2055.836     1607.345        0.687        0.345       69.677       31.460        0.204      348.798       28.758      864.918
08/27/2014  14:39:00       94.128     -154.191      -12.517       68.552       93.823       45.599     4699.364     8802.695     2079.306        2.418        0.779      180.651       52.762        0.085      348.831       28.813      864.897
08/27/2014  14:40:00       19.083      -25.960       25.561       52.638       70.766       43.588     2770.708     5007.833     1899.933        0.568        0.484       32.219       43.207        1.798      348.865       28.873      864.877
08/27/2014  14:41:00       13.859       15.440       57.604       51.001       99.943       61.985     2601.107     9988.508     3842.091        1.009        0.822       20.748       73.351       12.499      349.211       29.472      864.851
08/27/2014  14:42:00       14.337      -30.549       36.729       52.672       88.983       53.590     2774.352     7917.934     2871.848        0.802        0.678       33.746       58.795        3.035      349.186       29.430      864.832
08/27/2014  14:43:00       -7.753      -81.635      -16.309       63.876       65.096       46.856     4080.144     4237.435     2195.500        0.875        0.526       82.002       38.603        0.222      349.217       29.484      864.831
08/27/2014  14:44:00      -20.739        3.631       13.096       55.540       35.926       31.987     3084.651     1290.710     1023.149        0.301        0.270       21.054       23.290        1.224      349.402       29.806      864.799
08/27/2014  14:45:00       28.316      -47.699       -0.063       64.303       44.540       37.538     4134.819     1983.776     1409.110        0.530        0.376       55.471       34.534        0.388      349.186       29.429      864.795
08/27/2014  14:46:00      130.606      -11.329       91.442      119.908      175.858       90.669    14377.929    30925.899     8220.829        3.953        2.676      131.097      110.831        0.715      349.055       29.198      864.777
08/27/2014  14:47:00       66.816       72.372       79.292       73.002      113.182       82.089     5329.340    12810.056     6738.533        2.043        1.244       98.499       88.320        0.804      348.820       28.794      864.798
08/27/2014  14:48:00       41.737       39.853       35.211       55.167       85.498       51.342     3043.405     7309.981     2635.957        0.878        0.649       57.708       27.665        0.230      349.086       29.256      864.785
08/27/2014  14:49:00       42.451      181.072      -13.538       61.136       87.786       50.761     3737.670     7706.322     2576.677        2.439        0.701      185.981       52.163        0.079      348.734       28.645      864.788
08/27/2014  14:50:00       53.581       81.561        4.210       58.990       51.920       42.848     3479.766     2695.725     1835.920        0.877        0.401       97.587       34.207        0.123      348.923       28.975      864.765
08/27/2014  14:51:00      142.332       91.803       16.977       61.958       55.023       50.126     3838.745     3027.522     2512.657        1.917        0.469      169.370       17.889        0.011      348.925       28.976      864.740
08/27/2014  14:52:00      112.642       86.930       24.900       94.163       97.650       65.217     8866.656     9535.455     4253.314        2.176        1.133      142.285       50.094        0.124      349.286       29.600      864.719
08/27/2014  14:53:00      291.870      211.965       19.806      124.212      101.071       86.109    15428.634    10215.332     7414.688        8.178        1.653      360.718       54.789        0.023      348.782       28.725      864.707
08/27/2014  14:54:00      171.428      120.267       42.841       86.492       83.861       74.865     7480.895     7032.695     5604.772        3.290        1.006      209.408       56.394        0.073      348.891       28.915      864.707
08/27/2014  14:55:00      201.125      157.905       22.581      117.673       84.164       75.769    13846.830     7083.510     5741.015        4.628        1.334      255.706       42.238        0.027      348.992       29.089      864.678
08/27/2014  14:56:00       52.438      107.584       -0.212       86.514       83.222       61.729     7484.634     6925.837     3810.426        1.627        0.911      119.683       46.121        0.149      349.233       29.511      864.708
08/27/2014  14:57:00       85.920      339.072      -35.231      108.549      164.914       84.915    11782.861    27196.519     7210.634        8.488        2.310      349.788       92.661        0.070      348.727       28.631      864.711
08/27/2014  14:58:00      -23.082      193.778      -30.891       46.147       91.674       41.195     2129.548     8404.098     1697.007        2.563        0.612      195.148       39.359        0.041      348.646       28.491      864.726
08/27/2014  14:59:00       47.506       47.979        7.871       36.691       29.240       34.809     1346.229      855.005     1211.701        0.402        0.171       67.519       28.026        0.172      348.978       29.069      864.679
08/27/2014  15:00:00      -27.777      222.040      -29.918       42.816       83.628       28.868     1833.238     6993.677      833.386        3.031        0.483      223.770       35.161        0.025      348.737       28.648      864.669
08/27/2014  15:01:00      -65.260      124.344       -5.835       66.317       72.789       40.121     4397.991     5298.191     1609.698        1.553        0.565      140.429       37.855        0.073      348.959       29.035      864.656
08/27/2014  15:02:00     -119.769      130.646      -17.928       57.524       75.511       45.663     3309.025     5701.918     2085.153        2.141        0.555      177.237       33.867        0.037      349.069       29.223      864.642
08/27/2014  15:03:00     -147.579       46.779      -12.624       69.254       52.402       36.655     4796.169     2746.007     1343.577        1.650        0.444      154.816       39.883        0.066      349.021       29.143      864.621
08/27/2014  15:04:00      -53.839      107.623       -4.115       37.431       87.047       36.609     1401.086     7577.173     1340.203        1.241        0.516      120.339       22.570        0.035      349.207       29.466      864.610
08/27/2014  15:05:00       42.967       47.006        3.998       62.787       38.775       38.365     3942.239     1503.512     1471.861        0.549        0.346       63.685       32.674        0.263      349.184       29.426      864.607
08/27/2014  15:06:00      198.101       95.052       34.405      117.721       79.590       57.684    13858.307     6334.607     3327.462        3.649        1.176      219.725       32.337        0.022      349.172       29.403      864.589
08/27/2014  15:07:00      167.888       86.644       25.199       96.039       76.116       58.704     9223.470     5793.708     3446.119        2.739        0.923      188.928       51.811        0.075      349.296       29.618      864.557
08/27/2014  15:08:00       29.806      206.108      -28.890       60.774       57.564       34.181     3693.468     3313.626     1168.329        2.619        0.409      208.252       30.376        0.021      348.978       29.065      864.574
08/27/2014  15:09:00      121.946      217.938       -9.739      175.433       98.548       59.292    30776.700     9711.784     3515.507        5.322        2.200      249.735       62.123        0.062      348.986       29.079      864.567
08/27/2014  15:10:00      185.535      166.968        1.235      129.116       87.602       61.573    16670.965     7674.119     3791.250        4.521        1.407      249.603       44.122        0.031      348.746       28.664      864.582
08/27/2014  15:11:00      -21.011      144.874       -4.898       65.036       57.903       41.114     4229.673     3352.788     1690.391        1.536        0.464      146.390       28.989        0.039      348.934       28.992      864.582
08/27/2014  15:12:00       80.172      144.303      -16.326       82.459       73.078       47.823     6799.505     5340.368     2287.001        2.097        0.721      165.079       43.985        0.071      348.883       28.901      864.574
08/27/2014  15:13:00       88.340       71.149       10.037       52.425       49.344       37.223     2748.399     2434.824     1385.558        0.977        0.328      113.429       29.539        0.068      348.826       28.806      864.560
08/27/2014  15:14:00       57.322       67.866        7.984       56.457       45.558       33.313     3187.393     2075.503     1109.750        0.716        0.319       88.835       25.583        0.083      348.961       29.040      864.535
08/27/2014  15:15:00       80.179       59.629       12.598       59.742       40.092       31.130     3569.073     1607.380      969.080        0.814        0.307       99.921       28.180        0.080      348.863       28.870      864.520
08/27/2014  15:16:00       77.187       55.353       22.612       47.493       31.238       38.173     2255.602      975.827     1457.151        0.711        0.234       94.983       14.789        0.024      348.890       28.917      864.513
08/27/2014  15:17:00       16.971      103.269      -27.374       40.957       85.718       41.006     1677.449     7347.494     1681.484        1.120        0.535      104.654       47.402        0.205      348.881       28.900      864.491
08/27/2014  15:18:00      157.961       78.329       52.813       80.048       52.054       51.896     6407.648     2709.598     2693.179        2.284        0.591      176.316       39.688        0.051      349.006       29.116      864.468
08/27/2014  15:19:00      126.138       71.408       15.829       81.212       57.203       55.355     6595.342     3272.203     3064.124        1.709        0.647      144.948       32.213        0.049      349.291       29.611      864.427
08/27/2014  15:20:00      197.006      108.439       36.581       92.250       81.964       68.430     8510.146     6718.120     4682.712        3.591        0.996      224.878       46.378        0.043      349.307       29.635      864.409
08/27/2014  15:21:00      250.028       87.690       29.406      116.870       93.950       80.219    13658.660     8826.518     6435.008        4.999        1.446      264.960       53.438        0.041      349.165       29.390      864.399
08/27/2014  15:22:00      146.072      125.358       23.773       69.299       66.437       52.015     4802.325     4413.919     2705.597        2.477        0.596      192.488       32.794        0.029      349.304       29.631      864.413
08/27/2014  15:23:00      123.687       80.593       16.829       84.114       55.702       41.523     7075.084     3102.696     1724.188        1.699        0.595      147.627       27.856        0.036      349.548       30.055      864.420
08/27/2014  15:24:00       86.792       73.863       61.493       97.834       62.170       58.359     9571.543     3865.050     3405.828        1.680        0.842      113.967       53.104        0.217      349.558       30.071      864.415
08/27/2014  15:25:00      209.637      134.102       19.560       98.700       58.655       66.862     9741.667     3440.413     4470.527        3.998        0.883      248.859       46.364        0.035      349.079       29.240      864.397
08/27/2014  15:26:00       70.277       78.110       37.929       61.070       43.078       39.885     3729.554     1855.688     1590.816        0.983        0.359      105.071       13.161        0.016      349.174       29.409      864.383
08/27/2014  15:27:00       27.392       19.527       14.613       44.616       30.929       28.296     1990.568      956.574      800.650        0.255        0.187       33.640       12.029        0.128      349.632       30.203      864.379
08/27/2014  15:28:00      -14.689      177.024       -9.684       75.799       87.641       40.592     5745.498     7680.941     1647.713        2.336        0.754      177.633       35.291        0.039      349.197       29.445      864.378
08/27/2014  15:29:00      202.400      105.514       31.025      130.481       99.611       62.444    17025.228     9922.429     3899.299        4.195        1.542      228.252       32.135        0.020      349.318       29.657      864.363
08/27/2014  15:30:00      113.779      151.688        8.012      115.432       91.114       65.625    13324.485     8301.739     4306.633        3.097        1.297      189.618       53.689        0.080      349.326       29.669      864.353
08/27/2014  15:31:00       97.711      146.254       14.060      101.623      100.348       81.294    10327.205    10069.735     6608.693        2.907        1.350      175.892       74.695        0.180      349.125       29.323      864.366
08/27/2014  15:32:00       58.365      137.685       -7.924       74.584       86.296       58.686     5562.781     7446.970     3444.100        1.944        0.823      149.545       56.094        0.141      349.150       29.365      864.373
08/27/2014  15:33:00      137.808      143.553        1.659       89.773       68.863       58.522     8059.153     4742.100     3424.801        2.791        0.811      198.994       41.910        0.044      348.889       28.911      864.371
08/27/2014  15:34:00      100.889       83.347        7.784       73.166       59.233       51.256     5353.217     3508.497     2627.208        1.434        0.574      130.863       38.613        0.087      348.907       28.946      864.356
08/27/2014  15:35:00       80.860      102.209       36.591       42.651       50.635       57.203     1819.073     2563.867     3272.232        1.299        0.383      130.327       23.617        0.033      348.897       28.927      864.333
08/27/2014  15:36:00       72.107       65.492       48.852       56.225       39.645       40.105     3161.267     1571.688     1608.436        0.911        0.317       97.409       24.866        0.065      349.114       29.304      864.333
08/27/2014  15:37:00      215.950      110.202       12.040       80.431       63.253       50.931     6469.207     4000.935     2593.959        3.599        0.653      242.443       38.035        0.025      348.923       28.969      864.334
08/27/2014  15:38:00       74.356       18.423       40.563       54.973       47.703       41.377     3022.021     2275.546     1712.071        0.726        0.350       76.604       17.070        0.050      349.062       29.214      864.314
08/27/2014  15:39:00       11.839      -27.295       35.968       41.577       51.109       35.463     1728.657     2612.152     1257.612        0.389        0.280       29.752       25.890        0.757      349.177       29.413      864.265
08/27/2014  15:40:00        4.374       33.312        3.548       21.257       37.477       19.089      451.859     1404.550      364.396        0.168        0.111       33.598       23.224        0.478      349.147       29.362      864.268
08/27/2014  15:41:00      -22.258       68.267      -16.879       23.484       35.809       16.011      551.520     1282.281      256.361        0.376        0.105       71.804       13.041        0.033      349.100       29.280      864.264
08/27/2014  15:42:00      -77.757       98.331      -27.196       67.981       59.622       27.383     4621.474     3554.761      749.825        1.269        0.446      125.360       35.791        0.082      349.130       29.330      864.265
08/27/2014  15:43:00       36.954       57.485      -11.107       23.705       45.873       31.965      561.909     2104.338     1021.760        0.424        0.184       68.338       22.011        0.104      349.080       29.246      864.236
08/27/2014  15:44:00       11.054      108.852        0.343       65.743       89.217       42.498     4322.159     7959.762     1806.058        1.303        0.704      109.412       43.994        0.162      349.183       29.423      864.215
08/27/2014  15:45:00     -129.210      126.925      -33.182       57.491       60.720       35.462     3305.193     3686.943     1257.536        2.108        0.412      181.122       24.713        0.019      349.189       29.431      864.216
08/27/2014  15:46:00      -27.495       64.863       17.769       46.292       49.044       35.395     2142.929     2405.315     1252.774        0.554        0.290       70.449       28.146        0.160      349.421       29.838      864.222
08/27/2014  15:47:00      -30.182      171.423       -2.968       59.868       85.897       37.542     3584.174     7378.324     1409.407        2.134        0.619      174.060       37.492        0.046      349.341       29.695      864.204
08/27/2014  15:48:00      -42.339      114.629       -1.396       49.325       74.654       31.438     2432.990     5573.160      988.339        1.196        0.450      122.198       33.189        0.074      349.297       29.622      864.182
08/27/2014  15:49:00      -34.413      185.997      -12.938       37.704       56.043       34.199     1421.579     3140.844     1169.545        2.084        0.287      189.154       23.650        0.016      349.102       29.280      864.175
08/27/2014  15:50:00      -63.379       58.579      -14.447       32.890       28.410       22.886     1081.759      807.106      523.749        0.503        0.121       86.304       19.166        0.049      349.369       29.746      864.185
08/27/2014  15:51:00      -59.092       29.230        2.537       45.605       38.307       34.185     2079.848     1467.412     1168.639        0.453        0.236       65.926       35.361        0.288      349.411       29.819      864.182
08/27/2014  15:52:00       23.313       44.859        9.120       53.455       31.152       34.985     2857.406      970.418     1223.969        0.384        0.253       50.555       27.557        0.297      349.583       30.119      864.172
08/27/2014  15:53:00      -15.288      135.626       -6.604       49.181       84.296       39.785     2418.766     7105.878     1582.880        1.489        0.555      136.484       42.752        0.098      349.560       30.075      864.171
08/27/2014  15:54:00      -18.382      167.439      -24.237       41.029       90.147       23.548     1683.410     8126.473      554.497        1.966        0.518      168.445       29.319        0.030      349.073       29.230      864.181
08/27/2014  15:55:00       11.006      205.202      -25.061       54.368       80.633       34.276     2955.857     6501.644     1174.829        2.674        0.532      205.497       39.020        0.036      349.301       29.626      864.183
08/27/2014  15:56:00      -28.706      216.013      -32.204       37.781       66.068       35.959     1427.395     4364.996     1293.016        2.780        0.354      217.912       33.885        0.024      349.299       29.623      864.182
08/27/2014  15:57:00      -10.007      182.192      -23.023       37.146       47.602       23.656     1379.836     2265.911      559.625        1.901        0.210      182.467       22.891        0.016      349.076       29.237      864.165
08/27/2014  15:58:00       17.221       48.944       -6.320       39.907       28.750       22.342     1592.597      826.539      499.159        0.282        0.146       51.886       23.569        0.206      349.203       29.458      864.152
08/27/2014  15:59:00      113.168       71.501       15.872      104.382       58.566       55.966    10895.662     3429.996     3132.195        1.781        0.873      133.863       39.887        0.089      349.453       29.891      864.156
08/27/2014  16:00:00      214.550      175.987       14.133      153.689      108.110       77.422    23620.242    11687.762     5994.213        5.924        2.065      277.494       44.907        0.026      349.241       29.521      864.151
08/27/2014  16:01:00      169.528      106.646       60.184      145.903      104.072       78.229    21287.829    10831.079     6119.780        4.098        1.912      200.283       19.227        0.009      349.162       29.386      864.126
08/27/2014  16:02:00      181.563      123.878       21.830      112.212       90.411       65.152    12591.558     8174.188     4244.806        3.689        1.251      219.797       34.539        0.025      349.284       29.597      864.136
08/27/2014  16:03:00       52.751      166.758      -14.217       68.671      114.179       55.759     4715.775    13036.750     3109.017        2.582        1.043      174.902       59.857        0.117      349.249       29.536      864.142
08/27/2014  16:04:00      207.346      138.625        5.626      107.572       71.569       54.315    11571.840     5122.140     2950.099        4.094        0.982      249.418       32.872        0.017      349.108       29.292      864.136
08/27/2014  16:05:00      169.768      124.917       74.265      109.324       64.467       69.236    11951.826     4156.018     4793.626        3.542        1.045      210.774       70.573        0.112      349.273       29.576      864.124
08/27/2014  16:06:00      194.374      123.195       93.595      127.089       94.946       87.973    16151.731     9014.718     7739.237        4.731        1.645      230.127       74.700        0.105      349.370       29.744      864.097
08/27/2014  16:07:00      108.204       86.383       49.631       93.076       74.991       48.032     8663.147     5623.656     2307.117        1.911        0.830      138.456       39.775        0.083      349.142       29.352      864.104
08/27/2014  16:08:00       78.229       67.965       21.354      112.518       55.571       54.455    12660.286     3088.181     2965.383        1.495        0.936      103.630       33.332        0.103      349.241       29.524      864.114
08/27/2014  16:09:00      -11.927       99.056       22.778       34.835       65.515       42.485     1213.496     4292.163     1804.940        0.889        0.366       99.772       40.890        0.168      349.699       30.318      864.119
08/27/2014  16:10:00      -34.186       88.836       -2.684       42.936       57.933       32.237     1843.473     3356.252     1039.221        0.765        0.312       95.187       33.155        0.121      349.544       30.049      864.101
08/27/2014  16:11:00      -27.144       52.856       15.664       57.337       75.061       39.892     3287.550     5634.143     1591.381        0.714        0.526       59.418       43.346        0.532      349.582       30.116      864.080
08/27/2014  16:12:00     -178.057      -65.458      -17.382       44.551       68.300       31.438     1984.769     4664.828      988.324        2.196        0.382      189.708       26.103        0.019      349.225       29.496      864.057
08/27/2014  16:13:00      -53.545       59.492        1.934       55.082       29.414       29.217     3034.055      865.201      853.610        0.558        0.238       80.040       34.652        0.187      349.391       29.784      864.037
08/27/2014  16:14:00       28.818      -30.379       10.684       40.681       34.090       30.546     1654.935     1162.150      933.080        0.281        0.188       41.873       20.753        0.246      349.512       29.995      864.026
08/27/2014  16:15:00      -43.695      -15.064       13.953       57.433       48.260       29.118     3298.590     2329.060      847.854        0.440        0.324       46.219       19.383        0.176      349.715       30.347      864.010
08/27/2014  16:16:00     -168.302      -25.203      -16.354       68.179       58.582       38.584     4648.349     3431.799     1488.697        1.940        0.478      170.179       37.068        0.047      349.482       29.940      864.006
08/27/2014  16:17:00      -79.812       31.474       -7.557       56.589       83.516       30.806     3202.333     6974.841      948.999        0.927        0.556       85.793       28.887        0.113      349.268       29.571      864.004
08/27/2014  16:18:00       37.011       49.295       11.413       31.858       51.869       28.127     1014.922     2690.356      791.120        0.421        0.225       61.642       10.432        0.029      349.177       29.413      864.004
08/27/2014  16:19:00      -31.852       -9.027       20.063       74.135       48.006       31.173     5495.936     2304.591      971.737        0.513        0.439       33.106       44.501        1.807      349.592       30.133      863.989
08/27/2014  16:20:00      -66.303      -34.973       -8.781       47.503       29.892       22.028     2256.565      893.519      485.244        0.467        0.182       74.961       24.655        0.108      349.469       29.919      863.991
08/27/2014  16:21:00      -63.692       -9.516       12.146       82.569       40.292       27.360     6817.591     1623.466      748.569        0.674        0.459       64.399       35.252        0.300      349.701       30.322      863.974
08/27/2014  16:22:00      -88.689       -5.423       -4.925       42.567       34.639       25.196     1811.929     1199.878      634.824        0.578        0.182       88.854       24.408        0.075      349.530       30.025      863.974
08/27/2014  16:23:00       18.347       17.681       14.594       17.077       22.930       22.257      291.629      525.788      495.377        0.109        0.066       25.480       14.927        0.343      349.535       30.034      863.974
08/27/2014  16:24:00      -40.020       49.355        1.620       47.138       35.375       22.728     2221.981     1251.386      516.564        0.401        0.199       63.542       27.663        0.190      349.644       30.224      863.978
08/27/2014  16:25:00      -44.497      107.550      -10.730       49.224       78.142       33.750     2423.013     6106.248     1139.052        1.166        0.483      116.392       39.668        0.116      349.444       29.876      863.995
08/27/2014  16:26:00      -62.164      213.983      -25.365       52.038      119.634       44.690     2707.950    14312.374     1997.166        3.465        0.951      222.830       57.938        0.068      349.331       29.676      863.994
08/27/2014  16:27:00      -27.618      255.215      -39.248       51.043       74.078       28.412     2605.353     5487.523      807.255        3.817        0.445      256.705       32.403        0.016      349.140       29.346      863.988
08/27/2014  16:28:00      -26.782      220.151      -26.873       52.084       74.495       27.912     2712.722     5549.479      779.097        2.947        0.452      221.774       34.933        0.025      349.248       29.532      863.974
08/27/2014  16:29:00      -46.299      148.637       -6.251       71.032      100.590       45.811     5045.475    10118.364     2098.662        2.077        0.863      155.681       58.722        0.142      349.361       29.730      863.967
08/27/2014  16:30:00      -52.961      198.749      -28.944       59.553       77.742       39.893     3546.562     6043.829     1591.491        2.716        0.559      205.684       39.366        0.037      349.395       29.788      863.967
08/27/2014  16:31:00       43.949       69.527       -5.514       77.841       89.757       40.291     6059.208     8056.338     1623.377        1.126        0.787       82.253       33.985        0.171      349.547       30.052      863.969
08/27/2014  16:32:00       40.739       22.053        0.653       84.734       41.378       32.733     7179.924     1712.122     1071.451        0.605        0.498       46.325       14.827        0.102      349.539       30.042      863.973
08/27/2014  16:33:00       79.212       -0.388       16.856       57.950       33.973       30.229     3358.185     1154.150      913.796        0.599        0.271       79.213       24.927        0.099      349.315       29.653      863.981
08/27/2014  16:34:00       46.814        0.569       47.241       48.828       37.137       30.629     2384.188     1379.177      938.113        0.456        0.235       46.817       32.060        0.469      349.278       29.588      863.958
08/27/2014  16:35:00      111.086       62.970       57.692       82.841       61.052       58.779     6862.708     3727.392     3454.914        1.684        0.702      127.692       29.375        0.053      349.182       29.420      863.933
08/27/2014  16:36:00       57.130      138.782      -12.965       56.642      104.123       47.291     3208.323    10841.553     2236.421        1.949        0.814      150.081       45.818        0.093      349.309       29.640      863.948
08/27/2014  16:37:00      -39.415      137.398      -26.693       27.699       59.309       27.547      767.261     3517.583      758.821        1.309        0.252      142.940       16.470        0.013      349.229       29.502      863.948
08/27/2014  16:38:00      -58.185       62.407      -20.130       36.911       43.526       29.937     1362.424     1894.544      896.200        0.592        0.208       85.324       23.771        0.078      349.374       29.754      863.922
08/27/2014  16:39:00       79.014       57.712       26.943       84.170       59.080       51.492     7084.581     3490.408     2651.424        1.176        0.661       97.846       29.663        0.092      349.421       29.836      863.910
08/27/2014  16:40:00       89.214       35.524       26.263       70.015       37.485       40.212     4902.125     1405.148     1616.992        0.892        0.396       96.027       34.640        0.130      349.504       29.980      863.908
08/27/2014  16:41:00       92.620       34.872        4.324       62.561       56.544       41.261     3913.883     3197.209     1702.449        0.931        0.441       98.967       21.523        0.047      349.431       29.854      863.916
08/27/2014  16:42:00       32.444       86.799        4.286       58.638       43.244       37.321     3438.416     1870.079     1392.830        0.765        0.335       92.664       30.891        0.111      349.371       29.748      863.914
08/27/2014  16:43:00        9.842      120.667      -18.790       22.948       27.195       18.396      526.609      739.547      338.429        0.831        0.080      121.068       12.485        0.011      349.279       29.594      863.916
08/27/2014  16:44:00       -7.027      103.228       -2.345       24.386       32.546       23.633      594.656     1059.244      558.541        0.646        0.111      103.467       15.866        0.024      349.392       29.788      863.908
08/27/2014  16:45:00      -72.201       91.006      -24.624       36.733       45.937       22.005     1349.343     2110.253      484.230        0.902        0.197      116.168       20.202        0.030      349.355       29.722      863.903
08/27/2014  16:46:00        3.137       43.033        0.327       11.204       23.866       13.523      125.530      569.592      182.861        0.137        0.044       43.147        9.063        0.044      349.440       29.870      863.893
08/27/2014  16:47:00       -0.678      -13.762       -4.177       21.385       29.786       22.756      457.308      887.177      517.814        0.103        0.093       13.778       16.284        1.397      349.769       30.439      863.883
08/27/2014  16:48:00      -14.986      -34.339       16.644      121.485       58.092       31.406    14758.615     3374.624      986.339        1.040        0.956       37.467       37.467        1.000      349.485       29.947      863.872
08/27/2014  16:49:00     -132.012      -12.208      -14.854       59.362       73.343       22.721     3523.877     5379.204      516.265        1.361        0.471      132.576       22.874        0.030      349.627       30.194      863.862
08/27/2014  16:50:00      -97.085       56.043      -20.286       37.089       62.711       26.559     1375.602     3932.724      705.379        0.949        0.301      112.100       23.700        0.045      349.782       30.461      863.868
08/27/2014  16:51:00     -138.336       91.576      -34.892       45.061       42.184       31.184     2030.452     1779.526      972.417        1.676        0.239      165.901       25.588        0.024      349.416       29.827      863.868
08/27/2014  16:52:00     -138.122       70.694      -38.697       39.658       52.902       30.915     1572.790     2798.665      955.746        1.545        0.266      155.162       22.925        0.022      349.340       29.696      863.868
08/27/2014  16:53:00     -151.099       45.104      -38.031       42.549       74.925       30.717     1810.417     5613.800      943.541        1.734        0.418      157.688       34.795        0.049      349.376       29.756      863.860
08/27/2014  16:54:00     -116.093      -19.341        0.655       59.362       51.002       32.643     3523.874     2601.158     1065.566        1.052        0.360      117.693       30.187        0.066      349.593       30.135      863.861
08/27/2014  16:55:00      -26.429       52.316       -6.926       47.532       40.890       28.359     2259.324     1671.984      804.238        0.411        0.237       58.613       27.937        0.227      349.463       29.909      863.863
08/27/2014  16:56:00       44.583       47.294      -35.656       34.363       52.430       35.360     1180.833     2748.857     1250.337        0.534        0.259       64.995       23.488        0.131      349.424       29.842      863.860
08/27/2014  16:57:00       29.975      118.088      -14.991       34.788       53.641       24.814     1210.184     2877.398      615.724        0.988        0.235      121.833       20.323        0.028      349.386       29.776      863.858
08/27/2014  16:58:00      -29.931       53.500      -30.653       56.179       63.496       21.211     3156.048     4031.724      449.891        0.617        0.382       61.303       23.842        0.151      349.507       29.986      863.848
08/27/2014  16:59:00      -29.346       -6.699       15.725       49.457       27.895       27.157     2445.975      778.147      737.486        0.256        0.198       30.101       24.565        0.666      349.849       30.579      863.838
08/27/2014  17:00:00       51.868        2.836       26.183       58.048       33.325       27.930     3369.555     1110.568      780.112        0.432        0.263       51.945       27.983        0.290      349.452       29.891      863.843
08/27/2014  17:01:00       46.163       34.745       35.510       45.807       35.357       19.590     2098.270     1250.096      383.766        0.416        0.187       57.778       15.679        0.074      349.606       30.157      863.845
08/27/2014  17:02:00      111.535       63.588       24.977       48.844       44.832       33.574     2385.776     2009.902     1127.192        1.131        0.276      128.388       16.731        0.017      349.619       30.180      863.837
08/27/2014  17:03:00      108.288       67.376       14.520       76.307       58.636       41.948     5822.719     3438.217     1759.670        1.375        0.551      127.538       34.075        0.071      349.647       30.227      863.832
08/27/2014  17:04:00       38.606       61.656       27.372       70.937       48.625       42.824     5032.050     2364.423     1833.867        0.763        0.462       72.745       25.198        0.120      349.584       30.118      863.821
08/27/2014  17:05:00       61.858      164.972      -16.581       68.032       97.486       46.415     4628.324     9503.482     2154.366        2.380        0.814      176.187       35.628        0.041      349.481       29.939      863.830
08/27/2014  17:06:00       74.036       78.383        4.870       66.306       47.368       42.552     4396.533     2243.746     1810.689        1.005        0.423      107.821       34.736        0.104      349.637       30.209      863.827
08/27/2014  17:07:00      103.662       72.913       22.570       88.647       55.788       38.388     7858.233     3112.321     1473.662        1.451        0.622      126.736        9.014        0.005      349.598       30.142      863.831
08/27/2014  17:08:00      149.133      110.614        6.971       54.111       61.604       41.811     2928.038     3795.077     1748.121        2.150        0.424      185.677       16.223        0.008      349.443       29.872      863.816
08/27/2014  17:09:00       59.245       68.227        0.818       57.297       59.551       33.258     3282.990     3546.263     1106.095        0.805        0.397       90.360       28.102        0.097      349.565       30.086      863.811
08/27/2014  17:10:00       42.196       61.829        1.106       50.429       49.338       33.516     2543.069     2434.215     1123.346        0.585        0.305       74.856       29.318        0.153      349.592       30.132      863.811
08/27/2014  17:11:00      118.540      112.246        8.333       88.768       66.366       60.695     7879.783     4404.471     3683.915        2.134        0.798      163.251       33.941        0.043      349.418       29.829      863.815
08/27/2014  17:12:00      100.303      166.954       -7.907       81.844       89.652       51.058     6698.502     8037.545     2606.885        2.767        0.867      194.767       55.757        0.082      349.581       30.111      863.801
08/27/2014  17:13:00       82.888      160.018       -7.556       76.650       88.558       61.901     5875.255     7842.545     3831.781        2.504        0.877      180.212       56.729        0.099      349.521       30.007      863.807
08/27/2014  17:14:00       43.665      161.465      -17.197       84.513       84.566       51.478     7142.385     7151.478     2649.997        2.261        0.847      167.265       56.162        0.113      349.405       29.805      863.814
08/27/2014  17:15:00      -94.766      148.254      -27.243       41.987       42.718       27.586     1762.907     1824.833      760.995        1.802        0.217      175.954       22.584        0.016      349.423       29.838      863.806
08/27/2014  17:16:00     -144.801      128.608      -29.820       34.426       39.181       28.223     1185.153     1535.152      796.548        2.096        0.176      193.668       18.622        0.009      349.393       29.786      863.799
08/27/2014  17:17:00      -58.935       79.585       -3.017       43.696       53.361       35.579     1909.355     2847.384     1265.841        0.792        0.301       99.031       36.718        0.137      349.553       30.065      863.794
08/27/2014  17:18:00      -70.607       37.468       -5.413       65.274       26.448       27.792     4260.714      699.495      772.391        0.607        0.287       79.932       37.423        0.219      349.494       29.963      863.803
08/27/2014  17:19:00       95.589       67.324       26.408       79.471       59.174       26.264     6315.615     3501.563      689.803        1.244        0.525      116.918       13.389        0.013      349.543       30.047      863.804
08/27/2014  17:20:00      112.795       67.319        8.690       52.637       37.817       36.507     2770.647     1430.110     1332.796        1.143        0.277      131.356       20.623        0.025      349.527       30.020      863.788
08/27/2014  17:21:00       88.551       28.923       11.912       72.453       54.130       47.435     5249.422     2930.106     2250.083        0.962        0.521       93.155       12.767        0.019      349.574       30.101      863.787
08/27/2014  17:22:00       92.627       50.293       -0.339       55.262       45.595       28.018     3053.937     2078.891      785.009        0.851        0.296      105.400       16.658        0.025      349.743       30.395      863.788
08/27/2014  17:23:00       46.029       73.075      -11.639       36.947       61.480       26.792     1365.091     3779.731      717.803        0.673        0.293       86.363       23.492        0.074      349.566       30.088      863.785
08/27/2014  17:24:00       36.685       42.850        5.397       44.648       31.501       34.045     1993.427      992.342     1159.050        0.368        0.207       56.408       20.704        0.135      349.479       29.937      863.784
08/27/2014  17:25:00      -60.713      103.702      -29.214       37.342       57.571       20.844     1394.425     3314.438      434.457        1.022        0.257      120.168       13.928        0.013      349.452       29.891      863.782
08/27/2014  17:26:00      -64.744       13.857       -3.247       38.960       29.335       18.750     1517.857      860.564      351.579        0.356        0.136       66.210       17.629        0.071      349.853       30.587      863.782
08/27/2014  17:27:00      -70.706       27.593      -10.730       24.715       22.941       15.191      610.827      526.296      230.762        0.362        0.068       75.899        7.821        0.011      349.850       30.580      863.777
08/27/2014  17:28:00      -28.935       -0.359       -4.980       33.446       17.857       14.913     1118.617      318.863      222.407        0.126        0.083       28.938       15.593        0.290      349.636       30.210      863.773
08/27/2014  17:29:00        2.272        8.406       16.238       38.234       29.553       17.358     1461.872      873.388      301.315        0.149        0.132        8.707       19.537        5.034      349.713       30.345      863.777
08/27/2014  17:30:00       31.901      -24.635       20.460       22.381       18.726       13.402      500.900      350.652      179.619        0.154        0.052       40.306        8.391        0.043      349.323       29.666      863.774
08/27/2014  17:31:00       39.442       -2.957        6.252       23.356       18.842       19.305      545.485      355.014      372.686        0.144        0.064       39.552       14.362        0.132      349.253       29.546      863.772
08/27/2014  17:32:00       38.608       37.166       25.331       28.902       27.868       23.454      835.328      776.651      550.083        0.284        0.108       53.590       16.232        0.092      349.411       29.818      863.776
08/27/2014  17:33:00       38.370       16.202        6.467       32.784       34.803       25.117     1074.776     1211.251      630.866        0.235        0.146       41.651       11.308        0.074      349.424       29.842      863.778
08/27/2014  17:34:00      102.118       71.626       20.082       43.905       52.271       30.962     1927.618     2732.254      958.671        1.079        0.281      124.733       14.842        0.014      349.435       29.860      863.767
08/27/2014  17:35:00      106.907       72.286       32.573       50.578       53.163       35.287     2558.176     2826.272     1245.151        1.217        0.331      129.052       11.961        0.009      349.531       30.026      863.754
08/27/2014  17:36:00       52.400       68.773        2.238       46.537       24.072       28.549     2165.665      579.453      815.047        0.552        0.178       86.460       24.752        0.082      349.470       29.922      863.755
08/27/2014  17:37:00       79.128       45.824       -0.134       46.926       22.125       18.448     2202.015      489.505      340.346        0.570        0.152       91.439       17.212        0.035      349.488       29.953      863.743
08/27/2014  17:38:00       15.392        7.405       -0.011       20.686       15.796       15.038      427.898      249.517      226.144        0.060        0.045       17.080       12.757        0.558      349.745       30.399      863.723
08/27/2014  17:39:00       -3.765       30.289       -2.725       17.639       11.843       14.235      311.141      140.257      202.646        0.080        0.033       30.522       11.264        0.136      349.580       30.112      863.720
08/27/2014  17:40:00       22.489       35.460       -2.706       34.941       19.745       14.866     1220.854      389.849      220.990        0.180        0.092       41.991       13.140        0.098      349.622       30.185      863.715
08/27/2014  17:41:00       85.099       33.581       -2.432       25.120       20.953       19.949      631.003      439.013      397.964        0.492        0.073       91.485        6.897        0.006      349.638       30.213      863.708
08/27/2014  17:42:00       41.628       57.581        5.466       36.224       38.316       25.393     1312.156     1468.120      644.786        0.425        0.171       71.053       22.904        0.104      349.526       30.018      863.711
08/27/2014  17:43:00      -12.198       34.772       -2.531       17.998       44.932       20.820      323.944     2018.844      433.477        0.207        0.139       36.849        5.615        0.023      349.549       30.059      863.717
08/27/2014  17:44:00       39.767      -26.855       12.410       40.595       29.131       26.383     1647.931      848.588      696.056        0.282        0.160       47.985       21.332        0.198      349.755       30.415      863.711
08/27/2014  17:45:00       64.601       -6.548       27.109       36.806       22.272       27.474     1354.712      496.062      754.848        0.378        0.130       64.932       17.768        0.075      349.384       29.773      863.700
08/27/2014  17:46:00       34.277       10.231       11.796       40.299       35.506       20.205     1623.970     1260.656      408.228        0.236        0.165       35.772       15.109        0.178      349.540       30.043      863.698
08/27/2014  17:47:00       13.596      101.355       -8.144       30.176       59.616       23.751      910.606     3554.022      564.134        0.778        0.251      102.263       28.873        0.080      349.518       30.006      863.698
08/27/2014  17:48:00      -37.505      136.589      -26.196       36.991       29.960       17.961     1368.362      897.618      322.594        1.167        0.129      141.644       14.140        0.010      349.437       29.866      863.691
08/27/2014  17:49:00      -53.071      105.439      -11.181       36.261       38.785       26.785     1314.876     1504.246      717.436        0.880        0.177      118.042       21.501        0.033      349.541       30.046      863.695
08/27/2014  17:50:00       68.983      -63.520        6.911       27.602       34.557       25.477      761.876     1194.213      649.062        0.572        0.130       93.773       15.677        0.028      349.571       30.096      863.689
08/27/2014  17:51:00       16.996       38.055       21.029       28.118       31.515       20.760      790.622      993.204      430.986        0.220        0.111       41.678       11.153        0.072      349.411       29.821      863.690
08/27/2014  17:52:00       26.179       14.923       11.286       31.499       29.697       16.282      992.195      881.936      265.111        0.159        0.107       30.133       16.920        0.315      349.530       30.026      863.688
08/27/2014  17:53:00       42.291        7.827       19.798       18.202       28.812       17.695      331.296      830.109      313.120        0.186        0.074       43.009       13.881        0.104      349.227       29.501      863.695
08/27/2014  17:54:00       75.279       58.005       49.139       49.452       36.438       34.598     2445.463     1327.754     1196.997        0.821        0.249       95.034       19.947        0.044      349.357       29.726      863.697
08/27/2014  17:55:00       94.675        2.079       24.762       51.026       54.672       33.378     2603.616     2989.067     1114.109        0.814        0.335       94.697       26.956        0.081      349.450       29.887      863.706
08/27/2014  17:56:00       68.240      -48.714       21.086       28.395       25.604       28.788      806.282      655.590      828.776        0.488        0.115       83.844        7.365        0.008      349.523       30.014      863.699
08/27/2014  17:57:00       13.167      -32.940       -0.736       20.254       18.626       13.401      410.222      346.939      179.599        0.110        0.047       35.474        9.033        0.065      349.207       29.466      863.700
08/27/2014  17:58:00      -36.558       26.381      -10.789       43.992       42.755       15.596     1935.279     1827.980      243.249        0.308        0.200       45.083       17.748        0.155      349.509       29.990      863.707
08/27/2014  17:59:00      -70.541       69.025      -16.095       31.532       27.493       20.102      994.254      755.883      404.102        0.608        0.108       98.693       18.725        0.036      349.628       30.196      863.703
08/27/2014  18:00:00      -33.468       18.649       -4.977       17.351       23.668       12.109      301.072      560.198      146.632        0.125        0.050       38.313        5.758        0.023      349.654       30.240      863.687
08/27/2014  18:01:00       -3.509       18.242       11.540       19.179       24.700       14.969      367.822      610.101      224.073        0.084        0.060       18.576       15.376        0.685      349.813       30.519      863.673
08/27/2014  18:02:00       54.001        4.116        8.544       28.944       33.540       22.876      837.736     1124.964      523.302        0.275        0.124       54.157       16.118        0.089      349.435       29.860      863.668
08/27/2014  18:03:00       57.387     -104.064       -5.377       57.851       62.572       37.208     3346.717     3915.252     1384.411        1.140        0.432      118.838       38.350        0.104      349.494       29.962      863.654
08/27/2014  18:04:00       77.708     -132.133      -16.884       59.716       62.754       44.011     3566.038     3938.065     1937.001        1.661        0.472      153.289       35.295        0.053      349.494       29.963      863.633
08/27/2014  18:05:00      -10.346      -80.336        0.931       39.111       57.634       29.409     1529.709     3321.642      864.897        0.614        0.286       80.999       22.499        0.077      349.467       29.915      863.620
08/27/2014  18:06:00      -18.593        5.049        6.696       61.627       50.433       22.529     3797.892     2543.438      507.548        0.363        0.342       19.266        9.270        0.232      349.386       29.777      863.603
08/27/2014  18:07:00       -5.282       13.742       52.149       31.765       29.783       27.295     1009.012      887.038      745.027        0.279        0.132       14.722       21.757        2.184      349.282       29.595      863.607
08/27/2014  18:08:00       30.128       22.769       43.404       35.259       49.787       34.504     1243.198     2478.722     1190.502        0.411        0.246       37.764       32.483        0.740      349.154       29.374      863.608
08/27/2014  18:09:00       68.585       19.352       33.520       67.973      102.019       47.594     4620.329    10407.915     2265.201        1.174        0.865       71.263       59.148        0.689      349.313       29.649      863.596
08/27/2014  18:10:00      155.131       61.192       25.006       50.077       58.543       36.703     2507.715     3427.330     1347.141        1.786        0.364      166.763       30.621        0.034      349.359       29.728      863.590
08/27/2014  18:11:00       63.811       28.946       17.235       79.415       75.592       48.398     6306.808     5714.143     2342.340        0.978        0.718       70.069       28.829        0.169      349.386       29.775      863.587
08/27/2014  18:12:00      124.186       79.190       32.691       90.304       59.092       41.559     8154.754     3491.827     1727.142        1.807        0.669      147.286       42.914        0.085      349.422       29.836      863.581
08/27/2014  18:13:00      150.964       79.767       42.458       53.532       52.506       42.997     2865.674     2756.914     1848.720        1.921        0.374      170.742       25.474        0.022      349.443       29.875      863.581
08/27/2014  18:14:00       89.081       34.777       28.063       56.004       57.720       35.541     3136.422     3331.644     1263.184        0.883        0.387       95.629       28.507        0.089      349.342       29.700      863.567
08/27/2014  18:15:00       41.476       45.547       39.582       23.333       26.133       22.193      544.452      682.929      492.540        0.354        0.086       61.602       18.117        0.086      349.281       29.594      863.562
08/27/2014  18:16:00       82.129       32.869       27.803       66.782       46.226       32.422     4459.827     2136.887     1051.201        0.812        0.382       88.462       28.056        0.101      349.401       29.801      863.542
08/27/2014  18:17:00       82.787       62.412       37.212       86.704       71.245       36.034     7517.583     5075.885     1298.436        1.301        0.695      103.677       36.182        0.122      349.495       29.963      863.538
08/27/2014  18:18:00      164.719       94.251       29.906       44.535       41.013       24.650     1983.375     1682.053      607.604        2.059        0.214      189.778       14.167        0.006      349.419       29.832      863.535
08/27/2014  18:19:00      139.950       64.908       14.073       39.628       41.741       28.299     1570.401     1742.334      800.861        1.405        0.206      154.270        9.345        0.004      349.471       29.922      863.530
08/27/2014  18:20:00       32.931       56.969        2.568       29.832       54.965       32.480      889.966     3021.142     1054.974        0.465        0.248       65.803       19.210        0.085      349.332       29.682      863.527
08/27/2014  18:21:00       -9.278       45.274       -4.343       20.265       54.941       22.613      410.670     3018.558      511.325        0.305        0.197       46.215       29.503        0.408      349.470       29.922      863.526
08/27/2014  18:22:00       30.342      -25.450       20.233       39.036       26.710       27.200     1523.820      713.411      739.831        0.248        0.149       39.602       23.280        0.346      349.318       29.658      863.523
08/27/2014  18:23:00       30.042        3.598       26.411       37.671       32.548       35.897     1419.122     1059.365     1288.572        0.269        0.188       30.256       36.180        1.430      349.100       29.281      863.513
08/27/2014  18:24:00       46.359       50.501       71.323       41.961       53.552       30.549     1760.742     2867.845      933.250        0.767        0.278       68.553       36.586        0.285      349.242       29.526      863.516
08/27/2014  18:25:00       52.269      -52.778       14.197       43.494       52.009       38.660     1891.711     2704.935     1494.562        0.590        0.305       74.280       30.849        0.172      349.346       29.707      863.515
08/27/2014  18:26:00       38.791     -105.838      -10.614       36.149       55.039       16.061     1306.757     3029.301      257.940        0.871        0.230      112.723       11.626        0.011      349.425       29.843      863.512
08/27/2014  18:27:00      -74.255        1.531       -7.914       43.337       14.652       18.791     1878.139      214.679      353.099        0.401        0.122       74.270       21.585        0.084      349.672       30.272      863.501
08/27/2014  18:28:00      -51.676      -26.146       -1.391       35.902       44.461       21.564     1288.919     1976.799      465.022        0.354        0.187       57.914       27.060        0.218      349.678       30.282      863.502
08/27/2014  18:29:00       63.392        7.399       14.858       23.093       19.721       19.070      533.297      388.931      363.646        0.279        0.064       63.822       15.025        0.055      348.911       28.952      863.511
08/27/2014  18:30:00       89.448       61.439       -1.397       26.261       31.908       21.257      689.658     1018.090      451.849        0.697        0.108      108.516       16.222        0.022      349.279       29.591      863.516
08/27/2014  18:31:00       46.561       12.650        2.315       25.529       25.814       16.518      651.724      666.343      272.843        0.196        0.080       48.249        8.710        0.033      349.403       29.807      863.511
08/27/2014  18:32:00       60.609       41.287       12.015       29.179       23.385       19.326      851.400      546.852      373.477        0.365        0.089       73.335       12.101        0.027      349.373       29.754      863.508
08/27/2014  18:33:00       67.705       42.790       12.098       35.769       23.795       27.769     1279.419      566.223      771.135        0.459        0.131       80.093       18.590        0.054      349.406       29.810      863.501
08/27/2014  18:34:00       60.820       42.406        6.838       56.231       43.188       26.044     3161.886     1865.169      678.311        0.562        0.285       74.144       20.951        0.080      349.425       29.845      863.501
08/27/2014  18:35:00      117.764       80.233       14.447       29.926       35.309       31.561      895.544     1246.743      996.112        1.183        0.157      142.498       16.130        0.013      349.416       29.829      863.492
08/27/2014  18:36:00      119.934       63.379       13.778       25.201       40.930       21.554      635.085     1675.305      464.555        1.068        0.139      135.651       16.386        0.015      349.474       29.928      863.493
08/27/2014  18:37:00       30.754       17.653       10.466       29.057       38.019       29.859      844.308     1445.463      891.539        0.227        0.159       35.460       22.686        0.409      349.327       29.673      863.496
08/27/2014  18:38:00      102.708       71.268       15.702       58.225       39.706       34.179     3390.203     1576.566     1168.219        1.100        0.307      125.013       20.235        0.026      349.426       29.844      863.491
08/27/2014  18:39:00      124.224       88.756       26.328       50.305       51.587       37.572     2530.614     2661.244     1411.635        1.530        0.330      152.673       28.816        0.036      349.373       29.754      863.487
08/27/2014  18:40:00       74.466       50.001       20.175       33.543       38.702       26.715     1125.135     1497.877      713.710        0.589        0.167       89.695       11.175        0.016      349.417       29.829      863.483
08/27/2014  18:41:00      107.426       44.841       12.765       49.202       35.339       26.058     2420.858     1248.830      678.994        0.903        0.217      116.409       23.281        0.040      349.499       29.973      863.484
08/27/2014  18:42:00      109.587       58.358       19.331       15.566       17.880       17.015      242.304      319.691      289.507        0.832        0.043      124.157        8.470        0.005      349.469       29.916      863.472
08/27/2014  18:43:00       90.561       54.483       16.664       25.478       18.362       17.767      649.106      337.145      315.680        0.637        0.065      105.686        8.075        0.006      349.490       29.956      863.461
08/27/2014  18:44:00       60.078       33.284       22.406       32.046       25.855       26.072     1026.970      668.507      679.774        0.380        0.119       68.682       16.390        0.057      349.105       29.289      863.455
08/27/2014  18:45:00       58.654       28.000        8.009       24.871       20.479       26.729      618.561      419.396      714.447        0.302        0.088       64.995       10.281        0.025      349.097       29.275      863.452
08/27/2014  18:46:00       78.636       25.191       19.442       45.959       25.826       25.081     2112.206      666.984      629.073        0.530        0.170       82.572       23.143        0.079      349.347       29.708      863.447
08/27/2014  18:47:00       55.069       37.947       30.105       55.357       30.337       23.431     3064.367      920.339      549.008        0.496        0.227       66.877       25.929        0.150      349.347       29.709      863.447
08/27/2014  18:48:00       53.525       33.979        5.491       30.640       25.800       19.571      938.807      665.642      383.041        0.302        0.099       63.400       14.283        0.051      349.251       29.542      863.446
08/27/2014  18:49:00       57.745       41.388        8.196       44.394       33.485       16.872     1970.831     1121.238      284.655        0.424        0.169       71.045       17.240        0.059      349.326       29.671      863.451
08/27/2014  18:50:00       86.482       62.456       10.639       40.590       25.827       25.444     1647.586      667.050      647.401        0.723        0.148      106.676       20.632        0.037      349.394       29.789      863.456
08/27/2014  18:51:00       19.753       47.145       -3.011       24.346       34.039       21.478      592.722     1158.642      461.291        0.242        0.111       51.116       20.656        0.163      349.378       29.763      863.460
08/27/2014  18:52:00       24.669       44.450       -1.701       20.881       27.351       18.289      436.006      748.087      334.470        0.205        0.076       50.837       14.484        0.081      349.334       29.685      863.460
08/27/2014  18:53:00       45.848       20.530        9.475       24.226       25.564       18.667      586.890      653.520      348.444        0.210        0.079       50.235        6.154        0.015      349.161       29.385      863.468
08/27/2014  18:54:00       74.356       24.218       10.703       34.032       23.122       23.262     1158.182      534.637      541.101        0.423        0.112       78.201       12.948        0.027      349.083       29.251      863.476
08/27/2014  18:55:00       89.441       26.794       15.215       42.302       21.990       21.966     1789.492      483.552      482.509        0.585        0.138       93.368        6.037        0.004      349.263       29.564      863.477
08/27/2014  18:56:00       42.345        7.699       14.927       36.730       23.724       20.240     1349.064      562.842      409.662        0.220        0.116       43.040        7.912        0.034      349.160       29.386      863.487
08/27/2014  18:57:00       26.067        8.258        8.187       29.534       15.700       13.939      872.250      246.506      194.308        0.106        0.066       27.344        6.541        0.057      349.232       29.509      863.490
08/27/2014  18:58:00       80.421       57.633        5.884       39.475       34.863       24.551     1558.292     1215.430      602.747        0.660        0.169       98.940       21.976        0.049      349.269       29.573      863.497
08/27/2014  18:59:00       88.692       63.429       13.028       44.507       29.749       35.526     1980.889      884.975     1262.126        0.809        0.206      109.039       18.155        0.028      349.233       29.511      863.494
08/27/2014  19:00:00      117.573       80.703       17.354       55.094       42.826       34.169     3035.398     1834.093     1167.541        1.334        0.302      142.605       23.124        0.026      349.168       29.397      863.494
08/27/2014  19:01:00       95.130       75.504       16.789       78.794       49.554       39.646     6208.549     2455.637     1571.769        1.263        0.512      121.452       20.745        0.029      349.231       29.507      863.495
08/27/2014  19:02:00       70.821       61.415       16.453       52.771       39.896       28.393     2784.816     1591.728      806.135        0.712        0.259       93.742       22.122        0.056      349.193       29.441      863.495
08/27/2014  19:03:00       45.040       47.790       14.216       39.767       29.737       25.667     1581.392      884.298      658.788        0.382        0.156       65.670       21.450        0.107      349.183       29.424      863.485
08/27/2014  19:04:00       36.161       43.826        4.003       39.657       27.174       23.747     1572.653      738.414      563.917        0.306        0.144       56.818       20.108        0.125      349.202       29.456      863.485
08/27/2014  19:05:00       42.169       48.236        7.053       36.803       29.084       23.226     1354.476      845.860      539.456        0.345        0.137       64.070       15.187        0.056      349.176       29.411      863.488
08/27/2014  19:06:00       54.788       79.043        2.676       41.645       46.787       29.660     1734.310     2189.059      879.690        0.703        0.240       96.174       34.817        0.131      349.214       29.477      863.507
08/27/2014  19:07:00       20.483       49.885       -3.802       27.574       23.394       16.365      760.336      547.274      267.800        0.225        0.079       53.927       13.148        0.059      349.114       29.304      863.518
08/27/2014  19:08:00       37.152       28.984        2.317       25.148       20.037       14.263      632.440      401.493      203.440        0.173        0.062       47.120        7.394        0.025      349.108       29.293      863.533
08/27/2014  19:09:00       40.650       25.944       -3.066       17.888       15.102       13.603      319.990      228.076      185.053        0.153        0.037       48.224        9.465        0.039      349.047       29.188      863.540
08/27/2014  19:10:00       37.548       19.491        3.536       15.135       11.438        8.881      229.076      130.822       78.864        0.112        0.022       42.305        6.136        0.021      349.062       29.215      863.538
08/27/2014  19:11:00       41.500       22.825       12.867       13.788       11.818       13.170      190.115      139.657      173.443        0.146        0.025       47.363        8.675        0.034      349.056       29.202      863.544
08/27/2014  19:12:00       39.919       28.227       11.595       21.226       18.905       18.935      450.530      357.401      358.538        0.185        0.058       48.891       13.405        0.075      349.152       29.370      863.544
08/27/2014  19:13:00       46.240       29.979        7.163       32.786       19.313       17.228     1074.900      373.006      296.810        0.242        0.087       55.108       12.282        0.050      349.210       29.471      863.551
08/27/2014  19:14:00       31.263       19.866        2.981       21.150       14.669       10.383      447.309      215.168      107.801        0.108        0.039       37.041        7.000        0.036      349.169       29.400      863.564
08/27/2014  19:15:00       66.065       35.275       19.952       31.038       20.560       18.109      963.361      422.705      327.925        0.386        0.086       74.893       14.690        0.038      349.203       29.459      863.561
08/27/2014  19:16:00       16.890       16.447       10.976       18.339       13.892       14.595      336.330      192.985      213.020        0.071        0.037       23.575        5.318        0.051      349.130       29.331      863.559
08/27/2014  19:17:00       30.827       25.671       -0.770       18.351       16.685       14.523      336.747      278.384      210.906        0.122        0.041       40.116       10.872        0.073      349.035       29.168      863.569
08/27/2014  19:18:00       35.304       16.135        3.584       21.773       15.887       12.589      474.064      252.386      158.494        0.120        0.044       38.816        8.822        0.052      349.014       29.133      863.585
08/27/2014  19:19:00       14.454      -17.211       -0.922       23.569       14.760       12.296      555.506      217.866      151.181        0.072        0.046       22.475        5.187        0.053      348.477       28.201      863.583
08/27/2014  19:20:00       -0.082       19.573       -8.399       10.978       21.958        8.067      120.512      482.166       65.075        0.056        0.033       19.574       10.381        0.281      348.845       28.839      863.580
08/27/2014  19:21:00       19.140       13.880        0.272        9.637       11.109       10.949       92.869      123.419      119.877        0.045        0.017       23.643        6.373        0.073      348.770       28.707      863.572
08/27/2014  19:22:00       25.543       25.457        4.447       12.234       10.969       11.322      149.659      120.316      128.191        0.086        0.020       36.062        6.021        0.028      348.774       28.713      863.590
08/27/2014  19:23:00       29.246       11.832       13.395       26.391       15.139       12.532      696.480      229.192      157.053        0.113        0.054       31.549        8.075        0.066      348.440       28.138      863.596
08/27/2014  19:24:00       22.562       14.942        4.102       15.103       16.403       12.070      228.094      269.066      145.676        0.070        0.032       27.061        8.155        0.091      348.762       28.694      863.596
08/27/2014  19:25:00       19.331       -2.619        2.968       19.805       12.706        9.058      392.229      161.432       82.051        0.051        0.032       19.507        8.441        0.187      348.579       28.379      863.606
08/27/2014  19:26:00       17.478       -1.571       -0.696       12.625       12.361       11.618      159.391      152.787      134.987        0.038        0.022       17.549        8.782        0.250      348.650       28.503      863.619
08/27/2014  19:27:00       28.044        1.945        5.262       19.249       15.360       10.261      370.516      235.918      105.296        0.076        0.036       28.111        9.113        0.105      348.485       28.214      863.625
08/27/2014  19:28:00       21.890       -6.988        4.534       10.962       16.333       10.007      120.176      266.773      100.136        0.052        0.024       22.978        5.323        0.054      348.443       28.143      863.633
08/27/2014  19:29:00       21.689       -2.304        1.493       13.427       14.995       12.141      180.272      224.848      147.405        0.052        0.028       21.812       10.623        0.237      348.560       28.344      863.643
08/27/2014  19:30:00       32.035        9.307        3.057       17.531       11.936        9.697      307.348      142.459       94.029        0.083        0.027       33.359        7.181        0.046      348.538       28.308      863.657
08/27/2014  19:31:00       10.868        0.194        5.650       16.394       15.132       10.009      268.747      228.992      100.183        0.037        0.030       10.870        9.071        0.696      348.512       28.261      863.663
08/27/2014  19:32:00        5.761       -5.179        2.374       12.639       10.695        7.238      159.750      114.388       52.392        0.020        0.016        7.747        5.970        0.594      348.622       28.452      863.675
08/27/2014  19:33:00       -1.758       12.485       -0.075       12.289       13.460        6.905      151.015      181.160       47.673        0.027        0.019       12.608        5.820        0.213      348.551       28.329      863.688
08/27/2014  19:34:00       40.696       31.911        4.071       19.717       14.951       15.595      388.760      223.533      243.209        0.177        0.043       51.715       10.891        0.044      348.767       28.703      863.692
08/27/2014  19:35:00       36.256       23.605        6.535       22.485       14.829       13.009      505.563      219.906      169.222        0.140        0.045       43.263        9.928        0.053      348.789       28.743      863.692
08/27/2014  19:36:00       30.847       43.695       -2.126       19.400       20.884       12.691      376.379      436.156      161.069        0.192        0.049       53.486       10.224        0.037      348.837       28.826      863.702
08/27/2014  19:37:00       46.069       37.244        7.320       34.579       23.526       20.099     1195.713      553.496      403.986        0.286        0.108       59.240       12.667        0.046      348.723       28.625      863.701
08/27/2014  19:38:00       57.847       45.431       13.116       29.237       21.987       21.261      854.820      483.428      452.012        0.369        0.090       73.554       19.945        0.074      348.794       28.750      863.714
08/27/2014  19:39:00       21.637       28.977       -1.897       16.140       24.609       14.295      260.509      605.590      204.334        0.119        0.054       36.164       16.171        0.200      348.636       28.477      863.727
08/27/2014  19:40:00       21.514       16.325        4.749       28.581       21.500       12.005      816.876      462.231      144.118        0.109        0.071       27.006        8.021        0.088      348.562       28.348      863.739
08/27/2014  19:41:00       35.548       29.704       16.169       18.652       10.752       10.870      347.888      115.607      118.154        0.149        0.029       46.324        7.850        0.029      348.674       28.542      863.745
08/27/2014  19:42:00       23.413       15.115        5.356       30.012       16.472       14.108      900.724      271.318      199.047        0.109        0.069       27.868       16.445        0.348      348.404       28.075      863.749
08/27/2014  19:43:00       37.502        1.827        3.842       16.679       21.036       13.308      278.203      442.493      177.112        0.116        0.045       37.546        9.247        0.061      348.286       27.871      863.765
08/27/2014  19:44:00       18.199        7.207       11.971       23.728       15.546       13.301      563.006      241.681      176.918        0.075        0.049       19.574        9.540        0.238      348.324       27.937      863.771
08/27/2014  19:45:00       11.664        3.688        4.741       22.308       14.006       11.817      497.651      196.164      139.652        0.050        0.042       12.233       10.313        0.711      348.200       27.721      863.793
08/27/2014  19:46:00        5.368      -17.466        4.286       15.578       10.723        9.193      242.686      114.975       84.502        0.040        0.022       18.272        9.104        0.248      348.069       27.496      863.800
08/27/2014  19:47:00        5.434      -10.041        1.236        9.564        7.181        5.176       91.476       51.568       26.791        0.015        0.008       11.417        3.106        0.074      348.054       27.471      863.814
08/27/2014  19:48:00      -21.707       -4.294       -2.993        7.292        7.753        4.711       53.175       60.110       22.197        0.032        0.007       22.128        2.490        0.013      348.261       27.827      863.820
08/27/2014  19:49:00      -31.887      -21.016       -6.557        7.809       10.518        7.567       60.975      110.633       57.263        0.087        0.011       38.190        4.776        0.016      348.219       27.756      863.827
08/27/2014  19:50:00       -4.963      -25.989       -1.389        9.197       10.224        7.510       84.576      104.520       56.397        0.047        0.012       26.459        4.096        0.024      348.102       27.555      863.836
08/27/2014  19:51:00       -4.401      -60.216        2.236       14.068       27.327       12.846      197.910      746.780      165.031        0.238        0.055       60.376       12.939        0.046      348.249       27.808      863.844
08/27/2014  19:52:00        4.119       21.345       20.784       26.801       24.016       25.524      718.319      576.756      651.482        0.143        0.097       21.739       12.575        0.335      347.959       27.305      863.845
08/27/2014  19:53:00       35.512       20.839       -2.712       22.465       25.251       20.438      504.666      637.608      417.696        0.163        0.078       41.175       14.796        0.129      348.156       27.647      863.868
08/27/2014  19:54:00       16.875       37.254        1.274       20.559       10.772       12.943      422.662      116.039      167.521        0.119        0.035       40.898        7.329        0.032      348.385       28.041      863.867
08/27/2014  19:55:00       12.777       53.369       -8.623       33.574       19.746       11.990     1127.190      389.905      143.760        0.237        0.083       54.877       15.815        0.083      348.377       28.027      863.871
08/27/2014  19:56:00      -63.882       -6.680      -11.792       16.481       16.714       10.653      271.622      279.362      113.476        0.246        0.033       64.231        9.886        0.024      347.994       27.366      863.871
08/27/2014  19:57:00      -78.061      -19.478       -6.563       17.430       16.017       13.313      303.812      256.555      177.245        0.363        0.037       80.455       10.070        0.016      347.905       27.213      863.877
08/27/2014  19:58:00      -81.590      -10.656       -5.734       46.089       25.597       19.716     2124.167      655.206      388.730        0.499        0.158       82.283       20.161        0.060      347.540       26.583      863.888
08/27/2014  19:59:00     -105.625       -6.476       -0.396       45.017       41.370       25.221     2026.516     1711.497      636.099        0.779        0.219      105.824       22.245        0.044      347.343       26.244      863.894
08/27/2014  20:00:00     -139.032      -12.663      -13.188       77.518       37.303       26.527     6009.061     1391.500      703.672        1.388        0.405      139.607       31.855        0.052      347.383       26.311      863.906
08/27/2014  20:01:00     -110.097      -41.716       -1.204       59.109       32.385       20.449     3493.882     1048.786      418.166        0.941        0.248      117.735       23.469        0.040      347.420       26.376      863.900
08/27/2014  20:02:00     -102.019       -0.925       -2.313       35.681       43.127       16.571     1273.108     1859.975      274.612        0.691        0.170      102.024       17.820        0.031      347.391       26.326      863.915
08/27/2014  20:03:00     -150.466       38.975      -12.212       25.591       21.810       16.303      654.924      475.657      265.789        1.285        0.070      155.432       12.831        0.007      347.235       26.058      863.927
08/27/2014  20:04:00     -111.804       34.824      -11.150       34.807       26.060       16.819     1211.512      679.132      282.863        0.800        0.109      117.102       14.322        0.015      347.174       25.954      863.941
08/27/2014  20:05:00     -140.819        9.026      -15.572       29.956       31.380       18.523      897.344      984.677      343.101        1.119        0.111      141.108        9.769        0.005      347.288       26.148      863.952
08/27/2014  20:06:00     -142.708      -27.209      -15.312       37.537       30.513       20.479     1408.997      931.041      419.395        1.205        0.138      145.279       13.320        0.008      347.288       26.147      863.956
08/27/2014  20:07:00     -147.144      -15.828      -11.828       37.198       23.474       21.391     1383.698      551.006      457.594        1.222        0.120      147.992       18.269        0.015      347.227       26.045      863.974
08/27/2014  20:08:00     -150.244      -27.583      -10.166       40.931       25.606       21.979     1675.328      655.666      483.089        1.313        0.141      152.755       20.690        0.018      347.261       26.102      863.987
08/27/2014  20:09:00     -117.476      -28.348       -3.353       28.016       26.870       19.826      784.873      722.023      393.070        0.826        0.095      120.848       17.588        0.021      347.258       26.098      863.998
08/27/2014  20:10:00     -133.756      -13.740      -16.704       22.405       22.668       15.323      501.985      513.824      234.804        0.980        0.063      134.460       10.391        0.006      347.306       26.179      864.028
08/27/2014  20:11:00     -113.627      -25.488       -6.524       35.605       24.341       20.419     1267.710      592.498      416.946        0.794        0.114      116.451       20.863        0.032      347.248       26.079      864.049
08/27/2014  20:12:00      -93.331      -45.978        3.088       42.921       35.060       23.567     1842.208     1229.210      555.398        0.723        0.181      104.042       20.310        0.038      347.264       26.107      864.071
08/27/2014  20:13:00     -125.166      -68.825       -3.164       75.827       60.804       27.653     5749.753     3697.148      764.707        1.531        0.511      142.840       33.293        0.054      347.252       26.087      864.092
08/27/2014  20:14:00      -88.436      -48.806        0.193       54.938       34.447       26.007     3018.230     1186.600      676.378        0.754        0.244      101.010       19.989        0.039      347.271       26.121      864.122
08/27/2014  20:15:00     -157.777      -69.564        1.757       46.481       46.379       24.704     2160.486     2151.030      610.264        1.733        0.246      172.432       20.396        0.014      347.238       26.061      864.136
08/27/2014  20:16:00     -148.583      -57.767       -2.016       50.553       40.657       25.428     2555.590     1652.964      646.598        1.514        0.243      159.418       24.996        0.025      347.219       26.029      864.158
08/27/2014  20:17:00     -124.500      -33.375       -8.682       44.863       46.437       30.249     2012.648     2156.403      915.003        1.089        0.254      128.896       24.565        0.036      347.249       26.079      864.188
08/27/2014  20:18:00      -78.366      -34.129       -4.137       39.128       21.333       14.113     1531.019      455.117      199.187        0.475        0.109       85.475        7.008        0.007      347.265       26.107      864.207
08/27/2014  20:19:00     -117.950      -46.919       -4.894       32.793       24.136       21.733     1075.400      582.535      472.309        0.913        0.107      126.939       15.343        0.015      347.286       26.146      864.227
08/27/2014  20:20:00      -78.603      -61.611        0.074       46.065       30.227       22.686     2121.964      913.689      514.663        0.676        0.178       99.872       19.760        0.039      347.218       26.028      864.239
08/27/2014  20:21:00     -106.489      -69.973       -6.981       71.840       68.550       36.609     5161.055     4699.047     1340.193        1.374        0.560      127.421       39.588        0.097      347.194       25.986      864.265
08/27/2014  20:22:00     -129.040      -23.588       -7.897       62.413       49.841       27.673     3895.351     2484.172      765.797        1.221        0.357      131.178       30.794        0.055      347.237       26.060      864.283
08/27/2014  20:23:00     -157.840      -34.308       -2.925       53.202       45.529       28.794     2830.409     2072.929      829.091        1.591        0.287      161.526       26.008        0.026      347.202       25.998      864.303
08/27/2014  20:24:00     -201.882        2.154      -14.875       56.038       50.923       32.297     3140.235     2593.190     1043.070        2.388        0.339      201.893       32.485        0.026      347.378       26.300      864.316
08/27/2014  20:25:00     -198.651       20.459      -16.492       55.264       73.099       32.529     3054.135     5343.517     1058.111        2.480        0.473      199.702       18.728        0.009      347.487       26.491      864.326
08/27/2014  20:26:00     -133.165       22.316      -11.623       60.070       78.570       29.832     3608.349     6173.274      889.930        1.452        0.534      135.022       37.468        0.077      347.599       26.683      864.336
08/27/2014  20:27:00     -109.236       40.140      -10.949       39.576       44.941       25.930     1566.292     2019.668      672.366        0.896        0.213      116.377       31.083        0.071      347.538       26.580      864.361
08/27/2014  20:28:00     -123.047       34.552      -25.339       45.957       62.882       26.262     2112.031     3954.163      689.694        1.186        0.338      127.806       23.324        0.033      347.455       26.437      864.395
08/27/2014  20:29:00     -148.955       63.609      -15.225       40.287       52.283       25.284     1623.004     2733.505      639.266        1.573        0.250      161.968       19.820        0.015      347.520       26.548      864.420
08/27/2014  20:30:00     -128.810       -5.898      -18.468       35.480       70.018       28.651     1258.845     4902.530      820.901        1.197        0.349      128.945       18.724        0.021      347.434       26.401      864.443
08/27/2014  20:31:00     -130.663      -19.107       -6.875       42.990       46.287       27.350     1848.168     2142.467      748.024        1.111        0.237      132.052       22.229        0.028      347.485       26.488      864.473
08/27/2014  20:32:00     -180.284      -29.706      -24.874       51.184       43.318       27.993     2619.775     1876.459      783.634        1.964        0.264      182.715       28.678        0.025      347.522       26.551      864.489
08/27/2014  20:33:00     -169.740       30.641      -22.356       64.565       46.901       39.047     4168.645     2199.672     1524.675        1.907        0.395      172.484       37.342        0.047      347.593       26.672      864.501
08/27/2014  20:34:00     -109.662       -5.049      -21.705       29.105       36.394       23.811      847.083     1324.518      566.941        0.763        0.137      109.778       10.299        0.009      347.551       26.602      864.516
08/27/2014  20:35:00      -77.852      -29.690      -13.410       31.740       27.699       28.737     1007.420      767.258      825.797        0.486        0.130       83.322       17.565        0.044      347.564       26.624      864.527
08/27/2014  20:36:00      -82.704        1.925       -8.215       27.572       37.406       19.720      760.242     1399.243      388.882        0.473        0.127       82.727       12.487        0.023      347.464       26.450      864.549
08/27/2014  20:37:00      -92.245        4.956      -13.165       35.142       31.673       26.848     1234.932     1003.180      720.818        0.583        0.148       92.378       10.136        0.012      347.596       26.681      864.566
08/27/2014  20:38:00     -162.239       -9.235      -22.451       54.415       48.933       31.405     2961.023     2394.400      986.258        1.663        0.317      162.502       33.382        0.042      347.645       26.765      864.575
08/27/2014  20:39:00     -149.170      -38.818      -11.617       70.065       41.395       36.085     4909.081     1713.541     1302.156        1.591        0.396      154.138       25.059        0.026      347.566       26.626      864.594
08/27/2014  20:40:00     -108.162        1.346       -7.046       45.932       60.386       34.359     2109.744     3646.472     1180.553        0.934        0.347      108.170       26.464        0.060      347.574       26.642      864.606
08/27/2014  20:41:00     -106.350      -18.137       -1.460       74.275       42.813       38.012     5516.766     1832.989     1444.885        1.022        0.440      107.885       40.856        0.143      347.653       26.779      864.598
08/27/2014  20:42:00     -187.155      -20.113      -16.039       97.263       68.352       45.900     9460.055     4671.954     2106.765        2.596        0.812      188.233       41.739        0.049      347.787       27.007      864.608
08/27/2014  20:43:00     -148.847       31.149      -11.335       66.552       69.973       37.841     4429.182     4896.154     1431.913        1.700        0.538      152.071       38.180        0.063      347.725       26.903      864.596
08/27/2014  20:44:00     -206.057      -61.324      -26.618       55.231       62.616       37.435     3050.430     3920.727     1401.354        2.765        0.419      214.988       29.314        0.019      347.699       26.854      864.603
08/27/2014  20:45:00     -205.944      -63.678       -6.004       93.713       63.536       44.891     8782.200     4036.843     2015.226        3.067        0.742      215.563       38.478        0.032      347.601       26.686      864.592
08/27/2014  20:46:00     -259.676      -31.996       -2.927      101.526       89.895       56.681    10307.552     8081.172     3212.681        4.503        1.080      261.640       53.024        0.041      347.641       26.755      864.599
08/27/2014  20:47:00     -261.622      -76.934       -5.398      127.296      108.005       62.805    16204.225    11664.978     3944.516        5.310        1.591      272.699       70.219        0.066      347.735       26.916      864.598
08/27/2014  20:48:00     -287.753      -84.204      -13.640       86.135       74.157       53.663     7419.180     5499.257     2879.704        5.293        0.790      299.820       47.074        0.025      347.736       26.918      864.598
08/27/2014  20:49:00     -336.133     -100.446      -23.840      103.849       79.297       55.425    10784.636     6288.036     3071.881        7.189        1.007      350.821       49.052        0.020      347.748       26.939      864.621
08/27/2014  20:50:00     -374.284      -68.964      -14.920      115.849       99.211       65.558    13420.976     9842.883     4297.787        8.631        1.378      380.584       60.848        0.026      347.740       26.923      864.631
08/27/2014  20:51:00     -241.967      -58.429      -17.925       88.063       84.507       52.570     7755.126     7141.506     2763.651        3.997        0.883      248.921       46.967        0.036      347.659       26.785      864.660
08/27/2014  20:52:00     -325.957      -82.564      -12.514      116.622       71.967       45.326    13600.689     5179.193     2054.425        6.702        1.042      336.251       48.256        0.021      347.732       26.910      864.663
08/27/2014  20:53:00     -344.624      -74.555      -29.445      115.968      113.958       56.803    13448.676    12986.502     3226.555        7.742        1.483      352.596       50.845        0.021      347.708       26.869      864.682
08/27/2014  20:54:00     -308.853      -80.080       -8.005      123.292      104.055       63.897    15200.847    10827.527     4082.849        6.598        1.506      319.066       61.944        0.038      347.696       26.848      864.693
08/27/2014  20:55:00     -362.112     -121.053      -17.727      169.314      108.290       57.852    28667.235    11726.736     3346.820        9.491        2.187      381.810       71.287        0.035      347.733       26.913      864.712
08/27/2014  20:56:00     -370.386     -147.903       -8.147      161.505      120.946       69.030    26083.999    14627.929     4765.082       10.229        2.274      398.824       77.694        0.038      347.777       26.991      864.729
08/27/2014  20:57:00     -332.776      -57.013       -7.996      141.335       90.924       60.256    19975.459     8267.144     3630.816        7.296        1.594      337.624       68.069        0.041      347.741       26.927      864.755
08/27/2014  20:58:00     -365.662      -93.973      -14.208      125.230       98.772       57.922    15682.677     9756.004     3354.967        8.576        1.440      377.544       59.969        0.025      347.744       26.932      864.777
08/27/2014  20:59:00     -351.553      -69.458      -18.912      137.081      106.436       70.397    18791.094    11328.549     4955.748        8.192        1.754      358.349       76.453        0.046      347.748       26.938      864.793
08/27/2014  21:00:00     -309.325      -83.325       -3.054      103.460       96.462       62.438    10704.039     9304.852     3898.546        6.327        1.195      320.351       57.321        0.032      347.715       26.882      864.804
08/27/2014  21:01:00     -306.516      -62.073       -4.559      136.087      112.624       68.625    18519.775    12684.274     4709.381        6.686        1.796      312.739       71.846        0.053      347.683       26.827      864.828
08/27/2014  21:02:00     -260.394      -83.287      -11.042      118.032       95.785       54.748    13931.670     9174.761     2997.348        5.048        1.305      273.389       65.364        0.057      347.684       26.827      864.835
08/27/2014  21:03:00     -341.793      -55.116      -31.927      124.584      127.746       56.504    15521.070    16319.005     3192.713        7.795        1.752      346.209       46.569        0.018      347.695       26.846      864.857
08/27/2014  21:04:00     -391.846      -53.137      -42.311      132.956      114.332       64.357    17677.359    13071.721     4141.816        9.652        1.745      395.433       65.931        0.028      347.706       26.866      864.864
08/27/2014  21:05:00     -362.104      -18.798      -20.825      114.245      111.733       62.718    13051.816    12484.344     3933.518        8.068        1.473      362.592       61.781        0.029      347.687       26.833      864.882
08/27/2014  21:06:00     -361.116      -62.271      -10.985      142.797      123.852       70.819    20391.048    15339.272     5015.383        8.757        2.037      366.445       71.987        0.039      347.648       26.765      864.894
08/27/2014  21:07:00     -245.499      -43.530       -2.430      112.811      103.140       52.187    12726.236    10637.961     2723.442        4.412        1.304      249.328       57.981        0.054      347.606       26.693      864.900
08/27/2014  21:08:00     -271.550      -47.760      -22.548       92.431       92.944       44.367     8543.548     8638.628     1968.390        4.784        0.958      275.718       38.669        0.020      347.606       26.693      864.912
08/27/2014  21:09:00     -262.383      -88.711       -1.214       94.690       73.714       47.555     8966.248     5433.701     2261.481        4.669        0.833      276.974       49.596        0.032      347.567       26.626      864.911
08/27/2014  21:10:00     -220.466      -56.182        9.173      112.783       70.374       51.584    12720.104     4952.494     2660.939        3.609        1.017      227.512       52.140        0.053      347.518       26.543      864.925
08/27/2014  21:11:00     -303.162      -86.118      -30.418       92.410      107.001       52.526     8539.599    11449.195     2759.019        6.149        1.137      315.156       53.068        0.028      347.558       26.611      864.939
08/27/2014  21:12:00     -259.762     -117.066      -14.738       90.932       89.137       48.026     8268.637     7945.367     2306.469        4.996        0.926      284.922       26.564        0.009      347.518       26.541      864.930
08/27/2014  21:13:00     -170.687      -17.191       -0.154      125.050       92.359       53.218    15637.552     8530.181     2832.176        2.821        1.350      171.550       57.138        0.111      347.487       26.489      864.933
08/27/2014  21:14:00     -366.592       27.189      -24.992      129.139      105.102       60.652    16676.894    11046.354     3678.649        8.357        1.570      367.599       66.573        0.033      347.559       26.612      864.945
08/27/2014  21:15:00     -333.634     -100.210      -31.081      119.122       98.447       58.047    14190.074     9691.907     3369.441        7.478        1.363      348.359       27.866        0.006      347.606       26.692      864.948
08/27/2014  21:16:00     -291.094      -83.769      -15.255      124.745       94.270       57.082    15561.308     8886.858     3258.408        5.984        1.385      302.908       58.404        0.037      347.577       26.643      864.945
08/27/2014  21:17:00     -270.237      -58.419      -16.692      104.141       89.645       50.056    10845.421     8036.226     2505.555        4.905        1.069      276.479       51.757        0.035      347.542       26.582      864.933
08/27/2014  21:18:00     -356.055      -82.692       -0.411      126.468       93.780       55.777    15994.248     8794.772     3111.101        8.075        1.395      365.531       52.698        0.021      347.486       26.485      864.937
08/27/2014  21:19:00     -300.552      -81.023        5.376      104.495       80.623       52.651    10919.173     6500.056     2772.153        5.855        1.010      311.282       57.410        0.034      347.431       26.392      864.941
08/27/2014  21:20:00     -273.418      -33.937       -6.108      106.197       79.737       65.011    11277.886     6357.939     4226.444        4.890        1.093      275.516       66.419        0.058      347.377       26.299      864.929
08/27/2014  21:21:00     -228.646      -39.013       -9.682      117.882       83.033       61.152    13896.252     6894.483     3739.609        3.921        1.227      231.950       66.802        0.083      347.338       26.231      864.924
08/27/2014  21:22:00     -340.947     -133.457      -15.748      151.700      123.169       58.079    23012.809    15170.488     3373.184        8.792        2.078      366.136       67.569        0.034      347.365       26.278      864.910
08/27/2014  21:23:00     -341.808      -39.597      -24.787      113.203      124.919       57.521    12815.013    15604.753     3308.616        7.537        1.586      344.094       57.087        0.028      347.387       26.316      864.916
08/27/2014  21:24:00     -235.512       -1.778       -2.746      129.132       90.297       72.902    16674.956     8153.546     5314.631        4.280        1.507      235.518       56.112        0.057      347.380       26.303      864.918
08/27/2014  21:25:00     -258.715      -41.081       -1.638      147.459       91.059       72.095    21744.049     8291.799     5197.655        5.192        1.762      261.956       79.350        0.092      347.448       26.421      864.934
08/27/2014  21:26:00     -203.845      -12.878      -11.977      101.345       66.959       42.233    10270.755     4483.498     1783.653        2.920        0.827      204.252       42.035        0.042      347.473       26.465      864.927
08/27/2014  21:27:00     -167.403      -59.155      -11.535       69.887       75.196       42.620     4884.125     5654.502     1816.446        2.200        0.618      177.547       30.102        0.029      347.457       26.437      864.879
08/27/2014  21:28:00     -241.229     -104.678      -15.205       93.911       88.092       39.446     8819.370     7760.128     1555.967        4.375        0.907      262.961       29.673        0.013      347.423       26.376      864.862
08/27/2014  21:29:00     -252.872      -25.711      -11.944       90.664      112.672       50.919     8219.913    12695.057     2592.729        4.412        1.175      254.175       50.091        0.039      347.328       26.214      864.872
08/27/2014  21:30:00     -173.512     -131.679       -0.436      116.599      115.854       70.794    13595.335    13422.177     5011.858        3.973        1.601      217.821       61.585        0.080      347.239       26.062      864.866
08/27/2014  21:31:00     -196.284      -83.648        6.775      161.679      118.203       57.849    26140.250    13971.877     3346.525        4.451        2.173      213.365       71.885        0.114      347.288       26.146      864.868
08/27/2014  21:32:00     -194.860      -58.847        9.693      133.435      108.453       64.642    17804.874    11761.973     4178.622        3.763        1.687      203.551       66.940        0.108      347.257       26.093      864.896
08/27/2014  21:33:00     -206.535      -62.698       -4.255      103.132       95.946       58.995    10636.179     9205.605     3480.358        3.496        1.166      215.842       56.104        0.068      347.282       26.136      864.915
08/27/2014  21:34:00     -301.800      -69.304      -14.224      112.972       87.072       46.729    12762.785     7581.468     2183.622        5.930        1.126      309.655       39.570        0.016      347.341       26.238      864.944
08/27/2014  21:35:00     -289.380       -7.236      -12.696      178.924      103.209       63.674    32013.655    10652.060     4054.442        6.533        2.336      289.471       84.476        0.085      347.323       26.207      864.965
08/27/2014  21:36:00     -350.733      -43.099      -16.653      121.581      114.891       60.394    14781.994    13199.859     3647.431        7.838        1.581      353.371       60.607        0.029      347.418       26.368      864.968
08/27/2014  21:37:00     -287.497      -67.045       -9.401       92.482       70.151       45.602     8552.905     4921.094     2079.546        5.139        0.778      295.211       43.032        0.021      347.414       26.360      864.981
08/27/2014  21:38:00     -157.219      -40.575       -5.972       79.652       48.585       35.574     6344.412     2360.467     1265.520        1.818        0.499      162.371       37.344        0.053      347.323       26.207      864.968
08/27/2014  21:39:00      -78.922      -25.694        8.958       65.481       36.496       25.021     4287.787     1331.974      626.060        0.661        0.312       82.999       24.910        0.090      347.283       26.141      864.939
08/27/2014  21:40:00     -178.357      -45.252        9.433      142.586       88.133       55.994    20330.907     7767.478     3135.336        3.258        1.562      184.008       68.580        0.139      347.203       26.001      864.950
08/27/2014  21:41:00     -338.979      -78.266      -14.810      111.125      116.035       62.640    12348.695    13464.016     3923.745        7.549        1.487      347.897       61.316        0.031      347.247       26.075      864.937
08/27/2014  21:42:00     -363.852      -80.187      -11.963      109.739      117.134       60.118    12042.696    13720.273     3614.122        8.416        1.469      372.583       63.786        0.029      347.227       26.041      864.930
08/27/2014  21:43:00     -327.899      -77.982       -1.995      132.321       94.486       63.871    17508.792     8927.676     4079.532        7.205        1.526      337.045       66.193        0.039      347.182       25.963      864.934
08/27/2014  21:44:00     -236.657      -50.515        1.623      142.628       87.578       59.933    20342.664     7669.832     3591.986        4.508        1.580      241.988       68.953        0.081      347.120       25.857      864.937
08/27/2014  21:45:00     -383.703      -61.762      -20.566      141.359      104.635       60.889    19982.344    10948.469     3707.518        9.304        1.732      388.642       53.271        0.019      347.195       25.983      864.940
08/27/2014  21:46:00     -323.042      -76.221      -14.076      100.663      103.123       54.792    10133.028    10634.420     3002.155        6.706        1.188      331.913       56.309        0.029      347.147       25.902      864.940
08/27/2014  21:47:00     -311.082      -38.783      -22.369      128.535      106.465       65.476    16521.337    11334.872     4287.120        6.545        1.607      313.490       63.777        0.041      347.167       25.936      864.945
08/27/2014  21:48:00     -309.670      -35.013      -19.833      137.183       93.552       59.330    18819.109     8751.944     3520.005        6.430        1.555      311.643       65.870        0.045      347.164       25.931      864.936
08/27/2014  21:49:00     -320.593     -107.395       -2.175      112.307       93.790       55.072    12612.799     8796.518     3032.877        6.938        1.222      338.103       56.607        0.028      347.125       25.864      864.942
08/27/2014  21:50:00     -354.612      -92.014      -19.171      157.658      123.198       68.808    24856.032    15177.712     4734.494        8.967        2.238      366.355       77.513        0.045      347.121       25.858      864.926
08/27/2014  21:51:00     -289.805      -46.193      -13.954      124.024       94.460       49.541    15382.073     8922.627     2454.310        5.653        1.338      293.464       50.357        0.029      347.102       25.825      864.928
08/27/2014  21:52:00     -215.841      -71.543       -3.912      123.463       82.692       53.630    15243.149     6838.036     2876.211        3.833        1.248      227.389       52.275        0.053      347.069       25.769      864.925
08/27/2014  21:53:00     -303.452      -44.875      -10.227      121.030       79.479       60.268    14648.217     6316.853     3632.189        5.939        1.230      306.752       65.254        0.045      347.064       25.758      864.924
08/27/2014  21:54:00     -183.577      -34.708      -13.000       92.277       55.855       38.847     8515.036     3119.782     1509.059        2.411        0.657      186.829       41.304        0.049      347.034       25.708      864.931
08/27/2014  21:55:00     -265.875      -12.908       -8.289      138.362       87.445       61.749    19143.914     7646.601     3812.947        5.076        1.530      266.188       68.563        0.066      347.067       25.765      864.919
08/27/2014  21:56:00     -222.463     -107.633       -3.271      122.859       85.857       51.084    15094.215     7371.353     2609.533        4.308        1.254      247.133       64.044        0.067      347.047       25.729      864.911
08/27/2014  21:57:00     -316.131      -19.585      -21.516      144.017       90.835       57.533    20740.992     8251.054     3309.998        6.654        1.615      316.737       67.079        0.045      347.062       25.756      864.913
08/27/2014  21:58:00     -198.593      -72.348        3.359       94.290       79.183       48.294     8890.608     6269.910     2332.330        3.109        0.875      211.361       51.445        0.059      346.986       25.624      864.920
08/27/2014  21:59:00     -237.398      -53.609       -4.800      108.167       98.565       54.713    11700.172     9714.986     2993.545        4.183        1.220      243.376       61.187        0.063      347.013       25.672      864.915
08/27/2014  22:00:00     -337.158      -45.201      -16.584       91.995       84.541       54.275     8463.124     7147.216     2945.759        6.727        0.928      340.175       49.021        0.021      347.061       25.754      864.934
08/27/2014  22:01:00     -218.934      -45.487       -2.244       99.446      102.985       55.821     9889.520    10605.864     3116.007        3.680        1.181      223.610       61.518        0.076      347.033       25.707      864.935
08/27/2014  22:02:00     -228.047      -41.318       -3.487       91.607       96.671       46.049     8391.902     9345.226     2120.512        3.679        0.993      231.759       40.925        0.031      347.060       25.751      864.935
08/27/2014  22:03:00     -191.428      -66.155        7.849      134.212       96.766       58.824    18012.837     9363.646     3460.214        3.595        1.542      202.537       63.741        0.099      346.999       25.648      864.953
08/27/2014  22:04:00     -272.162      -10.680       -9.495       98.652       91.109       61.596     9732.269     8300.784     3794.031        4.805        1.091      272.371       55.526        0.042      347.072       25.771      864.954
08/27/2014  22:05:00     -246.985      -95.208       -2.855       88.214       68.773       46.917     7781.711     4729.706     2201.226        4.239        0.736      264.700       39.109        0.022      347.060       25.751      864.949
08/27/2014  22:06:00     -325.776      -66.680       -7.845      132.709       99.017       62.685    17611.739     9804.290     3929.349        7.099        1.567      332.530       68.885        0.043      347.055       25.744      864.964
08/27/2014  22:07:00     -352.709      -61.542      -10.400      136.121       91.409       57.630    18528.819     8355.543     3321.204        7.925        1.510      358.037       67.594        0.036      347.080       25.786      864.955
08/27/2014  22:08:00     -242.506      -80.395       -6.329       95.580       89.620       46.663     9135.580     8031.796     2177.393        4.232        0.967      255.485       44.849        0.031      347.013       25.671      864.955
08/27/2014  22:09:00     -298.279      -11.826      -11.877      101.331       79.612       51.119    10268.014     6337.998     2613.186        5.423        0.961      298.513       46.716        0.024      346.979       25.612      864.965
08/27/2014  22:10:00     -185.876      -46.158        1.443      113.043       86.233       48.850    12778.826     7436.050     2386.340        2.964        1.130      191.522       49.187        0.066      346.966       25.593      864.964
08/27/2014  22:11:00     -267.728      -96.628      -18.210      101.105      102.925       47.765    10222.142    10593.641     2281.518        5.222        1.155      284.632       38.913        0.019      347.010       25.667      864.960
08/27/2014  22:12:00     -336.473      -71.515      -21.038      100.218       95.339       47.969    10043.653     9089.447     2301.009        7.010        1.072      343.989       44.238        0.017      346.997       25.644      864.964
08/27/2014  22:13:00     -302.809      -94.792       -6.121      110.139       73.590       49.486    12130.628     5415.532     2448.888        6.035        1.000      317.299       55.655        0.031      346.978       25.612      864.960
08/27/2014  22:14:00     -249.021      -54.292      -10.718       98.729       89.657       49.751     9747.350     8038.297     2475.207        4.266        1.013      254.870       45.451        0.032      346.967       25.593      864.953
08/27/2014  22:15:00     -233.593      -39.441       -6.281      139.065       77.747       47.758    19339.094     6044.648     2280.808        4.191        1.383      236.900       50.610        0.046      346.959       25.581      864.958
08/27/2014  22:16:00     -244.454      -91.056       -6.919      120.611      108.321       54.178    14546.958    11733.530     2935.256        4.865        1.461      260.862       42.079        0.026      347.004       25.656      864.949
08/27/2014  22:17:00     -217.475      -44.776        4.970      106.859       95.328       47.571    11418.808     9087.363     2263.027        3.604        1.138      222.036       48.161        0.047      346.930       25.528      864.966
08/27/2014  22:18:00     -110.081      -77.130       10.786      123.489       90.635       56.152    15249.512     8214.758     3153.046        2.239        1.331      134.413       55.940        0.173      346.906       25.490      864.955
08/27/2014  22:19:00     -177.499       14.548        3.286      113.571       96.627       53.372    12898.330     9336.713     2848.561        2.840        1.254      178.095       57.712        0.105      346.888       25.458      864.945
08/27/2014  22:20:00     -266.679      -36.367       -5.609      126.463       73.901       46.095    15992.966     5461.388     2124.738        4.802        1.179      269.147       54.849        0.042      346.935       25.536      864.957
08/27/2014  22:21:00     -292.457      -75.594      -30.488      125.310       98.597       48.421    15702.718     9721.425     2344.632        5.997        1.388      302.069       55.341        0.034      346.953       25.568      864.945
08/27/2014  22:22:00     -294.414      -80.682      -12.178      120.461       90.550       46.375    14510.755     8199.226     2150.638        5.909        1.243      305.269       51.460        0.028      346.935       25.538      864.936
08/27/2014  22:23:00     -185.527      -46.495        6.616       85.741       73.541       48.020     7351.562     5408.212     2305.896        2.584        0.753      191.264       48.526        0.064      346.862       25.413      864.933
08/27/2014  22:24:00     -232.168      -62.646       -3.462      128.629       96.305       54.466    16545.440     9274.706     2966.513        4.331        1.439      240.471       61.395        0.065      346.890       25.460      864.928
08/27/2014  22:25:00     -307.996      -67.412       -8.726      150.609       91.180       58.824    22683.207     8313.716     3460.260        6.696        1.723      315.287       63.466        0.041      346.930       25.528      864.920
08/27/2014  22:26:00     -285.812      -61.302       -4.447      130.747      117.089       62.763    17094.648    13709.833     3939.140        6.010        1.737      292.313       70.604        0.058      346.930       25.528      864.920
08/27/2014  22:27:00     -281.779      -61.551       -5.346      144.413       97.759       62.707    20855.234     9556.746     3932.166        5.877        1.717      288.423       66.027        0.052      346.916       25.503      864.938
08/27/2014  22:28:00     -214.234      -28.329        9.870      118.550       98.355       54.561    14054.109     9673.700     2976.918        3.675        1.335      216.099       56.757        0.069      346.858       25.404      864.941
08/27/2014  22:29:00     -291.838      -34.308       -5.393      127.923       98.670       65.768    16364.358     9735.749     4325.367        5.839        1.521      293.847       62.543        0.045      346.880       25.442      864.941
08/27/2014  22:30:00     -186.543     -102.985      -12.715      107.469       89.395       51.724    11549.585     7991.429     2675.333        3.389        1.111      213.082       47.589        0.050      346.896       25.472      864.939
08/27/2014  22:31:00     -235.871      -40.337       -6.136       92.952       95.793       49.026     8640.095     9176.297     2403.508        3.876        1.011      239.295       48.954        0.042      346.850       25.391      864.951
08/27/2014  22:32:00     -219.623      -59.373        4.745      104.256      104.967       54.397    10869.267    11018.132     2959.064        3.831        1.242      227.507       45.217        0.040      346.868       25.421      864.953
08/27/2014  22:33:00     -183.491      -75.040        0.977      103.067       84.240       52.668    10622.797     7096.353     2773.932        2.989        1.025      198.243       46.168        0.054      346.848       25.389      864.957
08/27/2014  22:34:00     -214.155      -62.119        3.889      110.370       96.148       51.958    12181.433     9244.492     2699.657        3.693        1.206      222.982       45.363        0.041      346.881       25.444      864.956
08/27/2014  22:35:00     -321.262      -88.380      -19.402      139.297       80.691       47.941    19403.756     6510.961     2298.370        6.980        1.411      333.197       41.976        0.016      346.900       25.476      864.959
08/27/2014  22:36:00     -261.955      -70.507      -21.746      144.990      131.195       62.737    21022.155    17212.202     3935.978        5.811        2.109      271.278       49.976        0.034      346.883       25.447      864.959
08/27/2014  22:37:00     -161.012      -34.852        2.569      111.018       81.414       50.184    12324.961     6628.308     2518.405        2.430        1.074      164.741       55.085        0.112      346.863       25.413      864.966
08/27/2014  22:38:00     -204.807      -27.898      -12.660       96.684       92.212       49.271     9347.772     8503.133     2427.632        3.158        1.014      206.698       38.224        0.034      346.836       25.369      864.973
08/27/2014  22:39:00     -279.831      -69.271      -12.697      112.722       95.833       55.997    12706.149     9184.046     3135.639        5.414        1.251      288.277       60.799        0.044      346.866       25.417      864.991
08/27/2014  22:40:00     -184.679      -31.462        3.821       98.302       91.470       56.002     9663.237     8366.745     3136.184        2.813        1.058      187.340       35.782        0.036      346.829       25.355      864.993
08/27/2014  22:41:00     -273.562      -29.218       -2.381      113.040      102.751       50.131    12778.100    10557.751     2513.148        5.077        1.292      275.118       52.776        0.037      346.850       25.390      864.992
08/27/2014  22:42:00     -264.429      -23.306       -9.470      137.489       91.061       57.598    18903.338     8292.177     3317.556        5.053        1.526      265.454       66.607        0.063      346.833       25.362      865.002
08/27/2014  22:43:00     -274.144      -51.429      -25.491      131.510       61.288       45.182    17294.990     3756.191     2041.399        5.077        1.155      278.927       53.940        0.037      346.896       25.470      865.026
08/27/2014  22:44:00     -188.770      -77.385       -2.545       90.278       68.550       42.117     8150.162     4699.153     1773.827        2.812        0.731      204.017       42.605        0.044      346.806       25.316      865.027
08/27/2014  22:45:00     -132.124       14.664        7.319      100.284       67.560       43.631    10056.884     4564.365     1903.666        1.712        0.826      132.935       45.977        0.120      346.786       25.282      865.040
08/27/2014  22:46:00     -211.918      -13.651      -25.686       87.115       59.928       41.617     7589.058     3591.416     1732.011        2.933        0.646      212.357       25.974        0.015      346.789       25.286      865.065
08/27/2014  22:47:00     -229.173       17.120      -12.563      122.772      107.055       57.965    15072.885    11460.752     3359.953        4.143        1.495      229.812       59.063        0.066      346.801       25.308      865.073
08/27/2014  22:48:00     -237.283       -2.263      -16.767       75.990       59.185       35.524     5774.507     3502.808     1261.982        3.356        0.527      237.294       33.714        0.020      346.821       25.340      865.089
08/27/2014  22:49:00     -202.817       -8.211        2.164      111.874       80.422       46.882    12515.815     6467.647     2197.909        3.119        1.059      202.983       36.134        0.032      346.751       25.224      865.104
08/27/2014  22:50:00     -298.884      -18.128      -20.831      143.467       90.449       47.899    20582.742     8180.963     2294.290        6.057        1.553      299.434       47.523        0.025      346.790       25.287      865.120
08/27/2014  22:51:00     -213.400      -48.193      -13.537      108.176       90.926       38.725    11702.030     8267.556     1499.636        3.475        1.073      218.774       38.921        0.032      346.750       25.220      865.126
08/27/2014  22:52:00     -155.754      -91.949       -5.238      100.375       79.111       48.650    10075.233     6258.626     2366.862        2.572        0.935      180.869       47.244        0.068      346.710       25.152      865.140
08/27/2014  22:53:00     -108.987      -69.744        2.830       66.333      103.663       42.309     4400.123    10746.105     1790.018        1.684        0.847      129.392       29.999        0.054      346.739       25.203      865.146
08/27/2014  22:54:00      -99.037       -8.900        7.205       60.196       83.714       35.547     3623.589     7007.973     1263.581        1.091        0.595       99.436       29.075        0.085      346.686       25.112      865.153
08/27/2014  22:55:00     -120.801      -23.950        4.302       87.399       75.309       45.372     7638.661     5671.514     2058.606        1.527        0.768      123.152       49.251        0.160      346.672       25.086      865.171
08/27/2014  22:56:00     -157.137      -23.018       -9.695       66.986       46.021       30.624     4487.080     2117.965      937.819        1.643        0.377      158.814       22.560        0.020      346.715       25.161      865.195
08/27/2014  22:57:00     -176.454      -20.476       -8.398       72.924       42.303       35.131     5317.950     1789.525     1234.221        1.998        0.417      177.638       38.009        0.046      346.739       25.199      865.220
08/27/2014  22:58:00     -116.358      -61.340        1.980       81.732       58.126       37.159     6680.072     3378.630     1380.776        1.437        0.572      131.536       38.132        0.084      346.770       25.257      865.237
08/27/2014  22:59:00      -31.361      -13.880        9.321       34.441       32.990       20.037     1186.202     1088.318      401.489        0.197        0.134       34.295       16.916        0.243      346.679       25.099      865.254
08/27/2014  23:00:00     -119.136      -39.257       -2.382       80.988       44.814       29.253     6558.998     2008.332      855.752        1.258        0.471      125.437       40.563        0.105      346.673       25.088      865.273
08/27/2014  23:01:00      -81.302      -29.700        8.084       66.472       41.522       31.298     4418.502     1724.040      979.563        0.734        0.356       86.556       35.079        0.164      346.705       25.144      865.276
08/27/2014  23:02:00     -123.895      -26.972       -5.764       56.749       32.728       27.477     3220.470     1071.154      754.964        1.058        0.252      126.797       32.286        0.065      346.641       25.034      865.302
08/27/2014  23:03:00     -103.824       20.047       -1.116       53.026       39.000       28.713     2811.764     1520.989      824.428        0.817        0.258      105.742       30.330        0.082      346.613       24.986      865.310
08/27/2014  23:04:00     -111.112       15.620       -8.224       26.466       28.850       15.993      700.461      832.336      255.774        0.722        0.089      112.204       14.567        0.017      346.692       25.122      865.310
08/27/2014  23:05:00      -30.648        3.229        0.750       42.370       40.786       16.011     1795.213     1663.510      256.353        0.233        0.186       30.817       17.747        0.332      346.571       24.914      865.306
08/27/2014  23:06:00      -22.452       29.877       -3.239       33.630       45.510       19.452     1130.990     2071.168      378.385        0.249        0.179       37.372        9.779        0.068      346.553       24.884      865.305
08/27/2014  23:07:00      -54.609       35.857       -2.775       26.941       19.166       18.528      725.795      367.354      343.300        0.286        0.072       65.329       12.593        0.037      346.602       24.966      865.308
08/27/2014  23:08:00      -50.061        7.620      -14.857       25.126       26.281       17.448      631.295      690.693      304.428        0.221        0.081       50.637       11.084        0.048      346.587       24.940      865.317
08/27/2014  23:09:00        3.210      -39.800       -6.163       18.788       32.794       14.011      352.992     1075.417      196.295        0.163        0.081       39.929       12.323        0.095      346.557       24.891      865.303
08/27/2014  23:10:00      -15.908        1.480        7.981       46.445       20.067       23.862     2157.129      402.691      569.405        0.172        0.156       15.977       19.564        1.499      346.447       24.700      865.303
08/27/2014  23:11:00      -55.413      -30.365       -3.749       43.478       33.223       16.253     1890.351     1103.773      264.159        0.363        0.163       63.187       17.419        0.076      346.519       24.825      865.298
08/27/2014  23:12:00      -42.527      -41.163        7.443       49.159       36.248       23.514     2416.598     1313.905      552.901        0.392        0.214       59.186       25.835        0.191      346.527       24.838      865.293
08/27/2014  23:13:00     -133.642      -54.863       -0.284       51.479       38.196       25.504     2650.066     1458.945      650.449        1.281        0.238      144.464       23.961        0.028      346.457       24.720      865.298
08/27/2014  23:14:00      -57.413      -45.850        5.998       50.853       27.704       19.742     2586.059      767.496      389.760        0.459        0.187       73.474       22.415        0.093      346.452       24.710      865.316
08/27/2014  23:15:00      -79.207      -22.226       -3.415       42.237       32.636       22.128     1783.958     1065.125      489.637        0.506        0.167       82.267       23.476        0.081      346.527       24.839      865.321
08/27/2014  23:16:00      -47.466        0.274       -2.692       16.867       23.655       11.256      284.491      559.549      126.698        0.162        0.049       47.466        8.880        0.035      346.579       24.927      865.313
08/27/2014  23:17:00      -83.917      -53.311      -16.914       25.981       22.144       13.657      674.996      490.337      186.501        0.576        0.068       99.419        7.731        0.006      346.600       24.963      865.315
08/27/2014  23:18:00     -112.973      -55.869       -3.703       46.024       26.717       19.900     2118.203      713.775      396.025        0.956        0.161      126.033       21.542        0.029      346.446       24.699      865.322
08/27/2014  23:19:00      -77.449      -57.133       -0.929       45.054       29.980       18.764     2029.871      898.791      352.088        0.627        0.164       96.242       16.295        0.029      346.440       24.690      865.329
08/27/2014  23:20:00     -186.068      -82.500      -13.596       65.477       57.466       32.882     4287.202     3302.315     1081.257        2.514        0.434      203.537       34.213        0.028      346.513       24.813      865.346
08/27/2014  23:21:00      -94.104      -26.944        6.150       41.693       41.985       22.638     1738.313     1762.705      512.497        0.682        0.201       97.885       17.293        0.031      346.436       24.682      865.362
08/27/2014  23:22:00     -133.297      -56.703       -0.754       93.193       61.237       35.530     8684.898     3749.953     1262.388        1.734        0.685      144.856       33.074        0.052      346.537       24.854      865.367
08/27/2014  23:23:00     -158.013      -65.842       -9.023       66.084       41.284       30.137     4367.091     1704.402      908.247        1.818        0.349      171.182       32.246        0.035      346.632       25.017      865.380
08/27/2014  23:24:00      -96.256       -8.424        4.857       39.693       38.995       26.598     1575.505     1520.635      707.457        0.658        0.190       96.624       22.330        0.053      346.476       24.750      865.379
08/27/2014  23:25:00     -117.607      -23.380       -7.688       40.499       34.195       19.499     1640.186     1169.280      380.197        0.881        0.159      119.909       19.712        0.027      346.439       24.687      865.376
08/27/2014  23:26:00     -120.335      -38.231      -10.857       30.374       35.019       15.955      922.574     1226.329      254.551        0.923        0.120      126.262       15.763        0.016      346.420       24.655      865.383
08/27/2014  23:27:00     -148.923      -65.085       -2.152       50.173       32.191       26.869     2517.333     1036.272      721.937        1.535        0.214      162.524       26.844        0.027      346.674       25.091      865.379
08/27/2014  23:28:00      -57.955       -4.645        0.360       54.932       48.693       20.439     3017.489     2371.033      417.741        0.459        0.290       58.141       24.629        0.179      346.654       25.057      865.379
08/27/2014  23:29:00     -134.870       63.390      -19.728       47.433       30.932       26.244     2249.903      956.765      688.770        1.325        0.195      149.025       20.049        0.018      346.322       24.485      865.401
08/27/2014  23:30:00      -59.632      -13.709       -6.394       49.794       29.995       17.912     2479.414      899.675      320.852        0.374        0.185       61.187       11.725        0.037      346.224       24.318      865.405
08/27/2014  23:31:00      -94.950      -48.448       -6.812       36.525       21.274       17.449     1334.092      452.583      304.465        0.675        0.105      106.596       16.655        0.024      346.186       24.252      865.396
08/27/2014  23:32:00      -62.335      -51.421        2.167       63.070       30.445       26.246     3977.875      926.879      688.838        0.606        0.280       80.808       32.979        0.167      346.222       24.313      865.400
08/27/2014  23:33:00      -72.106      -22.489       -3.047       15.898       15.320        9.858      252.759      234.704       97.186        0.315        0.029       75.532        7.036        0.009      346.309       24.462      865.395
08/27/2014  23:34:00      -58.296      -36.557        1.199       27.054       23.063       12.930      731.936      531.896      167.174        0.308        0.072       68.811       12.315        0.032      346.166       24.218      865.399
08/27/2014  23:35:00      -64.140      -68.257       -2.199       37.352       37.381       18.022     1395.177     1397.343      324.796        0.595        0.156       93.665       22.081        0.056      346.142       24.176      865.397
08/27/2014  23:36:00      -83.962      -52.999        2.122       43.918       34.040       22.713     1928.833     1158.710      515.903        0.673        0.180       99.290       18.076        0.033      346.113       24.127      865.398
08/27/2014  23:37:00      -46.309      -41.379        1.604       45.641       21.658       17.965     2083.107      469.077      322.726        0.337        0.144       62.103       20.386        0.108      346.130       24.157      865.390
08/27/2014  23:38:00      -58.388      -18.757       -0.583       34.858       17.617       11.244     1215.081      310.344      126.424        0.271        0.083       61.326       13.423        0.048      346.144       24.180      865.386
08/27/2014  23:39:00      -58.365       21.025       -6.387       21.371       39.341       13.786      456.735     1547.750      190.043        0.304        0.110       62.036       16.153        0.068      345.980       23.900      865.391
08/27/2014  23:40:00      -94.353       40.736      -18.290       16.746       35.167       10.346      280.443     1236.722      107.038        0.626        0.081      102.771       10.111        0.010      346.045       24.010      865.376
08/27/2014  23:41:00      -82.832      -19.074      -10.143       26.398       15.316       11.289      696.829      234.581      127.435        0.419        0.053       85.000       11.596        0.019      346.108       24.116      865.364
08/27/2014  23:42:00     -117.444      -32.346       -8.008       24.778       18.009       12.005      613.927      324.313      144.130        0.799        0.054      121.817       12.613        0.011      346.060       24.035      865.358
08/27/2014  23:43:00      -64.050      -23.732       -5.354       26.618       21.613       13.389      708.541      467.111      179.255        0.302        0.068       68.305       11.364        0.028      346.023       23.973      865.358
08/27/2014  23:44:00      -56.914      -24.969       -1.244       18.689       14.400       10.797      349.284      207.360      116.575        0.227        0.034       62.150        4.302        0.005      346.001       23.933      865.358
08/27/2014  23:45:00      -92.376      -12.806       -4.125       14.015       23.012       10.012      196.429      529.545      100.234        0.477        0.041       93.260        9.430        0.010      345.907       23.774      865.365
08/27/2014  23:46:00     -120.342       -7.267      -13.959       13.917       20.273       11.761      193.694      411.000      138.326        0.774        0.037      120.562        9.664        0.006      345.959       23.864      865.367
08/27/2014  23:47:00      -80.296      -30.208       -4.830       26.257       18.989       14.790      689.444      360.580      218.738        0.433        0.063       85.791       11.753        0.019      345.821       23.626      865.368
08/27/2014  23:48:00     -116.079      -51.925       -5.993       24.033       18.939       10.505      577.607      358.672      110.355        0.863        0.052      127.163        5.535        0.002      345.784       23.564      865.369
08/27/2014  23:49:00     -119.710      -16.812       -3.869       39.594       24.712       20.999     1567.709      610.667      440.937        0.862        0.131      120.885       20.973        0.030      345.676       23.377      865.377
08/27/2014  23:50:00     -146.461      -61.891       -5.006       57.375       45.742       24.032     3291.910     2092.289      577.519        1.563        0.298      159.001       26.608        0.028      345.641       23.317      865.394
08/27/2014  23:51:00     -153.095      -53.331       -0.633       46.290       32.646       21.848     2142.795     1065.773      477.343        1.498        0.184      162.118       20.682        0.016      345.703       23.422      865.398
08/27/2014  23:52:00     -110.197      -61.209       -1.509       48.946       28.983       25.225     2395.730      840.029      636.323        0.988        0.194      126.055       22.128        0.031      345.784       23.561      865.389
08/27/2014  23:53:00      -61.660      -47.340       -3.087       46.131       38.917       25.426     2128.114     1514.523      646.493        0.517        0.214       77.737       27.210        0.123      345.823       23.631      865.390
08/27/2014  23:54:00      -86.581      -40.068        3.455       46.146       35.368       26.605     2129.428     1250.868      707.810        0.660        0.204       95.403       30.256        0.101      345.715       23.443      865.393
08/27/2014  23:55:00     -107.799      -14.079      -10.248       33.868       16.740       17.956     1147.029      280.215      322.423        0.684        0.087      108.715       18.975        0.030      345.544       23.150      865.390
08/27/2014  23:56:00     -115.856        2.884       -7.534       42.859       27.433       21.751     1836.915      752.552      473.126        0.827        0.153      115.892       18.553        0.026      345.553       23.165      865.383
08/27/2014  23:57:00     -114.187        1.772        1.912       84.613       33.399       27.608     7159.442     1115.469      762.176        1.104        0.452      114.201       37.008        0.105      345.431       22.954      865.399
08/27/2014  23:58:00     -102.550      -34.701        0.182       37.438       30.312       20.276     1401.640      918.795      411.110        0.723        0.137      108.262       17.757        0.027      345.293       22.719      865.406
08/27/2014  23:59:00      -79.244      -23.084        4.131       49.029       27.580       17.685     2403.873      760.647      312.757        0.515        0.174       82.537       17.437        0.045      345.297       22.727      865.399
